[[{"header":{"parameterUnit":"m.s-1","parameterCategory":1,"la1":30.6,"la2":29.2853,"lo1":-89.7004,"lo2":-87.6739,"dy":0.0162,"dx":0.0183,"nx":112,"ny":82,"refTime":"2023-05-26T12:00:00:Z","depth":0,"parameterNumber":2,"parameterNumberName":"U-component_of_WINDS"},"data":[0.0,0.0,0.0,0.0,0.0,0.0,0.0,0.0,0.0,0.0,0.0,0.0,0.0,0.0,0.0,0.0,0.0,0.0,0.0,0.0,0.0,0.0,0.0,0.0,0.0,0.0,0.0,0.0,0.0,0.0,0.0,0.0,0.0,0.0,0.0,0.0,0.0,0.0,0.0,0.0,0.0,0.0,0.0,0.0,0.0,0.0,0.0,0.0,0.0,0.0,0.0,0.0,0.0,0.0,0.0,0.0,0.0,0.0,0.0,0.0,0.0,0.0,0.0,0.0,0.0,0.0,0.0,0.0,0.0,0.0,0.0,0.0,0.0,0.0,0.0,0.0,0.0,0.0,0.0,0.0,0.0,0.0,0.0,0.0,0.0,0.0,0.0,0.0,0.0,0.0,2.2586,2.2605,2.4332,2.5285,2.4842,2.4641,2.439,2.4029,0.0,0.0,0.0,0.0,0.0,0.0,0.0,0.0,0.0,0.0,0.0,0.0,0.0,0.0,0.0,0.0,0.0,0.0,0.0,0.0,0.0,0.0,0.0,0.0,0.0,0.0,0.0,0.0,0.0,0.0,0.0,0.0,0.0,0.0,0.0,0.0,0.0,0.0,0.0,0.0,0.0,0.0,0.0,0.0,0.0,0.0,0.0,0.0,0.0,0.0,0.0,0.0,0.0,0.0,0.0,0.0,0.0,0.0,0.0,0.0,0.0,0.0,0.0,0.0,0.0,0.0,0.0,0.0,0.0,0.0,0.0,0.0,0.0,0.0,0.0,0.0,0.0,0.0,0.0,0.0,0.0,0.0,0.0,0.0,0.0,0.0,0.0,0.0,0.0,0.0,0.0,0.0,0.0,0.0,0.0,0.0,0.0,0.0,0.0,0.0,0.0,0.0,0.0,0.0,2.1962,2.4173,2.4721,2.4892,2.4816,2.3923,2.3537,2.3979,0.0,0.0,0.0,0.0,0.0,0.0,0.0,0.0,0.0,0.0,0.0,0.0,0.0,0.0,0.0,0.0,0.0,0.0,0.0,0.0,0.0,0.0,0.0,0.0,0.0,0.0,0.0,0.0,0.0,0.0,0.0,0.0,0.0,0.0,0.0,0.0,0.0,0.0,0.0,0.0,0.0,0.0,0.0,0.0,0.0,0.0,0.0,0.0,0.0,0.0,0.0,0.0,0.0,0.0,0.0,0.0,0.0,0.0,0.0,0.0,0.0,0.0,0.0,0.0,0.0,0.0,0.0,0.0,0.0,0.0,0.0,0.0,0.0,0.0,0.0,0.0,0.0,0.0,0.0,0.0,0.0,0.0,0.0,0.0,0.0,0.0,0.0,0.0,0.0,0.0,0.0,0.0,0.0,0.0,0.0,0.0,0.0,0.0,0.0,0.0,0.0,0.0,0.0,2.2014,2.3035,2.5028,2.5218,2.5118,2.48,2.4064,2.3728,2.3979,2.3687,0.0,0.0,0.0,0.0,0.0,0.0,0.0,0.0,0.0,0.0,0.0,0.0,0.0,0.0,0.0,0.0,0.0,0.0,0.0,0.0,0.0,0.0,0.0,0.0,0.0,0.0,0.0,0.0,0.0,0.0,0.0,0.0,0.0,0.0,0.0,0.0,0.0,0.0,0.0,0.0,0.0,0.0,0.0,0.0,0.0,0.0,0.0,0.0,0.0,0.0,0.0,0.0,0.0,0.0,0.0,0.0,0.0,0.0,0.0,0.0,0.0,0.0,0.0,0.0,0.0,0.0,0.0,0.0,0.0,0.0,0.0,0.0,0.0,0.0,0.0,0.0,0.0,0.0,0.0,0.0,0.0,0.0,0.0,0.0,0.0,0.0,0.0,0.0,0.0,0.0,0.0,0.0,0.0,0.0,0.0,0.0,0.0,0.0,0.0,0.0,0.0,0.0,2.3728,2.4563,2.5494,2.5485,2.5193,2.4666,2.4004,2.3653,2.3778,2.3236,0.0,0.0,0.0,0.0,0.0,0.0,0.0,0.0,0.0,0.0,0.0,0.0,0.0,0.0,0.0,0.0,0.0,0.0,0.0,0.0,0.0,0.0,0.0,0.0,0.0,0.0,0.0,0.0,0.0,0.0,0.0,0.0,0.0,0.0,0.0,0.0,0.0,0.0,0.0,0.0,0.0,0.0,0.0,0.0,0.0,0.0,0.0,0.0,0.0,0.0,0.0,0.0,0.0,0.0,0.0,0.0,0.0,0.0,0.0,0.0,0.0,0.0,0.0,0.0,0.0,0.0,0.0,0.0,0.0,0.0,0.0,0.0,0.0,0.0,0.0,0.0,0.0,0.0,0.0,0.0,0.0,0.0,0.0,0.0,0.0,0.0,0.0,0.0,0.0,0.0,0.0,0.0,0.0,0.0,0.0,0.0,0.0,0.0,0.0,0.0,0.0,0.0,2.5114,2.6104,2.5661,2.5143,2.4641,2.4104,2.305,2.2633,2.312,2.2659,0.0,0.0,0.0,0.0,0.0,0.0,0.0,0.0,0.0,0.0,0.0,0.0,0.0,0.0,0.0,0.0,0.0,0.0,0.0,0.0,0.0,0.0,0.0,0.0,0.0,0.0,0.0,0.0,0.0,0.0,0.0,0.0,0.0,0.0,0.0,0.0,0.0,0.0,0.0,0.0,0.0,0.0,0.0,0.0,0.0,0.0,0.0,0.0,0.0,0.0,0.0,0.0,0.0,0.0,0.0,0.0,0.0,0.0,0.0,0.0,0.0,0.0,0.0,0.0,0.0,0.0,0.0,0.0,0.0,0.0,0.0,0.0,0.0,0.0,0.0,0.0,0.0,0.0,0.0,0.0,0.0,0.0,0.0,0.0,0.0,0.0,0.0,0.0,0.0,0.0,0.0,0.0,0.0,0.0,0.0,0.0,0.0,0.0,0.0,0.0,0.0,0.0,2.4592,2.5711,2.5168,2.4917,2.444,2.3537,2.306,2.2895,2.3095,0.0,0.0,0.0,0.0,0.0,0.0,0.0,0.0,0.0,0.0,0.0,0.0,0.0,0.0,0.0,0.0,0.0,0.0,0.0,0.0,0.0,0.0,0.0,0.0,0.0,0.0,0.0,0.0,0.0,0.0,0.0,0.0,0.0,0.0,0.0,0.0,0.0,0.0,0.0,0.0,0.0,0.0,0.0,0.0,0.0,0.0,0.0,0.0,0.0,0.0,0.0,0.0,0.0,0.0,0.0,0.0,0.0,0.0,0.0,0.0,0.0,0.0,0.0,0.0,0.0,0.0,0.0,0.0,0.0,0.0,0.0,0.0,0.0,0.0,0.0,0.0,0.0,0.0,0.0,0.0,0.0,0.0,0.0,0.0,0.0,0.0,0.0,0.0,0.0,0.0,0.0,0.0,0.0,0.0,0.0,0.0,0.0,0.0,0.0,0.0,0.0,0.0,2.2725,2.4614,2.5628,2.4892,2.4816,2.4324,2.3195,2.2945,2.292,2.3095,0.0,0.0,0.0,0.0,0.0,0.0,0.0,0.0,0.0,0.0,0.0,0.0,0.0,0.0,0.0,0.0,0.0,0.0,0.0,0.0,0.0,0.0,0.0,0.0,0.0,0.0,0.0,0.0,0.0,0.0,0.0,0.0,0.0,0.0,0.0,0.0,0.0,0.0,0.0,0.0,0.0,0.0,0.0,0.0,0.0,0.0,0.0,0.0,0.0,0.0,0.0,0.0,0.0,0.0,0.0,0.0,0.0,0.0,0.0,0.0,0.0,0.0,0.0,0.0,0.0,0.0,0.0,0.0,0.0,0.0,0.0,0.0,0.0,0.0,0.0,0.0,0.0,0.0,0.0,0.0,0.0,0.0,0.0,0.0,0.0,0.0,0.0,0.0,0.0,0.0,0.0,0.0,0.0,0.0,0.0,0.0,0.0,0.0,0.0,0.0,0.0,0.0,2.4023,2.5541,2.6055,2.4942,2.4816,2.4324,2.3221,2.2608,2.2533,0.0,0.0,0.0,0.0,0.0,0.0,0.0,0.0,0.0,0.0,0.0,0.0,0.0,0.0,0.0,0.0,0.0,0.0,0.0,0.0,0.0,0.0,0.0,0.0,0.0,0.0,0.0,0.0,0.0,0.0,0.0,0.0,0.0,0.0,0.0,0.0,0.0,0.0,0.0,0.0,0.0,0.0,0.0,0.0,0.0,0.0,0.0,0.0,0.0,0.0,0.0,0.0,0.0,0.0,0.0,0.0,0.0,0.0,0.0,0.0,0.0,0.0,0.0,0.0,0.0,0.0,0.0,0.0,0.0,0.0,0.0,0.0,0.0,0.0,0.0,0.0,0.0,0.0,0.0,0.0,0.0,0.0,0.0,0.0,0.0,0.0,0.0,0.0,0.0,0.0,0.0,0.0,0.0,0.0,0.0,0.0,0.0,0.0,0.0,0.0,0.0,0.0,0.0,2.3245,2.5494,2.6633,2.5485,2.5017,2.4515,2.3788,2.2859,2.2533,2.307,0.0,0.0,0.0,0.0,0.0,0.0,0.0,0.0,0.0,0.0,0.0,0.0,0.0,0.0,0.0,0.0,0.0,0.0,0.0,0.0,0.0,0.0,0.0,0.0,0.0,0.0,0.0,0.0,0.0,0.0,0.0,0.0,0.0,0.0,0.0,0.0,0.0,0.0,0.0,0.0,0.0,0.0,0.0,0.0,0.0,0.0,0.0,0.0,0.0,0.0,0.0,0.0,0.0,0.0,0.0,0.0,0.0,0.0,0.0,0.0,0.0,0.0,0.0,0.0,0.0,0.0,0.0,0.0,0.0,0.0,0.0,0.0,0.0,0.0,0.0,0.0,0.0,0.0,0.0,0.0,0.0,0.0,0.0,0.0,0.0,0.0,0.0,0.0,0.0,0.0,0.0,0.0,0.0,0.0,0.0,0.0,0.0,0.0,0.0,0.0,0.0,0.0,2.3685,2.5637,2.6633,2.5703,2.5118,2.4591,2.4054,2.316,2.2526,2.2342,0.0,0.0,0.0,0.0,0.0,0.0,0.0,0.0,0.0,0.0,0.0,0.0,0.0,0.0,0.0,0.0,0.0,0.0,0.0,0.0,0.0,0.0,0.0,0.0,0.0,0.0,0.0,0.0,0.0,0.0,0.0,0.0,0.0,0.0,0.0,0.0,0.0,0.0,0.0,0.0,0.0,0.0,0.0,0.0,0.0,0.0,0.0,0.0,0.0,0.0,0.0,0.0,0.0,0.0,0.0,0.0,0.0,0.0,0.0,0.0,0.0,0.0,0.0,0.0,0.0,0.0,0.0,0.0,0.0,0.0,0.0,0.0,0.0,0.0,0.0,0.0,0.0,0.0,0.0,0.0,0.0,0.0,0.0,0.0,0.0,0.0,0.0,0.0,0.0,0.0,0.0,0.0,0.0,0.0,0.0,0.0,0.0,0.0,0.0,0.0,0.0,0.0,2.4784,2.5907,2.6373,2.5829,2.5234,2.4609,2.3995,2.3354,2.245,2.1218,0.0,0.0,0.0,0.0,0.0,0.0,0.0,0.0,0.0,0.0,0.0,0.0,0.0,0.0,0.0,0.0,0.0,0.0,0.0,0.0,0.0,0.0,0.0,0.0,0.0,0.0,0.0,0.0,0.0,0.0,0.0,0.0,0.0,0.0,0.0,0.0,0.0,0.0,0.0,0.0,0.0,0.0,0.0,0.0,0.0,0.0,0.0,0.0,0.0,0.0,0.0,0.0,0.0,0.0,0.0,0.0,0.0,0.0,0.0,0.0,1.5742,1.6363,0.0,0.0,0.0,0.0,0.0,0.0,0.0,0.0,0.0,0.0,0.0,0.0,0.0,0.0,0.0,0.0,0.0,0.0,0.0,0.0,0.0,0.0,0.0,0.0,0.0,0.0,0.0,0.0,0.0,0.0,0.0,0.0,0.0,0.0,0.0,0.0,0.0,0.0,0.0,0.0,2.4377,2.6009,2.7085,2.6959,2.6013,2.4921,2.3707,2.271,2.1752,2.0782,1.9914,0.0,0.0,0.0,0.0,0.0,0.0,0.0,0.0,0.0,0.0,0.0,0.0,0.0,0.0,0.0,0.0,0.0,0.0,0.0,0.0,0.0,0.0,0.0,0.0,0.0,0.0,0.0,0.0,0.0,0.0,0.0,0.0,0.0,0.0,0.0,0.0,0.0,0.0,0.0,0.0,0.0,0.0,0.0,0.0,0.0,0.0,0.0,0.0,0.0,0.0,0.0,0.0,0.0,0.0,0.0,0.0,0.0,0.0,0.0,1.3777,1.4895,0.0,0.0,0.0,0.0,0.0,0.0,0.0,0.0,0.0,0.0,0.0,0.0,0.0,0.0,0.0,0.0,0.0,0.0,0.0,0.0,0.0,0.0,0.0,0.0,0.0,0.0,0.0,0.0,0.0,0.0,0.0,0.0,0.0,0.0,0.0,0.0,0.0,0.0,0.0,0.0,2.4816,2.6087,2.6734,2.625,2.5421,2.4437,2.3207,2.2158,2.1112,2.0047,1.9504,0.0,0.0,0.0,0.0,0.0,0.0,0.0,0.0,0.0,0.0,0.0,0.0,0.0,0.0,0.0,0.0,0.0,0.0,0.0,0.0,0.0,0.0,0.0,0.0,0.0,0.0,0.0,0.0,0.0,0.0,0.0,0.0,0.0,0.0,0.0,0.0,0.0,0.0,0.0,0.0,0.0,0.0,0.0,0.0,0.0,0.0,0.0,0.0,0.0,0.0,0.0,0.0,0.0,1.0223,1.0223,1.0246,1.0506,1.0496,1.032,1.1639,1.3047,1.4399,1.4434,0.0,0.0,0.0,0.0,0.0,0.0,0.0,0.0,0.0,0.0,0.0,0.0,0.0,0.0,0.0,0.0,0.0,0.0,0.0,0.0,0.0,0.0,1.7701,1.766,1.7775,1.8045,1.8489,0.0,0.0,0.0,0.0,0.0,0.0,0.0,0.0,0.0,0.0,0.0,2.5084,2.5811,2.5884,2.5098,2.4519,2.3716,2.2577,2.1697,2.066,1.9273,1.9102,1.8998,0.0,0.0,0.0,0.0,0.0,0.0,0.0,0.0,0.0,0.0,0.0,0.0,0.0,0.0,0.0,0.0,0.0,0.0,0.0,0.0,0.0,0.0,0.0,0.0,0.0,0.0,0.0,0.0,0.0,0.0,0.0,0.0,0.6822,0.7876,0.0,0.0,0.0,0.0,0.0,0.0,0.0,0.0,0.0,0.0,0.0,0.0,0.0,0.8667,0.8622,0.873,0.8767,0.8767,0.8767,0.8767,0.8767,0.8815,0.8807,0.8793,0.9013,0.0,1.1232,1.1321,0.0,0.0,0.0,0.0,0.0,0.0,0.0,0.0,0.0,0.0,0.0,0.0,0.0,0.0,0.0,0.0,0.0,0.0,0.0,0.0,0.0,0.0,1.5714,1.5488,1.6124,1.6828,1.689,1.776,1.8452,1.8213,1.893,1.9566,0.0,0.0,0.0,0.0,0.0,0.0,2.3755,2.4515,2.5034,2.4995,2.4529,2.3486,2.1722,2.144,2.0624,1.8804,1.8358,1.8687,1.986,1.9531,0.0,0.0,0.0,0.0,0.0,0.0,0.0,0.0,0.0,0.0,0.0,0.0,0.0,0.0,0.0,0.0,0.0,0.0,0.0,0.0,0.0,0.0,0.0,0.0,0.0,0.0,0.0,0.0,0.0,0.6395,0.6894,0.652,0.7335,0.7797,0.0,0.0,0.0,0.0,0.0,0.0,0.0,0.0,0.0,0.8655,0.8757,0.8825,0.8886,0.8886,0.8845,0.871,0.8648,0.8655,0.873,0.856,0.8526,0.8608,0.8546,0.8852,0.9461,1.0016,1.0576,1.1102,0.0,0.0,0.0,0.0,1.1235,1.1211,1.2083,1.2206,1.2105,1.2802,0.0,0.0,0.0,0.0,0.0,0.0,0.0,1.5645,1.5708,1.5936,1.6059,1.5789,1.6084,1.6378,1.6197,1.6521,1.7086,1.7862,1.8598,1.9221,1.9728,2.0026,0.0,0.0,0.0,2.3153,2.3718,2.4371,2.452,2.377,2.3518,2.2707,2.1094,2.0717,2.0211,1.9375,1.8713,1.873,1.9606,1.948,2.0135,0.0,0.0,0.0,0.0,0.0,0.0,0.0,0.0,0.0,0.0,0.0,0.0,0.0,0.0,0.0,0.0,0.0,0.0,0.0,0.0,0.0,0.0,0.0,0.0,0.0,0.0,0.0,0.0,0.5967,0.6179,0.5286,0.627,0.6918,0.0,0.0,0.0,0.0,0.0,0.0,0.711,0.8269,0.9076,0.9403,0.941,0.943,0.9471,0.943,0.9327,0.919,0.9,0.8973,0.9075,0.8832,0.8777,0.8879,0.8764,0.8716,0.8728,0.9201,0.9828,1.0421,1.0399,1.0408,1.0472,1.0666,1.0596,1.0538,1.1266,1.1326,1.1178,1.1598,1.1674,1.1652,1.1931,0.0,0.0,0.0,0.0,1.6075,1.6351,1.654,1.6647,1.6458,1.6404,1.6324,1.6005,1.5915,1.6246,1.7271,1.7954,1.8632,1.9604,1.9748,0.0,2.2212,2.2653,2.3001,2.3535,2.4049,2.389,2.2627,2.2486,2.1985,2.0703,2.0293,2.0039,1.9903,1.9298,1.9044,1.9296,1.9315,1.9658,2.0392,0.0,0.0,0.0,0.0,0.0,0.0,0.0,0.0,0.0,0.0,0.0,0.0,0.0,0.0,0.0,0.0,0.0,0.0,0.0,0.0,0.0,0.0,0.0,0.0,0.0,0.0,0.0,0.0,0.0,0.3959,0.427,0.0,0.0,0.0,0.0,0.6347,0.6578,0.7479,0.9344,0.9505,0.967,0.9961,0.9974,1.0042,1.0254,1.0049,0.9967,0.993,0.967,0.9571,0.9571,0.9408,0.9369,0.9376,0.9369,0.9281,0.9132,0.8598,0.8484,0.8626,0.8494,0.8522,0.864,0.8654,0.8647,0.8796,1.0051,1.0297,1.0323,1.1849,1.2137,1.2199,1.3903,1.4251,0.0,0.0,1.6647,1.666,1.6687,1.67,1.67,1.6687,1.6687,1.6607,1.6337,1.627,1.612,1.5647,1.6381,1.7544,1.8913,0.0,2.1078,2.2308,2.2834,2.2953,2.2622,2.2918,2.2861,2.2037,2.1938,2.1585,2.0683,2.0586,2.0371,1.9941,1.9864,1.9687,1.9297,1.9315,1.9314,1.9368,2.0324,0.0,0.0,0.0,0.0,0.0,0.0,0.0,0.0,0.0,0.0,0.0,0.0,0.0,0.0,0.0,0.0,0.0,0.0,0.0,0.0,0.0,0.0,0.0,0.0,0.0,0.0,0.0,0.0,0.2791,0.3712,0.0,0.5817,0.519,0.5467,0.7331,0.7718,0.8146,0.8853,0.9883,1.0529,1.0758,1.0765,1.0704,1.0568,1.0475,1.0353,1.0195,0.9961,0.9913,1.0032,0.9686,0.9578,0.9652,0.9462,0.9376,0.9315,0.9104,0.8906,0.8737,0.8615,0.8648,0.8737,0.8662,0.8689,0.8832,0.9286,0.9377,0.9394,0.9958,1.0784,1.1768,1.3039,1.409,1.5059,1.635,1.6872,1.702,1.702,1.7153,1.7247,1.706,1.702,1.6939,1.662,1.6553,1.6486,1.6286,1.6235,1.6904,1.9004,1.9474,2.0311,2.2568,2.2791,2.2654,2.2539,2.2849,2.2791,2.1993,2.1915,2.1641,2.1055,2.0762,2.0546,2.0351,2.0078,1.9961,2.0117,1.9589,1.9315,1.9315,1.9658,1.9819,0.0,0.0,0.0,0.0,0.0,0.0,0.0,0.0,0.0,0.0,0.0,0.0,0.0,0.0,0.0,0.0,0.0,0.0,0.0,0.0,0.0,0.0,0.0,0.0,0.0,0.3136,0.2869,0.2505,0.3437,0.4842,0.6786,0.6167,0.6427,0.834,0.8618,0.9031,0.9684,1.0629,1.1205,1.1382,1.1329,1.1152,1.0873,1.0786,1.067,1.0426,1.0238,1.0256,1.0369,0.9992,0.989,0.9964,0.9768,0.9716,0.9716,0.9716,0.9571,0.9332,0.9055,0.8994,0.9048,0.8974,0.9001,0.9061,0.9061,0.9061,0.9174,0.97,1.0608,1.1787,1.3467,1.4728,1.5798,1.699,1.7474,1.7635,1.7635,1.7769,1.7862,1.7675,1.7635,1.7515,1.7088,1.7007,1.6941,1.674,1.6313,1.6738,1.9217,1.9336,1.9999,2.2692,2.2869,2.2693,2.2693,2.2947,2.2791,2.1993,2.1915,2.1661,2.1055,2.0879,2.0742,2.0625,2.0312,2.0195,2.0351,1.9823,1.9492,1.9492,1.916,1.8955,1.8974,0.0,0.0,0.0,0.0,0.0,0.0,0.0,0.0,0.0,0.0,0.0,0.0,0.0,0.0,0.0,0.0,0.0,0.0,0.0,0.0,0.0,0.0,0.0,0.2736,0.1055,0.1029,0.3244,0.3473,0.4307,0.6594,0.6795,0.7556,0.9381,0.9376,1.0133,1.1993,1.1796,1.1665,1.1807,1.1565,1.1335,1.1213,1.1002,1.086,1.0698,1.0582,1.0507,1.05,1.0351,1.0322,1.0322,1.0315,1.0315,1.0315,1.0315,1.0315,1.0254,0.9655,0.9424,0.943,0.9424,0.9446,0.9482,0.9482,0.9511,0.9823,1.1368,1.1914,1.2507,1.5412,1.6338,1.6686,1.8089,1.849,1.849,1.849,1.849,1.849,1.849,1.849,1.833,1.7742,1.7635,1.7435,1.686,1.6524,1.7099,1.9485,1.9721,2.0376,2.2731,2.3101,0.0,2.3081,2.3081,2.2791,2.1992,2.1915,2.1563,2.0723,2.0976,2.1015,2.0586,2.0586,2.0352,1.9865,1.9846,1.9827,1.9789,1.8784,1.8265,1.8264,0.0,0.0,0.0,0.0,0.0,0.0,0.0,0.0,0.0,0.0,0.0,0.0,0.0,0.0,0.0,0.0,0.0,0.0,0.0,0.0,0.0,0.7154,0.6897,0.6855,0.5789,0.5259,0.5999,0.6053,0.6908,0.9109,0.9183,0.9919,1.1867,1.1843,1.1946,1.2386,1.2203,1.2121,1.2162,1.2016,1.1755,1.1497,1.1457,1.1301,1.107,1.0894,1.0792,1.0779,1.0555,1.0465,1.0426,1.0324,1.0315,1.0315,1.0315,1.0315,1.0274,0.9849,0.9737,0.9812,0.9625,1.0347,1.1419,1.1419,1.2183,1.324,1.3682,1.4622,1.5671,1.627,1.726,1.8238,1.8433,1.849,1.849,1.849,1.849,1.849,1.849,1.849,1.8437,1.8277,1.8076,1.7849,1.7689,1.7261,1.7579,1.9557,2.0703,2.1731,2.292,2.3101,2.2984,2.2693,2.2927,2.2886,2.2402,2.2344,2.2109,2.1583,2.1327,2.0879,2.0137,2.0098,1.9697,1.8764,1.845,1.8074,1.7592,1.7281,1.7279,0.0,0.0,0.0,0.0,0.0,0.0,0.0,0.0,0.0,0.0,0.0,0.0,0.0,0.0,0.0,0.0,0.0,0.0,0.0,0.0,0.0,0.0,0.8908,0.9586,1.0673,0.8621,0.7357,0.8406,0.8518,0.9398,1.1578,1.1646,1.2075,1.3253,1.3132,1.2969,1.2881,1.2684,1.2569,1.2569,1.2397,1.2135,1.1904,1.1739,1.1558,1.1295,1.1172,1.107,1.1029,1.0792,1.0683,1.0677,1.0527,1.0466,1.0466,1.0466,1.0466,1.0432,0.0,0.0,0.0,0.0,1.0838,1.2305,1.2357,1.3416,1.489,1.5549,1.6511,1.7452,1.7789,1.8619,1.941,1.9265,1.9132,1.9038,1.9038,1.8945,1.8893,1.8893,1.8893,1.8853,1.8704,1.8503,1.8356,1.8236,1.8316,0.0,1.9543,2.0481,2.1476,2.2483,2.289,2.2635,2.1386,2.1901,2.1992,2.1083,2.0878,2.0677,2.0355,2.0056,0.0,0.0,0.0,1.8466,1.7668,1.7557,0.0,0.0,0.0,1.6743,1.6801,1.6676,0.0,0.0,1.7361,1.7727,0.0,0.0,0.0,0.0,0.0,0.0,0.0,0.0,0.0,0.0,0.0,0.0,0.0,0.0,0.0,0.0,1.1765,1.3227,1.3747,1.0403,0.8673,1.0678,1.0913,1.1715,1.3677,1.3835,1.3822,1.3822,1.3607,1.3451,1.3451,1.3173,0.0,0.0,0.0,1.2474,1.2318,1.204,1.1726,1.147,1.145,1.1362,1.1247,1.1029,1.0955,1.0928,1.0779,1.0844,1.1003,1.0989,1.1108,1.1245,1.0791,1.0735,1.0858,1.0676,1.1642,1.3044,1.3159,0.0,0.0,1.7246,1.7913,1.8374,1.9488,1.9997,2.0197,2.0197,2.0024,1.984,1.9813,1.9613,1.9441,1.9401,1.9401,1.9321,1.9025,1.8916,1.8823,1.8584,1.9244,1.9767,1.9539,1.9771,2.0429,2.1588,2.2303,2.1954,1.977,2.0432,2.0557,1.9118,1.8693,0.0,1.8295,1.8171,1.802,1.779,1.7376,1.6989,1.6627,1.6887,1.7036,1.7036,1.675,1.6381,1.5971,1.5354,1.5173,1.5414,1.6395,1.6896,0.0,0.0,0.0,0.0,0.0,0.0,0.0,0.0,0.0,0.0,0.0,0.0,0.0,0.0,0.0,1.2004,1.2882,1.362,1.398,1.3378,1.3073,1.3499,1.3569,1.372,1.4167,1.4102,1.4027,1.4027,1.3858,1.3714,1.3714,1.3478,1.3315,1.3315,1.3071,1.2778,1.2461,1.24,1.2223,1.1968,1.1803,0.0,1.1525,1.1375,1.124,1.1145,1.0934,1.1668,1.2944,1.2831,1.3611,1.4725,1.3176,1.3346,1.4478,1.444,1.5443,1.6828,1.6859,1.788,1.9244,1.9559,1.9689,1.982,2.004,2.0157,0.0,2.0197,2.0157,2.0064,1.9867,1.976,1.9653,1.9455,1.9401,1.9388,1.9321,1.9092,1.8876,1.8823,1.859,1.8736,1.9782,2.042,2.0677,2.0359,2.0441,2.0272,1.9598,1.9702,1.9736,1.942,1.9331,1.9122,1.8715,1.8699,1.8419,1.7676,1.6722,1.6139,1.6058,1.567,1.5439,1.5439,1.5387,1.5303,1.5204,1.5277,1.5337,1.5391,1.5621,1.5836,0.0,0.0,0.0,0.0,0.0,0.0,0.0,0.0,0.0,0.0,0.0,1.0995,1.1518,0.0,1.2535,1.3281,1.3654,1.398,1.4353,1.4346,1.4299,1.4299,1.4299,1.4299,1.4299,1.4231,1.4183,1.4183,1.4041,1.3953,1.3953,1.3743,1.362,1.362,1.3336,1.3105,1.2956,1.2732,1.2501,1.2315,1.2128,1.1986,1.1837,1.1681,1.1531,1.1382,1.1233,1.1599,1.2384,1.3111,1.4913,1.7098,1.6177,1.5745,1.5706,1.5616,1.6607,1.7999,1.808,1.9124,2.0454,2.0454,2.0548,2.061,2.0494,2.0561,2.0637,2.0637,2.053,2.0428,2.0281,2.0013,1.976,1.9626,1.9495,1.9401,1.9401,1.9281,1.9145,1.9145,1.8756,1.8671,1.9387,1.9493,1.9505,1.9541,1.9894,1.9605,1.8095,1.8426,1.8505,1.7731,1.752,1.7415,1.73,1.7212,1.6914,1.6336,1.5762,1.5456,1.5456,1.5159,1.5008,1.5008,1.5133,1.52,1.52,1.5471,1.5595,1.5595,1.5595,1.6013,0.0,0.0,0.0,0.0,0.0,0.0,0.0,1.0346,1.0623,1.1225,1.1619,1.202,1.2644,1.3017,1.3479,1.4095,1.4204,1.4326,1.464,1.4563,1.4421,1.4387,1.436,1.4333,1.4306,1.4326,1.4333,1.4299,1.4183,1.4159,1.4159,1.3973,1.3842,1.3842,1.3627,1.3458,1.3403,1.2997,1.2773,1.2589,1.2447,1.2298,1.2179,1.1993,1.1807,1.173,1.2251,1.2607,1.2883,1.4083,1.6376,1.9064,1.8664,1.7859,1.6894,1.6796,1.7553,1.871,1.8804,1.9694,2.0793,2.0793,2.0922,2.1069,2.0828,2.0922,2.1109,2.1109,2.0935,2.0779,2.0726,2.0321,1.996,1.9893,1.9706,1.9562,1.9562,1.9522,1.9481,1.9481,1.9172,1.889,1.889,1.8463,1.8264,1.8807,1.9403,1.8953,1.6687,1.7218,1.7332,1.6034,1.5698,1.5645,1.5795,1.5595,1.5378,1.5173,1.516,1.516,1.516,1.516,1.516,1.516,1.5364,1.5484,1.5484,1.5755,1.5861,1.5808,1.5928,1.6592,0.4344,0.707,0.9647,1.0483,1.0595,1.0819,0.0,1.2305,1.221,1.28,1.3166,1.3403,1.3612,1.3939,1.4265,1.4566,1.462,1.4633,1.4687,1.4828,1.4848,1.466,1.457,1.4441,1.4312,1.4414,1.4434,1.4306,1.4285,1.4272,1.4272,1.4129,1.4091,1.4091,1.3878,1.3626,1.3403,1.3349,1.3186,1.2948,1.2752,1.2603,1.2447,1.2305,1.2155,1.2215,1.5123,1.7172,1.8485,1.8401,1.9508,2.107,1.9217,1.9323,2.0513,2.0487,2.06,2.0771,2.0771,2.0898,2.1069,2.1069,2.1082,2.1096,2.1069,2.1082,2.1109,2.1109,2.1082,2.1002,2.0748,2.0659,2.0508,2.0224,2.013,2.0104,2.0104,1.9933,1.976,1.976,1.9305,1.889,1.889,1.8651,1.8291,1.7859,1.7637,1.7336,1.6712,1.6771,1.6688,1.6284,1.6217,1.6086,1.5821,1.5781,1.5741,1.5715,1.5701,1.5701,1.5701,1.5701,1.5701,1.5701,1.5741,1.5755,1.5755,1.6072,1.6086,1.5821,1.6342,1.6995,0.6165,0.796,0.9588,1.0883,1.1504,1.1979,1.2671,1.2813,1.2976,1.3615,1.3871,1.4116,1.4441,1.4604,1.4787,1.5086,1.4984,1.4964,1.5181,1.4943,1.4746,1.4862,1.4658,1.4489,1.4428,1.4557,1.455,1.4319,1.4373,1.4387,1.4306,1.4238,1.4204,1.4204,1.4055,1.3919,1.379,1.3532,1.3342,1.3214,1.2888,1.3319,1.44,1.4229,1.4724,1.5786,1.6913,1.8309,1.9778,1.9486,2.0241,2.1504,2.0651,2.0637,2.1109,2.1109,2.1109,2.1109,2.1109,2.1109,2.1109,2.1109,2.1109,2.1109,2.1109,2.1109,2.1109,2.1109,2.1109,2.1082,2.0962,2.0833,2.0641,2.0521,2.033,2.0157,1.9983,1.988,1.9746,1.9615,1.9345,1.9185,1.9185,1.8931,1.8651,1.8397,1.7969,1.7555,1.7261,1.71,1.6872,1.6578,1.6526,1.6473,1.6353,1.6315,1.6315,1.6315,1.6315,1.6315,1.6315,1.6315,1.6315,1.6315,1.6315,1.6315,1.6315,1.646,1.646,1.6315,1.6593,1.7235,0.7596,0.8773,0.9924,1.1305,1.225,1.2881,1.297,1.3268,1.3663,1.4095,1.4346,1.4584,1.4955,1.5051,1.5099,1.5309,1.5167,1.5126,1.5411,1.5018,1.4746,1.4889,1.4713,1.4557,1.4516,1.4611,1.4525,1.4319,1.4394,1.4407,1.4306,1.4299,1.4299,1.4299,1.419,1.4159,1.4119,1.3709,1.3505,1.3458,1.3051,1.3634,1.5074,1.4843,1.6013,1.8208,1.7871,1.894,2.0957,2.0535,2.0939,2.181,2.1649,2.1448,2.1216,2.1136,2.1109,2.1109,2.1109,2.1109,2.1109,2.1109,2.1109,2.1109,2.1109,2.1109,2.1109,2.1109,2.1109,2.1109,2.1109,2.0949,2.0802,2.0802,2.0628,2.0384,2.0201,2.0094,1.9973,1.9803,1.9696,1.9599,1.9599,1.9359,1.913,1.913,1.8636,1.8156,1.7876,1.7608,1.7301,1.6981,1.6874,1.6794,1.6714,1.67,1.67,1.67,1.67,1.67,1.67,1.67,1.67,1.67,1.67,1.67,1.67,1.678,1.678,1.6714,1.6874,1.7569,0.7932,0.9629,1.1496,1.2115,1.2718,1.3275,1.3666,1.4048,1.4312,1.4468,1.474,1.5003,1.5017,1.5132,1.5181,1.5187,1.5181,1.5133,1.5011,1.5086,1.5059,1.4735,1.4694,1.4626,1.4523,1.4516,1.4455,1.4312,1.4306,1.4306,1.4299,1.4299,1.4299,1.4299,1.4292,1.4224,1.4119,1.3912,1.3714,1.3578,1.3308,1.32,1.3268,1.2934,1.4739,1.808,1.7813,1.9802,2.3155,2.2557,2.2338,2.2338,2.181,2.1582,2.1542,2.1216,2.1109,2.1109,2.1109,2.1109,2.1109,2.1109,2.1109,2.1109,2.1109,2.1109,2.1109,2.1109,2.1109,2.1109,2.1109,2.1096,2.1096,2.1096,2.1082,2.1082,2.1069,2.0855,2.0672,2.0672,2.0401,2.0184,2.0184,1.993,1.9773,1.9773,1.9279,1.8798,1.8504,1.8169,1.7876,1.7582,1.7327,1.7046,1.6727,1.67,1.67,1.67,1.67,1.67,1.67,1.67,1.67,1.67,1.67,1.67,1.67,1.702,1.7006,1.6714,1.7288,1.8149,1.2175,1.3622,1.508,1.7084,1.7987,1.8482,1.8945,1.9119,1.9229,1.9383,1.8135,1.6986,1.7015,1.5736,1.4808,1.5011,1.512,1.5201,1.5255,1.5045,1.4769,1.4611,1.4509,1.4387,1.4238,1.4394,1.4455,1.4312,1.4387,1.4401,1.4306,1.4299,1.4299,1.4299,1.4299,1.4278,1.4224,1.4068,1.3919,1.372,1.4702,1.5151,1.5113,1.6242,1.8056,2.0273,1.9873,2.1055,2.3265,2.2886,2.2592,2.2371,2.2205,2.2004,2.1836,2.1542,2.1435,2.1408,2.1176,2.1109,2.1109,2.1109,2.1109,2.1109,2.1109,2.1109,2.1109,2.1109,2.1109,2.1109,2.1109,2.1109,2.1109,2.1109,2.1109,2.1056,2.0869,2.0748,2.0615,2.0414,2.0277,2.0197,2.0197,2.0117,2.0027,1.9826,1.9305,1.8796,1.8531,1.8397,1.8303,1.8196,1.813,1.8023,1.7903,1.7889,1.7889,1.7889,1.7889,1.7889,1.7889,1.7889,1.7889,1.7889,1.7889,1.7889,1.7889,1.8023,1.7983,1.7889,1.809,1.8914,1.5776,1.7067,1.805,2.0008,2.0783,2.1165,2.146,2.1538,2.1575,2.1602,1.9584,1.7774,1.7694,1.5746,1.4278,1.4523,1.4692,1.4855,1.5059,1.4794,1.4834,1.5667,1.4864,1.4848,1.6475,1.5227,1.434,1.4306,1.4387,1.4394,1.4306,1.4299,1.4299,1.4299,1.4299,1.4299,1.4299,1.415,1.3966,1.372,1.4788,1.5164,1.4955,1.6176,1.8048,2.0347,1.9833,2.1102,2.3447,2.3067,2.2786,2.2565,2.2458,2.2245,2.1984,2.1689,2.1515,2.1395,2.1176,2.1109,2.1109,2.1109,2.1109,2.1109,2.1109,2.1109,2.1109,2.1109,2.1109,2.1109,2.1109,2.1109,2.1109,2.1109,2.1109,2.1056,2.0869,2.0828,2.0775,2.0557,2.0517,2.0517,2.0517,2.0424,2.0294,2.0,1.961,1.9223,1.8879,1.8839,1.8799,1.8651,1.8651,1.8597,1.8504,1.849,1.849,1.849,1.849,1.849,1.849,1.849,1.849,1.849,1.849,1.849,1.849,1.849,1.849,1.8518,1.9044,2.0057,1.8638,1.9867,2.048,2.1025,2.1386,2.1566,2.1577,2.1654,2.1649,2.1241,1.9284,1.7485,1.7129,1.5138,1.3605,1.3761,1.3987,1.4204,1.4496,1.4421,1.5255,1.7715,1.5704,1.5969,2.0616,1.6985,1.4382,1.4483,1.4401,1.4306,1.4299,1.4306,1.4306,1.4299,1.4299,1.4299,1.4299,1.415,1.3926,1.3599,1.3705,1.3556,1.317,1.3269,1.5277,1.8693,1.8117,2.0104,2.3736,2.3161,2.2907,2.2867,2.2552,2.2258,2.201,2.1716,2.1422,2.1136,2.1109,2.1109,2.1109,2.1109,2.1109,2.1109,2.1109,2.1109,2.1109,2.1109,2.1109,2.1109,2.1109,2.1109,2.1109,2.1109,2.1109,2.1109,2.1109,2.1109,2.1109,2.1109,2.1109,2.1109,2.1109,2.0882,2.0601,2.0264,2.0224,2.0054,1.9508,1.9428,1.9308,1.897,1.893,1.8838,1.8557,1.8558,1.8558,1.8558,1.8558,1.8558,1.8558,1.8558,1.8558,1.8558,1.8558,1.8558,1.8558,1.8558,1.8558,1.8586,2.0046,2.1457,2.182,2.2982,2.3832,2.584,2.6348,2.6456,2.6682,2.6576,2.5902,2.3988,2.1306,1.8666,1.666,1.4586,1.3254,1.3578,1.4183,1.4638,1.4828,1.4821,1.5667,1.789,1.6003,1.5689,1.8673,1.7962,1.7331,1.7335,1.554,1.4414,1.4306,1.4401,1.4407,1.4306,1.4299,1.4299,1.4299,1.415,1.3973,1.3741,1.5093,1.5566,1.5425,1.673,1.8528,2.0658,2.0439,2.1486,2.3434,2.3273,2.3073,2.2893,2.2813,2.2565,2.2271,2.201,2.1716,2.1435,2.1189,2.1109,2.1109,2.1109,2.1109,2.1109,2.1109,2.1109,2.1109,2.1109,2.1109,2.1109,2.1109,2.1109,2.1109,2.1109,2.1109,2.1109,2.1109,2.1109,2.1109,2.1109,2.1109,2.1109,2.1109,2.1042,2.0895,2.0615,2.0561,2.0428,2.0067,1.9826,1.9666,1.9586,1.9386,1.9254,1.9187,1.9174,1.9174,1.9174,1.9174,1.9174,1.9174,1.9174,1.9174,1.9174,1.9174,1.9174,1.9174,1.9174,1.9174,1.9202,2.0685,2.2143,2.474,2.581,2.647,2.7844,2.8179,2.8098,2.7709,2.7602,2.6955,2.4823,2.1681,1.8785,1.699,1.4512,1.2861,1.3146,1.3919,1.457,1.4969,1.5862,1.7405,1.9916,1.8964,1.9509,2.3017,2.1427,2.0637,2.1671,1.8231,1.6106,1.6015,1.4979,1.438,1.4299,1.4299,1.4778,1.5814,1.5605,1.5949,1.6782,1.7616,1.7842,1.7557,1.8544,1.9873,2.1466,2.1294,2.2089,2.3514,2.3345,2.314,2.2893,2.2893,2.2719,2.2378,2.2098,2.1836,2.1542,2.1216,2.1109,2.1109,2.1109,2.1109,2.1109,2.1109,2.1109,2.1109,2.1109,2.1109,2.1109,2.1109,2.1109,2.1109,2.1109,2.1109,2.1109,2.1109,2.1109,2.1109,2.1109,2.1109,2.1109,2.1109,2.1109,2.1056,2.0895,2.0869,2.0802,2.061,2.0224,1.9947,1.9813,1.9653,1.9589,1.9589,1.9589,1.9589,1.9589,1.9589,1.9535,1.9401,1.9401,1.9401,1.9401,1.9401,1.9401,1.9401,1.9401,1.9722,2.04,2.187,2.3375,2.715,2.7991,2.8179,2.8179,2.8152,2.7831,2.6693,2.652,2.6081,2.4093,2.1061,1.8467,1.7514,1.5058,1.3221,1.3565,1.4311,1.5183,1.5937,1.7679,2.0007,2.3025,2.2877,2.4393,2.908,2.566,2.392,2.5948,2.1874,1.9124,1.8699,1.6518,1.53,1.5212,1.5212,1.621,1.8235,1.7914,1.8697,2.0596,2.0508,2.0169,1.9631,1.9873,2.0698,2.2,2.1736,2.2492,2.3843,2.3514,2.3207,2.296,2.292,2.2719,2.2358,2.2138,2.189,2.1596,2.1269,2.1162,2.1162,2.1122,2.1109,2.1109,2.1109,2.1109,2.1109,2.1109,2.1109,2.1109,2.1109,2.1109,2.1109,2.1109,2.1109,2.1109,2.1109,2.1109,2.1109,2.1109,2.1109,2.1109,2.1109,2.1109,2.1109,2.1109,2.1109,2.1109,2.1109,2.0597,2.0201,1.9947,1.988,1.9853,1.9853,1.9853,1.9853,1.9853,1.9853,1.9746,1.9522,1.9481,1.9455,1.9455,1.9415,1.9401,1.9401,1.9591,2.0342,2.1643,2.3368,2.4872,2.7908,2.8138,2.8179,2.8179,2.8005,2.7535,2.66,2.6052,2.4835,2.1762,2.0332,1.8992,1.6947,1.6494,1.6796,1.812,1.8746,1.9655,2.1379,2.15,2.2677,2.5945,2.4327,2.4159,2.727,2.6817,2.6376,2.6545,2.5593,2.3838,2.1233,2.0767,2.0416,2.0019,2.0009,2.0183,2.0616,2.0314,2.0311,2.0596,2.1815,2.218,2.1823,2.3363,2.4082,2.4068,2.4016,2.4053,2.4102,2.3808,2.3514,2.322,2.3,2.2719,2.2371,2.2365,2.2164,2.1903,2.1609,2.1502,2.1462,2.1189,2.1109,2.1109,2.1109,2.1109,2.1109,2.1109,2.1109,2.1109,2.1109,2.1109,2.1109,2.1109,2.1109,2.1109,2.1109,2.1109,2.1109,2.1109,2.1109,2.1109,2.1109,2.1109,2.1109,2.1109,2.1109,2.1109,2.1109,2.0815,2.0619,2.0565,2.0307,2.013,2.013,2.013,2.013,2.013,2.013,2.0104,2.005,1.9853,1.972,1.972,1.9522,1.9401,1.9401,2.0616,2.133,2.1671,2.4755,2.6149,2.8152,2.8179,2.8179,2.8179,2.7844,2.7121,2.5785,2.5144,2.406,2.1382,2.0102,1.9067,1.7752,1.7275,1.7378,1.8307,1.9065,2.0085,2.1741,2.3104,2.4753,2.6946,2.7227,2.7777,2.9093,2.9119,2.8917,2.8653,2.8236,2.6755,2.3875,2.2319,2.1444,2.1231,2.1221,2.1782,2.2998,2.2714,2.3062,2.411,2.4665,2.4685,2.4275,2.5162,2.5291,2.4863,2.4863,2.4609,2.4195,2.4048,2.3728,2.3278,2.3166,2.2913,2.2632,2.2472,2.2338,2.2151,2.1743,2.1689,2.1756,2.1475,2.1368,2.1368,2.1368,2.1368,2.1368,2.1368,2.1368,2.1309,2.1149,2.1229,2.1368,2.1368,2.1456,2.1523,2.1408,2.1368,2.1368,2.1368,2.1216,2.1109,2.1109,2.1109,2.1109,2.1109,2.1109,2.1109,2.1109,2.0989,2.0842,2.0726,2.0548,2.0468,2.0468,2.0468,2.0468,2.0468,2.0468,2.0401,2.021,2.0064,2.0027,2.0027,1.9893,1.9813,1.9813,2.1162,2.2318,2.338,2.5631,2.7151,2.8165,2.8179,2.8179,2.8179,2.7697,2.672,2.4986,2.4279,2.346,2.151,2.0295,1.9498,1.914,1.8463,1.8163,1.8776,1.9552,2.071,2.2415,2.4703,2.6699,2.797,2.9879,3.1156,3.1176,3.0969,3.0675,3.0426,2.9864,2.8551,2.6372,2.3964,2.2686,2.2686,2.2686,2.3598,2.5416,2.512,2.5766,2.7403,2.7001,2.6547,2.6091,2.6024,2.5677,2.5115,2.5115,2.4783,2.4289,2.4222,2.3928,2.3479,2.3447,2.3233,2.296,2.2699,2.2565,2.2445,2.1957,2.1917,2.2031,2.177,2.1676,2.1676,2.1676,2.1676,2.1676,2.1676,2.1676,2.1622,2.1363,2.1502,2.1676,2.1676,2.185,2.1924,2.1729,2.1676,2.1676,2.1676,2.1435,2.1203,2.1203,2.1149,2.1109,2.1109,2.1109,2.1109,2.1109,2.1109,2.1029,2.082,2.0806,2.0806,2.0806,2.0806,2.0806,2.0806,2.0806,2.0668,2.0397,2.033,2.0304,2.0304,2.0237,2.0379,2.0728,2.198,2.3573,2.5447,2.6803,2.8211,2.8112,2.8179,2.8179,2.8179,2.7536,2.6427,2.4933,2.3959,2.2932,2.143,2.1022,2.0909,2.0856,2.1044,2.1619,2.2998,2.3487,2.4685,2.7513,2.8171,2.896,3.0637,3.0856,3.0942,3.1196,3.0969,3.0675,3.0426,2.9864,2.9144,2.837,2.7843,2.7575,2.7575,2.7575,2.7659,2.7883,2.755,2.7475,2.7655,2.7094,2.6653,2.6333,2.6118,2.5677,2.5115,2.5115,2.489,2.4532,2.4315,2.4168,2.4102,2.3834,2.3541,2.3252,2.3225,2.306,2.2813,2.2445,2.2352,2.2338,2.2044,2.1951,2.1951,2.1951,2.1951,2.1951,2.1951,2.1951,2.197,2.1943,2.1924,2.1951,2.1951,2.1964,2.1977,2.1984,2.1951,2.1951,2.1951,2.1743,2.1542,2.1542,2.1283,2.1109,2.1109,2.1109,2.1109,2.1109,2.1109,2.1096,2.1069,2.1069,2.1069,2.1069,2.1069,2.1069,2.1069,2.1069,2.1056,2.1029,2.0775,2.0641,2.0641,2.0374,2.0939,2.2468,2.3914,2.5488,2.7122,2.9003,2.977,2.7696,2.8045,2.8179,2.8179,2.7255,2.6012,2.4853,2.3639,2.2512,2.1609,2.1229,2.1162,2.1368,2.1355,2.159,2.2572,2.2939,2.3915,2.6172,2.6787,2.7736,2.9628,2.9967,3.0194,3.0662,3.0595,3.0386,2.9918,2.9446,2.9045,2.8631,2.8484,2.8379,2.8192,2.8179,2.8179,2.8179,2.8072,2.7924,2.7696,2.7281,2.6934,2.664,2.6346,2.5892,2.5344,2.5569,2.5237,2.4599,2.4703,2.4516,2.4168,2.3888,2.3594,2.3265,2.3113,2.3,2.2853,2.2525,2.2539,2.2632,2.2338,2.2365,2.2505,2.2298,2.2245,2.2245,2.2245,2.2245,2.2205,2.2031,2.2111,2.2205,2.2031,2.2291,2.2492,2.2285,2.2245,2.2245,2.2245,2.2004,2.1796,2.1609,2.1489,2.1309,2.1136,2.1109,2.1109,2.1109,2.1109,2.1109,2.1109,2.1109,2.1109,2.1109,2.1109,2.1109,2.1109,2.1109,2.1109,2.1109,2.1002,2.0935,2.0935,2.1796,2.2573,2.3246,2.5518,2.7093,2.7998,2.9498,3.0254,2.7228,2.7817,2.8179,2.8179,2.7081,2.577,2.4799,2.3452,2.2231,2.1596,2.1256,2.1176,2.1422,2.1355,2.1403,2.1911,2.2298,2.314,2.4874,2.5623,2.6667,2.843,2.8831,2.9219,2.99,3.0127,3.006,2.9646,2.9339,2.9001,2.8751,2.8657,2.847,2.8192,2.8179,2.8179,2.8179,2.8179,2.8031,2.7696,2.7443,2.7108,2.6774,2.652,2.6119,2.5651,2.5904,2.5504,2.4783,2.4997,2.4783,2.4315,2.4102,2.3794,2.3434,2.3255,2.3054,2.2867,2.2619,2.2686,2.2867,2.2619,2.2733,2.2853,2.2619,2.2552,2.2552,2.2552,2.2552,2.2498,2.2331,2.2392,2.2498,2.2331,2.2599,2.284,2.2592,2.2552,2.2552,2.2552,2.2311,2.2044,2.1877,2.177,2.1636,2.1403,2.1296,2.1243,2.1243,2.1162,2.1109,2.1109,2.1109,2.1109,2.1109,2.1109,2.1109,2.1109,2.1109,2.1109,2.1109,2.1109,2.1109,2.1109,2.2247,2.3356,2.4332,2.6307,2.7902,2.9157,3.0007,3.0586,2.668,2.7468,2.8179,2.8179,2.7081,2.577,2.4799,2.3452,2.2131,2.1296,2.1109,2.1109,2.1109,2.1381,2.1676,2.197,2.2505,2.3415,2.49,2.5623,2.6426,2.7575,2.7722,2.807,2.8921,2.9535,2.9913,2.9913,2.9646,2.9352,2.9001,2.8721,2.847,2.8192,2.8179,2.8179,2.8179,2.8179,2.8031,2.7696,2.7443,2.7108,2.6774,2.652,2.6265,2.5998,2.5998,2.5663,2.5115,2.5115,2.4903,2.4599,2.4586,2.4275,2.3803,2.3803,2.3415,2.2893,2.2893,2.2893,2.2893,2.2893,2.2893,2.2893,2.2893,2.2893,2.2893,2.2893,2.2893,2.2893,2.2893,2.2893,2.2893,2.2893,2.2893,2.2893,2.2893,2.2893,2.2893,2.2893,2.2619,2.2371,2.2371,2.2164,2.1977,2.1977,2.177,2.1582,2.1582,2.1328,2.1109,2.1109,2.1109,2.1109,2.1109,2.1109,2.1109,2.1109,2.1109,2.1109,2.1109,2.1109,2.1109,2.1109,2.1109,2.2733,2.5984,2.5998,2.7692,3.085,3.0898,3.0879,2.6512,2.6368,2.6038,2.5798,2.5104,2.4312,2.3581,2.2752,2.1991,2.1542,2.1256,2.1176,2.1408,2.1355,2.147,2.2164,2.2432,2.3006,2.4302,2.4983,2.5904,2.7282,2.847,2.9325,2.9606,2.9806,2.9833,2.9633,2.9352,2.9015,2.8764,2.8457,2.8286,2.8192,2.8179,2.8179,2.8179,2.8179,2.8031,2.7696,2.7443,2.7108,2.6774,2.652,2.6265,2.6011,2.6198,2.585,2.509,2.5291,2.5077,2.4586,2.4422,2.4222,2.4035,2.3884,2.3527,2.3207,2.3455,2.3388,2.322,2.3455,2.3522,2.3522,2.3522,2.3228,2.2893,2.2893,2.2893,2.2893,2.2893,2.2893,2.2893,2.2893,2.2893,2.2893,2.2893,2.2893,2.2893,2.2893,2.2813,2.2659,2.2458,2.2338,2.2218,2.2017,2.1943,2.1877,2.1877,2.1764,2.171,2.171,2.171,2.155,2.1149,2.1109,2.1109,2.1109,2.1109,2.1109,2.1109,2.1109,2.1632,2.2779,2.3885,2.5497,2.7632,2.8801,2.9873,3.0898,3.0898,3.0898,2.715,2.656,2.5802,2.5607,2.4571,2.3474,2.3014,2.2358,2.177,2.1475,2.1243,2.1162,2.1381,2.1323,2.1496,2.2151,2.2352,2.2873,2.4182,2.4676,2.5451,2.6921,2.847,2.9419,2.9419,2.9619,2.9673,2.9499,2.9112,2.8804,2.8617,2.8353,2.8179,2.8179,2.8179,2.8179,2.8179,2.8072,2.7871,2.7535,2.7241,2.6947,2.6653,2.6466,2.6293,2.6158,2.6238,2.5852,0.0,2.5317,2.5064,2.4586,2.4436,2.4302,2.4182,2.3995,2.3741,2.3514,2.375,2.3647,2.3527,2.375,2.3803,2.3803,2.3803,2.3469,2.3033,2.3033,2.3033,2.3033,2.3033,2.3033,2.3033,2.3033,2.2987,2.2893,2.2893,2.2893,2.2893,2.2893,2.2893,2.284,2.2619,2.2579,2.2525,2.2372,2.2218,2.2151,2.2151,2.2058,2.1991,2.1991,2.1991,2.1823,2.1309,2.1269,2.1229,2.1122,2.1109,2.1109,2.1109,2.1109,2.1884,2.3574,2.4719,2.6413,2.8673,3.0308,3.1055,3.0898,3.0898,3.0898,0.0,2.7516,2.6841,2.6704,2.4911,2.3113,2.284,2.2158,0.0,2.1176,2.1109,2.1122,2.1136,2.1381,2.1662,2.1964,2.2245,2.2892,2.4332,2.4679,2.5306,2.6774,2.7989,2.8684,2.8644,2.9152,2.9459,2.9419,2.8911,2.8591,2.8577,2.8339,2.8179,2.8179,2.8179,2.8179,2.8179,2.7884,2.7549,2.7309,2.6961,2.6667,2.6386,2.6386,2.6386,2.6373,2.6145,2.585,2.5491,2.5224,2.493,2.4599,2.4599,2.4439,2.4235,2.4235,2.4048,2.3843,2.3857,2.3857,2.3843,2.3857,2.387,2.387,2.387,2.3607,2.3332,2.3332,2.3332,2.3319,2.3292,2.3292,2.3292,2.3265,2.3073,2.2893,2.2893,2.2893,2.2893,2.2893,2.2893,2.2893,2.2893,2.2893,2.2893,2.2893,2.2619,2.2458,2.2458,2.2218,2.2044,2.2044,2.2044,2.1957,2.1676,2.1622,2.1489,2.1162,2.1162,2.1176,2.1176,2.1244,2.2101,2.382,2.4467,2.6267,2.9301,3.0806,3.1367,3.0976,3.0957,3.0937,2.7866,0.0,2.4374,2.2883,2.2246,2.193,0.0,2.1569,2.1502,2.1176,2.1109,2.1176,2.1435,2.1355,2.1456,2.2191,2.2378,2.2779,2.3821,2.5518,2.7028,2.807,2.9032,2.9432,2.8935,2.9272,2.9299,2.8845,2.8684,2.8497,2.8312,2.8219,2.8179,2.8179,2.8179,2.8179,2.8179,2.7884,2.7549,2.7309,2.6961,2.6667,2.6386,2.6386,2.6386,2.6386,2.6319,2.5985,2.5504,2.5438,2.5104,2.4599,2.4599,2.4559,2.4492,2.4492,2.4356,2.4142,2.4356,2.4289,2.4142,2.4369,2.4399,2.4399,2.4399,2.4075,2.3661,2.3661,2.3661,2.3621,2.338,2.3292,2.326,2.3033,2.2947,2.2893,2.2893,2.2893,2.2893,2.2893,2.2893,2.2893,2.2893,2.2893,2.2893,2.2893,2.284,2.2786,2.2786,2.2733,2.2693,2.2693,2.2693,2.2572,2.2245,2.2004,2.1796,2.1502,2.1689,2.1777,2.1777,2.2758,2.4242,2.6229,2.8924,3.0708,3.1477,3.186,3.2003,3.1885,3.1523,3.1367,2.5359,2.473,2.4193,2.2436,2.1677,2.1309,2.1149,2.1229,2.1309,2.1149,2.1109,2.1162,2.1355,2.1368,2.151,2.2124,2.2445,2.3073,2.4382,2.6158,2.7643,2.8497,2.9032,2.9299,2.9245,2.9152,2.8951,2.8631,2.847,2.8366,2.8192,2.8179,2.8179,2.8179,2.8179,2.8179,2.8179,2.7884,2.7549,2.7309,2.6961,2.6667,2.6386,2.6386,2.6386,2.6373,2.6106,2.5798,2.5491,2.5186,2.4893,2.4599,2.4599,2.4599,2.4599,2.4599,2.4492,2.4386,2.4546,2.4492,2.4422,2.4546,2.4599,2.4599,2.4599,2.4422,2.4142,2.4008,2.3968,2.3928,2.3768,2.3692,2.3688,2.3514,2.3415,2.3281,2.3113,2.3073,2.3073,2.3073,2.3073,2.3113,2.3295,2.3308,2.3308,2.3308,2.3201,2.3073,2.3073,2.2987,2.2893,2.2893,2.2893,2.2773,2.2445,2.2405,2.2238,2.181,2.193,2.1991,2.1991,2.3447,2.5627,2.8579,3.117,3.2492,3.2492,3.2492,3.2394,3.2198,3.1934,3.1816,2.2516,2.343,2.4558,2.3036,2.1855,2.1096,2.1056,2.1082,2.1109,2.1109,2.1109,2.1136,2.1229,2.1475,2.177,2.2104,2.2719,2.3741,2.5464,2.6653,2.7629,2.8444,2.8617,2.8831,2.9245,2.8871,2.8591,2.8537,2.8339,2.8179,2.8179,2.8179,2.8179,2.8179,2.8179,2.8179,2.8179,2.7844,2.7509,2.7309,2.6921,2.6627,2.6386,2.6386,2.6386,2.636,2.5865,2.5598,2.5478,2.4933,2.4679,2.4599,2.4599,2.4599,2.4599,2.4599,2.4599,2.4599,2.4599,2.4599,2.4599,2.4599,2.4599,2.4599,2.4599,2.4599,2.4546,2.4342,2.4262,2.4262,2.4209,2.4209,2.4195,2.4155,2.3991,2.3736,2.3447,2.3394,2.3394,2.3394,2.3394,2.3474,2.3763,2.3803,2.3803,2.3803,2.3554,2.3394,2.3394,2.3166,2.3041,2.3041,2.3,2.2867,2.2545,2.3011,2.3086,2.2568,2.2277,2.2362,2.2821,2.4585,2.7194,3.0699,3.2178,3.2891,3.2891,3.2891,3.2715,3.2394,3.2316,3.2296,2.2304,2.2617,2.2854,2.1078,2.0863,2.1042,2.0802,2.0935,2.1109,2.1109,2.1109,2.1269,2.1764,2.1884,2.2131,2.2679,2.3647,2.4853,2.6413,2.7201,2.7776,2.8205,2.8657,2.8804,2.8433,2.8511,2.8497,2.8272,2.8219,2.8179,2.8179,2.8179,2.8179,2.8179,2.8179,2.8179,2.8179,2.7643,2.7349,2.7296,2.672,2.6426,2.6386,2.6386,2.6386,2.6386,2.6293,2.5972,2.5504,2.5411,2.5053,2.4599,2.4599,2.4599,2.4599,2.4599,2.4599,2.4599,2.4599,2.4599,2.4599,2.4599,2.4599,2.4599,2.4599,2.4599,2.4586,2.4546,2.4532,2.4479,2.4262,2.4209,2.4142,2.3937,2.3843,2.379,2.375,2.3701,2.3701,2.3701,2.3701,2.375,2.3803,2.3803,2.3803,2.3803,2.3763,2.3701,2.3701,2.3696,2.3669,2.3669,2.3407,2.3233,2.3158,2.4357,2.5069,2.4981,2.3581,2.3927,2.655,2.8692,3.0656,3.2401,3.3019,3.332,3.332,3.332,3.3301,3.3223,3.2871,3.2695,2.0643,2.1003,2.1241,2.0419,2.0802,2.1301,2.0975,2.1015,2.1149,2.1309,2.1381,2.1523,2.2111,2.2619,2.3335,2.4392,2.4997,2.5692,2.664,2.7054,2.7455,2.8112,2.8243,2.8337,2.839,2.8419,2.8339,2.8192,2.8179,2.8179,2.8179,2.8179,2.8179,2.8179,2.8179,2.8179,2.8179,2.7603,2.7309,2.7309,2.6827,2.6547,2.6386,2.6386,2.6386,2.6373,2.6052,2.5758,2.5491,2.5133,2.4839,2.4599,2.4599,2.4599,2.4599,2.4599,2.4599,2.4599,2.4599,2.4599,2.4599,2.4599,2.4599,2.4599,2.4599,2.4599,2.4599,2.4599,2.4599,2.4572,2.4439,2.4436,2.4409,2.4262,2.4235,2.4195,2.4035,2.4008,2.4008,2.4008,2.4008,2.4062,2.4209,2.4235,2.4235,2.4235,2.4102,2.4008,2.4008,2.391,2.3803,2.3803,2.3647,2.3977,2.4987,2.5697,2.6428,2.7223,2.6516,2.7144,2.9493,3.0583,3.1741,3.3113,3.332,3.3386,3.3386,3.3386,3.3386,3.3386,3.3223,3.3125,1.9401,1.984,2.0224,2.029,2.0895,2.1462,2.1336,2.1309,2.1443,2.1917,2.1943,2.2077,2.2632,2.3474,2.4553,2.5877,2.6212,2.6506,2.7054,2.7134,2.7388,2.8098,2.7978,2.7989,2.8457,2.8326,2.8179,2.8179,2.8179,2.8179,2.8179,2.8179,2.8179,2.8179,2.8179,2.8152,2.8085,2.7563,2.7309,2.7309,2.6894,2.66,2.6386,2.6386,2.6386,2.636,2.5919,2.5638,2.5478,2.4986,2.4719,2.4599,2.4599,2.4599,2.4599,2.4599,2.4599,2.4599,2.4599,2.4599,2.4599,2.4599,2.4599,2.4599,2.4599,2.4653,2.4706,2.4706,2.4746,2.4773,2.4639,2.4599,2.4599,2.4599,2.4599,2.4532,2.4356,2.4302,2.4302,2.4302,2.4302,2.4382,2.4559,2.4599,2.4599,2.4599,2.4412,2.4448,2.4906,2.4773,2.485,2.5285,2.5264,2.5941,2.7739,2.7896,2.8607,3.0254,2.9849,3.0183,3.1496,3.1884,3.2552,3.3699,3.3484,3.3484,3.3679,3.3613,3.3633,3.3679,3.3613,3.3574,1.9613,2.0,2.0264,2.0575,2.0895,2.1283,2.1804,2.1924,2.2164,2.302,2.2966,2.2987,2.3603,2.4432,2.5329,2.6213,2.6854,2.7416,2.8005,2.8085,2.8112,2.8179,2.8165,2.8165,2.8219,2.8205,2.8179,2.8179,2.8179,2.8179,2.8179,2.8179,2.8179,2.8179,2.8179,2.8045,2.7736,2.7456,2.7309,2.7296,2.6694,2.6413,2.6386,2.6386,2.6386,2.6386,2.6346,2.6012,2.5504,2.5464,2.5093,2.4599,2.4599,2.4599,2.4599,2.4599,2.4599,2.4599,2.4599,2.4599,2.4599,2.4599,2.4599,2.4599,2.4599,2.4823,2.505,2.505,2.5237,2.5317,2.4746,2.4599,2.4599,2.4599,2.4599,2.4586,2.4572,2.4572,2.4572,2.4572,2.4572,2.4572,2.4599,2.4599,2.4599,2.4599,2.4586,2.5208,2.7041,2.7229,2.7884,2.9641,2.9614,3.0066,3.1579,3.1711,3.2612,3.4787,3.3018,3.191,3.2044,3.3231,3.4141,3.4609,3.3796,3.3809,3.4609,3.4251,3.4219,3.4609,3.4199,3.4055,1.9426,1.988,2.0277,2.0632,2.0895,2.1309,2.2084,2.2392,2.2773,2.346,2.3941,2.4459,2.5061,2.5692,2.6333,2.6894,2.7469,2.7924,2.8152,2.8179,2.8179,2.8179,2.8179,2.8179,2.8179,2.8179,2.8179,2.8179,2.8179,2.8179,2.8179,2.8179,2.8179,2.8179,2.8179,2.8045,2.7696,2.7415,2.7215,2.6987,2.6587,2.6386,2.6386,2.6386,2.6386,2.6373,2.5999,2.5718,2.5478,2.5117,2.4943,2.4917,2.4917,2.4917,2.489,2.4666,2.4599,2.4599,2.4599,2.4599,2.4626,2.485,2.4917,2.4943,2.513,2.5264,2.5344,2.5344,2.5424,2.5464,2.5237,2.505,2.4917,2.4917,2.4733,2.4599,2.4599,2.4599,2.4599,2.4599,2.4599,2.4599,2.4599,2.4599,2.4991,2.621,2.6393,2.7106,2.9008,2.8213,2.7834,2.8707,2.9789,3.1087,3.2652,3.3848,3.4858,3.5714,3.4749,3.4132,3.4132,3.463,3.4824,3.4707,3.4121,3.4121,3.4707,3.431,3.4329,3.4687,3.4531,3.4349,1.9348,1.9653,2.0054,2.0441,2.0762,2.1296,2.2565,2.3041,2.3455,2.4432,2.5034,2.5516,2.5917,2.636,2.6787,2.7081,2.7737,2.8179,2.8179,2.8179,2.8179,2.8179,2.8179,2.8179,2.8179,2.8179,2.8179,2.8179,2.8179,2.8179,2.8179,2.8179,2.8138,2.8045,2.8045,2.7857,2.7428,2.7228,2.6974,2.668,2.648,2.6386,2.6386,2.6386,2.6333,2.6265,2.5825,2.5545,2.5344,2.4943,2.4836,2.4943,2.4943,2.4943,2.4917,2.4679,2.4599,2.4613,2.4706,2.4783,2.4823,2.5117,2.5224,2.5251,2.5451,2.5518,2.5531,2.5625,2.5651,2.5651,2.5651,2.5371,2.5115,2.5115,2.485,2.4599,2.4599,2.4599,2.4599,2.4599,2.4679,2.4783,2.4783,2.4813,2.5351,2.6657,2.6792,2.7466,2.9432,2.85,2.8213,2.9728,3.1688,3.3287,3.4392,3.5662,3.6367,3.623,3.5957,3.5742,3.5605,3.5469,3.5312,3.5117,3.4551,3.4551,3.5117,3.4687,3.4707,3.5117,3.498,3.4766,1.9401,1.9401,1.9535,2.0064,2.0468,2.1261,2.3335,2.3803,2.4312,2.6039,2.6198,2.6011,2.6011,2.6238,2.6493,2.6774,2.7603,2.8179,2.8179,2.8179,2.8179,2.8179,2.8179,2.8179,2.8179,2.8179,2.8179,2.8179,2.8179,2.8179,2.8179,2.8179,2.8045,2.7709,2.7696,2.7415,2.6827,2.6787,2.668,2.6386,2.6386,2.6386,2.6386,2.6386,2.6265,2.5998,2.5984,2.565,2.5115,2.5115,2.4903,2.4599,2.4599,2.4599,2.4599,2.4599,2.4599,2.4653,2.4983,2.5077,2.513,2.5424,2.5518,2.5504,2.5518,2.5518,2.5585,2.5904,2.5998,2.5998,2.5998,2.5556,2.5115,2.5115,2.485,2.4599,2.4599,2.4599,2.4599,2.4599,2.4877,2.5115,2.5077,2.5317,2.5518,2.5518,2.5302,2.5923,2.811,2.8119,2.9524,3.3731,3.6043,3.7269,3.7305,3.7305,3.7129,3.6734,3.6714,3.6484,3.6001,3.5625,3.5586,3.5982,3.5156,3.5137,3.5982,3.5605,3.5605,3.5982,3.5586,3.5391,1.9455,1.9548,1.9813,2.0401,2.1082,2.2064,2.3701,2.4075,2.4636,2.664,2.6774,2.6627,2.6881,2.7108,2.7268,2.7148,2.7737,2.8179,2.8179,2.8179,2.8179,2.8179,2.8179,2.8179,2.8179,2.8179,2.8179,2.8179,2.8179,2.8179,2.8179,2.7991,2.7789,2.7696,2.7495,2.7215,2.6787,2.6787,2.668,2.6386,2.6225,2.6225,2.6386,2.6212,2.6078,2.5971,2.5556,2.5275,2.5115,2.5115,2.5024,2.4943,2.4943,2.4943,2.4943,2.4943,2.4943,2.4983,2.5277,2.5251,2.5157,2.5703,2.5545,2.5291,2.5743,2.5864,2.5798,2.5678,2.5837,2.5944,2.5692,2.5358,2.5115,2.5115,2.485,2.4599,2.4599,2.4599,2.4666,2.4903,2.5024,2.5144,2.5344,2.5451,2.5963,2.7339,2.7479,2.7676,2.8327,2.8484,2.946,3.1949,3.2956,3.4467,3.7058,3.7305,3.7246,3.7129,3.6871,3.6484,3.6001,3.5898,3.5898,3.5982,3.5469,3.5469,3.5982,3.5605,3.5605,3.6016,3.5898,3.5684,1.9693,1.976,2.0,2.0846,2.159,2.2605,2.4329,2.509,2.5838,2.7349,2.7322,2.7081,2.7388,2.7482,2.7509,2.7483,2.7871,2.8179,2.8179,2.8179,2.8179,2.8179,2.8179,2.8179,2.8179,2.8179,2.8179,2.8179,2.8179,2.8179,2.8179,2.7856,2.7642,2.7522,2.7241,2.6947,2.6653,2.6533,2.6386,2.6252,2.5919,2.5879,2.6039,2.5904,2.5757,2.5623,2.5104,2.4903,2.4903,2.4903,2.4903,2.4903,2.4903,2.497,2.5115,2.5115,2.5157,2.5277,2.5451,2.5398,2.5317,2.5665,2.5545,2.5317,2.5678,2.5743,2.5636,2.5531,2.5638,2.5718,2.5411,2.5291,2.5224,2.5141,2.485,2.4599,2.4599,2.4599,2.4653,2.4863,2.509,2.5304,2.5478,2.5705,2.6278,2.7444,2.7597,2.7592,2.7464,2.8397,2.9457,3.0514,3.2214,3.4162,3.6391,3.7344,3.7734,3.7559,3.7305,3.6973,3.6543,3.6157,3.5982,3.5982,3.5762,3.5762,3.5982,3.5762,3.5781,3.5982,3.5982,3.5879,2.0064,2.005,2.0201,2.1408,2.2251,2.3247,2.5184,2.648,2.7456,2.7965,2.7684,2.7429,2.7655,2.7482,2.7429,2.7655,2.7991,2.8179,2.8152,2.8138,2.8152,2.8179,2.8165,2.8152,2.8179,2.8165,2.8138,2.8138,2.8125,2.8098,2.8098,2.7776,2.7495,2.7269,2.6934,2.664,2.636,2.6131,2.5984,2.5957,2.5611,2.5478,2.5478,2.5478,2.5317,2.5024,2.4719,2.4599,2.4599,2.4599,2.4599,2.4599,2.4599,2.4823,2.5077,2.5141,2.5304,2.5558,2.5558,2.5531,2.5518,2.5518,2.5478,2.5438,2.5464,2.5304,2.517,2.5411,2.5491,2.5451,2.5157,2.5251,2.5371,2.5104,2.4836,2.4599,2.4599,2.4626,2.4639,2.4639,2.5093,2.5518,2.5545,2.5999,2.636,2.6386,2.6386,2.6293,2.6065,2.7866,2.9216,2.9371,3.2889,3.5311,3.546,3.7419,3.8398,3.7913,3.7894,3.7734,3.7324,3.6543,3.6133,3.6133,3.6094,3.604,3.604,3.6001,3.5982,3.5982,3.5982,3.5982,2.017,2.049,2.1109,2.2318,2.3937,2.5438,2.6333,2.6921,2.7282,2.7121,2.7375,2.7629,2.7682,2.7642,2.7629,2.7682,2.7991,2.8098,2.7829,2.7789,2.7924,2.8152,2.7978,2.7924,2.8165,2.7978,2.7789,2.7789,2.7617,2.7496,2.7496,2.7175,2.6987,2.6921,2.664,2.6346,2.6091,2.6024,2.5877,2.5598,2.5317,2.517,2.517,2.517,2.501,2.4693,2.4626,2.4599,2.4599,2.4599,2.4599,2.4599,2.4599,2.4823,2.5141,2.5331,2.5611,2.5904,2.5904,2.5705,2.5518,2.5518,2.5159,2.4826,2.5104,2.5291,2.5384,2.5224,2.5331,2.5451,2.5157,2.4957,2.4773,2.4706,2.4653,2.4599,2.4599,2.4823,2.4983,2.4983,2.5264,2.5585,2.5864,2.6011,2.6172,2.636,2.6386,2.6373,2.6306,2.6727,2.7659,2.9216,3.165,3.3775,3.5348,3.7419,3.8398,3.7913,3.7894,3.7734,3.7324,3.7129,3.7031,3.7031,3.6699,3.6558,3.6558,3.6191,3.5982,3.5982,3.5982,3.5982,2.0504,2.0975,2.171,2.3313,2.4887,2.6145,2.6694,2.6947,2.7014,2.6854,2.7175,2.7495,2.7495,2.7495,2.7495,2.7495,2.767,2.771,2.7509,2.7495,2.759,2.775,2.763,2.759,2.775,2.7617,2.7495,2.7495,2.7389,2.7309,2.7309,2.6987,2.6787,2.6787,2.6413,2.6145,2.5998,2.5717,2.5503,2.5304,2.501,2.4863,2.4863,2.4863,2.4783,2.4599,2.4599,2.4599,2.4599,2.4599,2.4599,2.4599,2.4599,2.4866,2.5291,2.5304,2.5585,2.5957,2.5677,2.5438,2.5277,2.5106,2.4853,2.4626,2.4823,2.497,2.5026,2.4903,2.5077,2.5237,2.4943,2.4863,2.481,2.4639,2.4599,2.4599,2.4599,2.4756,2.4863,2.4863,2.5224,2.5558,2.5718,2.6011,2.6252,2.6373,2.6386,2.6386,2.6386,2.6386,2.6807,2.7841,2.9782,3.1421,3.2472,3.5366,3.7012,3.6768,3.766,3.8144,3.791,3.791,3.7617,3.7012,3.7007,3.6777,3.6348,3.6348,3.623,3.5982,3.5982,3.5982,2.0748,2.143,2.2425,2.4212,2.5411,2.6265,2.6653,2.6787,2.6814,2.676,2.6947,2.7162,2.7162,2.7162,2.7162,2.7162,2.7242,2.7282,2.7242,2.7229,2.7242,2.7296,2.7269,2.7255,2.7309,2.7255,2.7229,2.7229,2.7188,2.7135,2.7081,2.6854,2.672,2.668,2.6292,2.6024,2.5917,2.5436,2.5104,2.4997,2.4719,2.4599,2.4599,2.4599,2.4599,2.4599,2.4599,2.4599,2.4599,2.4599,2.4599,2.4599,2.4599,2.4933,2.5411,2.517,2.5462,2.5837,2.5302,2.5115,2.5037,2.4693,2.4599,2.4599,2.4599,2.4639,2.4679,2.4679,2.489,2.5024,2.4783,2.4863,2.4943,2.4653,2.4639,2.4666,2.4613,2.4679,2.4733,2.4679,2.5184,2.5585,2.5585,2.6039,2.6386,2.6386,2.6386,2.6386,2.6386,2.6386,2.6386,2.6386,2.8179,2.941,2.941,3.2814,3.5107,3.537,3.7068,3.8188,3.8457,3.8571,3.8083,3.6949,3.7226,3.7051,3.6313,3.6641,3.6601,3.6196,3.6196,3.6196,2.0224,2.1884,2.3763,2.477,2.5865,2.6653,2.6493,2.664,2.6747,2.6493,2.648,2.6507,2.6507,2.6507,2.6507,2.6507,2.6974,2.7215,2.6921,2.6881,2.6974,2.7282,2.7041,2.6987,2.7282,2.7028,2.6881,2.6881,2.664,2.6439,2.6185,2.6333,2.6333,2.6118,2.6239,2.6092,2.5571,2.5491,2.5197,2.4653,2.4613,2.4599,2.4599,2.4599,2.4599,2.4599,2.4599,2.4599,2.4599,2.4599,2.4599,2.4599,2.4599,2.4836,2.513,2.509,2.5291,2.5531,2.5197,2.5115,2.5037,2.4693,2.4599,2.4599,2.4599,2.4823,2.5024,2.5024,2.5088,2.5077,2.5037,2.4863,2.4653,2.4613,2.4836,2.4957,2.4653,2.4999,2.5317,2.5077,2.5529,2.5931,2.5931,2.6172,2.6386,2.6386,2.6386,2.6386,2.6386,2.6386,2.6386,2.6386,2.8179,2.941,2.941,3.1536,3.3488,3.4881,3.5575,3.6533,3.7955,3.8379,3.832,3.7773,3.7777,3.7757,3.764,3.7363,3.7187,3.7129,3.7129,3.7129,2.1149,2.315,2.4974,2.5272,2.5705,2.6146,2.6346,2.6493,2.6547,2.6413,2.6132,2.5999,2.6333,2.6292,2.6185,2.6185,2.6399,2.6466,2.6132,2.6226,2.6319,2.6293,2.6319,2.6319,2.6293,2.6159,2.6159,2.6319,2.6265,2.6131,2.5998,2.6265,2.6172,2.5718,2.5825,2.5692,2.5277,2.5104,2.4853,2.4599,2.4599,2.4599,2.4599,2.4599,2.4599,2.4599,2.4599,2.4599,2.4599,2.4599,2.4599,2.4599,2.4599,2.4823,2.5064,2.489,2.5024,2.5224,2.493,2.4836,2.481,2.4639,2.4599,2.4599,2.4599,2.4693,2.4836,2.4836,2.4836,2.4863,2.5037,2.4983,2.493,2.5053,2.5224,2.5291,2.5157,2.5293,2.5531,2.561,2.5824,2.6051,2.6212,2.6306,2.6386,2.6386,2.6386,2.6386,2.6386,2.6386,2.6386,2.6386,2.7187,2.7723,2.7723,2.9604,3.1051,3.1766,3.307,3.4643,3.6458,3.6736,3.7287,3.8245,3.8281,3.8047,3.7578,3.7617,3.7519,3.7305,3.7305,3.7305,2.2712,2.4481,2.5872,2.5731,2.5797,2.5971,2.6236,2.6226,2.6213,2.636,2.5865,2.5585,2.6172,2.6024,2.5797,2.5864,2.5877,2.581,2.5545,2.5705,2.5758,2.5545,2.5705,2.5758,2.5531,2.5518,2.5598,2.5864,2.5877,2.585,2.577,2.6051,2.5932,2.5424,2.5478,2.5371,2.5077,2.4783,2.4599,2.4599,2.4599,2.4599,2.4599,2.4599,2.4599,2.4599,2.4599,2.4599,2.4599,2.4599,2.4599,2.4599,2.4599,2.4733,2.4943,2.4679,2.4783,2.493,2.4679,2.4599,2.4599,2.4599,2.4599,2.4599,2.4599,2.4599,2.4599,2.4599,2.4653,2.4796,2.5024,2.513,2.5251,2.5464,2.5571,2.5625,2.5625,2.5625,2.5718,2.6051,2.6105,2.6172,2.636,2.6386,2.6386,2.6386,2.6386,2.6386,2.6386,2.6386,2.6386,2.6386,2.6386,2.6386,2.6386,2.7762,2.8866,2.9371,3.0862,3.2603,3.4639,3.5236,3.6238,3.7768,3.8336,3.8298,3.7617,3.793,3.793,3.7617,3.7617,3.7617,2.4887,2.5639,2.6184,2.619,2.6572,2.685,2.6158,2.5758,2.5718,2.6279,2.5705,2.5315,2.5917,2.5543,2.5211,2.5491,2.5531,2.5531,2.5518,2.5531,2.5531,2.5518,2.5531,2.5531,2.5518,2.5518,2.5518,2.5531,2.5531,2.5411,2.5144,2.5398,2.5424,2.5117,2.5371,2.5371,2.5077,2.4783,2.4599,2.4599,2.4599,2.4599,2.4599,2.4599,2.4599,2.4599,2.4599,2.4599,2.4599,2.4599,2.4599,2.4599,2.4599,2.4613,2.4626,2.4613,2.4613,2.4626,2.4599,2.4599,2.4599,2.4599,2.4599,2.4599,2.4599,2.4599,2.4599,2.4599,2.4836,2.5064,2.5115,2.5291,2.5491,2.5504,2.5732,2.5971,2.5971,2.5971,2.6065,2.6306,2.6373,2.6373,2.6386,2.6386,2.6386,2.6386,2.6386,2.6386,2.6386,2.6386,2.6386,2.6386,2.6386,2.6386,2.6386,2.6505,2.7384,2.9293,2.9511,3.0477,3.2581,3.4489,3.5534,3.5664,3.7602,3.8591,3.8552,3.8571,3.8571,3.8552,3.8552,3.8552,2.5201,2.6315,2.7429,2.7089,2.677,2.6499,2.6414,2.5947,2.5518,2.5545,2.5342,2.5235,2.5598,2.5344,2.5117,2.5224,2.5237,2.517,2.4933,2.5117,2.517,2.4933,2.5117,2.5157,2.4933,2.4906,2.5024,2.5224,2.5237,2.5184,2.5128,2.5358,2.5291,2.4773,2.5077,2.509,2.4796,2.4653,2.4599,2.4599,2.4599,2.4599,2.4599,2.4599,2.4599,2.4599,2.4599,2.4599,2.4599,2.4599,2.4599,2.4599,2.4599,2.4599,2.4599,2.4599,2.4599,2.4599,2.4599,2.4599,2.4599,2.4599,2.4599,2.4599,2.4599,2.4599,2.4639,2.4863,2.4863,2.493,2.5529,2.5571,2.5611,2.5985,2.6159,2.6279,2.6279,2.6279,2.6305,2.6373,2.6386,2.6386,2.6386,2.6386,2.6386,2.6386,2.6386,2.6386,2.6386,2.6386,2.6386,2.6386,2.6386,2.6386,2.6386,2.6386,2.6702,2.7423,2.7462,2.8374,3.0438,3.1191,3.2814,3.546,3.6238,3.7272,3.8611,3.8611,3.8611,3.8611,3.8611,3.8611,2.6257,2.7276,2.8394,2.8171,2.7571,2.7147,2.7476,2.6619,2.5787,2.5935,2.5432,2.5024,2.5317,2.513,2.497,2.5064,2.4997,2.4863,2.4626,2.481,2.4863,2.4626,2.481,2.485,2.4613,2.4599,2.4679,2.4917,2.493,2.493,2.493,2.5117,2.4999,2.4613,2.4823,2.4836,2.4599,2.4599,2.4599,2.4599,2.4599,2.4599,2.4599,2.4599,2.4599,2.4599,2.4599,2.4599,2.4599,2.4599,2.4599,2.4599,2.4599,2.4599,2.4599,2.4599,2.4599,2.4599,2.4599,2.4599,2.4599,2.4599,2.4599,2.4599,2.4599,2.4599,2.4639,2.4877,2.493,2.5064,2.5651,2.5812,2.5905,2.6293,2.6386,2.6386,2.6386,2.6386,2.6386,2.6386,2.6386,2.6386,2.6386,2.6386,2.6386,2.6386,2.6386,2.6386,2.6386,2.6386,2.6386,2.6386,2.6386,2.6386,2.6386,2.6386,2.6386,2.6386,2.6386,2.7004,2.8335,2.9022,3.0999,3.4414,3.5162,3.6534,3.8611,3.8611,3.8611,3.8611,3.8611,3.8611,0.0,0.0,0.0,2.9222,2.898,2.8821,2.9323,2.7757,2.6481,2.7437,2.6013,2.4727,2.5048,2.4836,2.4693,2.5024,2.4823,2.4599,2.4599,2.4599,2.4599,2.4599,2.4599,2.4599,2.4599,2.4599,2.4599,2.4599,2.4599,2.4599,2.4599,2.4599,2.4599,2.4599,2.4586,2.4586,2.4599,2.4586,2.4586,2.4586,2.4586,2.4586,2.4572,2.4572,2.4572,2.4572,2.4586,2.4586,2.4586,2.4599,2.4599,2.4599,2.4599,2.4599,2.4599,2.4599,2.4599,2.4599,2.4599,2.4599,2.4599,2.4599,2.4599,2.4599,2.4599,2.4599,2.4599,2.4613,2.5026,2.5504,2.5518,2.5959,2.6386,2.6386,2.6386,2.6386,2.6386,2.6386,2.6386,2.6386,2.6386,2.6386,2.6386,2.6386,2.6386,2.6386,2.6386,2.6386,2.6386,2.6386,2.6386,2.6386,2.6386,2.6386,2.6386,2.6386,2.6386,2.6386,2.6386,2.6386,2.6386,2.8335,3.0361,3.2467,3.4489,3.6534,3.8611,3.8611,3.8611,3.8611,3.8611,3.8611,2.7741,0.0,0.0,0.0,0.0,0.0,2.8503,2.7467,2.6401,2.6354,2.5755,2.5144,2.4807,2.4653,2.4626,2.4706,2.4653,2.4599,2.4599,2.4599,2.4599,2.4599,2.4599,2.4599,2.4599,2.4599,2.4599,2.4599,2.4599,2.4599,2.4599,2.4599,2.4599,2.4599,2.4399,2.4386,2.4599,2.4422,2.4329,2.4329,2.4329,2.4209,2.4008,2.4008,2.4008,2.4022,2.4235,2.4329,2.4342,2.4519,2.4599,2.4599,2.4599,2.4599,2.4599,2.4599,2.4599,2.4599,2.4599,2.4599,2.4599,2.4599,2.4599,2.4599,2.4599,2.4599,2.4639,2.489,2.5077,2.5304,2.577,2.6145,2.6386,2.6386,2.6386,2.6386,2.6386,2.6386,2.6386,2.6386,2.6386,2.6386,2.6386,2.6386,2.6386,2.6386,2.6386,2.6386,2.6386,2.6386,2.6386,2.6386,2.6386,2.6386,2.6386,2.6386,2.6386,2.6386,2.6386,2.6386,2.6386,2.8335,3.0361,3.2467,3.4489,3.6534,3.8611,3.8611,3.8611,3.8611,3.8611,3.8611,0.0,0.0,0.0,0.0,0.0,0.0,2.9368,2.7904,2.6407,2.6479,2.5491,2.4463,2.4139,2.4159,2.4315,2.4399,2.4412,2.4466,2.4586,2.4599,2.4559,2.4439,2.4412,2.4372,2.4289,2.4382,2.4412,2.4412,2.4532,2.4546,2.4426,2.4412,2.4359,2.4275,2.4115,2.4102,2.4275,2.4222,2.4142,2.4022,2.4142,2.4048,2.3803,2.3803,2.3803,2.3817,2.3991,2.4022,2.4048,2.4342,2.4492,2.4599,2.4599,2.4599,2.4599,2.4599,2.4599,2.4599,2.4599,2.4599,2.4599,2.4599,2.4599,2.4599,2.4599,2.4599,2.4639,2.485,2.5064,2.5371,2.5877,2.6212,2.6386,2.6386,2.6386,2.6386,2.6386,2.6386,2.6386,2.6386,2.6386,2.6426,2.6547,2.6466,2.6426,2.6547,2.6466,2.6386,2.6386,2.6386,2.6386,2.6386,2.6386,2.6386,2.6386,2.6386,2.6386,2.6386,2.6386,2.6386,2.6386,2.7541,2.9099,3.1169,3.3209,3.5682,3.8611,3.8611,3.8611,3.8611,3.8611,3.8611,0.0,0.0,0.0,0.0,2.9199,0.0,3.085,2.8817,2.6763,2.7416,2.5468,2.359,2.3485,2.3601,2.379,2.4008,2.4115,2.4262,2.4559,2.4599,2.4506,2.4289,2.4222,2.4102,2.3884,2.4022,2.4155,2.4155,2.4396,2.4422,2.4168,2.4155,2.4035,2.3817,2.3777,2.3777,2.3803,2.4022,2.4116,2.4034,2.4116,2.4089,2.398,2.3807,2.3736,2.371,2.399,2.3954,2.3777,2.4237,2.4498,2.4559,2.4586,2.4599,2.4599,2.4599,2.4599,2.4599,2.4599,2.4599,2.4599,2.4599,2.4599,2.4599,2.4599,2.4599,2.4613,2.4639,2.5053,2.5585,2.5917,2.6212,2.6386,2.6386,2.6386,2.6386,2.6386,2.6413,2.6426,2.64,2.6413,2.652,2.6774,2.664,2.656,2.6787,2.66,2.6426,2.6386,2.6386,2.6386,2.6386,2.6386,2.6386,2.6386,2.6386,2.6386,2.6386,2.6386,2.6386,2.6386,2.665,2.7608,2.9371,3.165,3.4619,3.8263,3.8501,3.8611,3.8611,3.8611,3.8611,0.0,0.0,0.0,0.0,2.9012,0.0,2.9434,2.9162,2.8731,2.8066,2.6676,2.5382,2.458,2.3672,2.3094,2.3148,2.3576,2.4035,2.4532,2.4599,2.4572,2.4519,2.4342,2.4182,2.4128,2.3955,2.3884,2.3884,2.395,2.3915,2.3897,2.3884,2.387,2.3803,2.3541,2.3527,2.3803,2.387,2.4467,2.5579,2.4431,2.4329,2.5115,2.3948,2.3273,2.3163,2.5078,2.4953,2.3539,2.5263,2.5306,2.4315,2.4506,2.4599,2.4599,2.4599,2.4599,2.4599,2.4599,2.4599,2.4599,2.4599,2.4599,2.4599,2.4599,2.4599,2.4653,2.493,2.5251,2.5585,2.5917,2.6212,2.6386,2.6386,2.6386,2.6386,2.6386,2.6573,2.6667,2.644,2.6573,2.676,2.6774,2.6974,2.7028,2.6854,2.6774,2.6653,2.6413,2.6386,2.6386,2.6386,2.6386,2.6386,2.6386,2.6386,2.6386,2.6386,2.6386,2.6386,2.6386,2.8199,2.9262,2.941,3.3041,3.5329,3.6109,3.7768,3.8611,3.8611,3.8611,3.8611,0.0,0.0,0.0,2.8613,0.0,0.0,0.0,2.8609,2.7967,2.7618,2.6547,2.5502,2.5,2.453,2.4156,2.3851,2.4034,2.4192,2.3973,2.4319,2.4546,2.4436,2.4168,2.3928,2.3781,2.3634,2.3607,2.379,2.3901,2.3861,2.3567,2.3554,2.3474,2.3362,2.3166,2.3166,2.3348,2.3474,2.4275,2.5737,2.5164,2.5565,2.6822,2.6303,2.5955,2.5839,2.6169,2.578,2.4924,2.4868,2.4599,2.4222,2.4369,2.4479,2.4599,2.4599,2.4599,2.4599,2.4599,2.4599,2.4599,2.4599,2.4599,2.4599,2.4599,2.4599,2.4626,2.4823,2.517,2.5545,2.5692,2.6066,2.6386,2.6386,2.6386,2.6426,2.6573,2.66,2.66,2.66,2.672,2.6787,2.6787,2.6947,2.6987,2.6841,2.6787,2.672,2.6426,2.6386,2.6386,2.6386,2.6386,2.6386,2.6386,2.652,2.6547,2.64,2.6533,2.6547,2.64,2.7675,2.8849,2.9809,3.1854,3.3941,3.6034,3.6886,3.7757,3.8611,3.8611,3.8611,0.0,0.0,0.0,0.0,0.0,2.8769,0.0,0.0,0.0,2.7294,2.6354,2.5455,2.5389,2.5403,2.5272,2.4779,2.484,2.4709,2.398,2.4353,2.4548,2.4084,2.3781,2.3527,2.3305,2.3185,2.3273,2.3616,2.3768,2.3674,2.326,2.3233,2.3126,2.2907,2.284,2.284,2.2893,2.3445,2.4485,2.602,2.6356,2.7271,2.8706,2.8743,2.8525,2.809,2.7152,2.6446,2.5877,2.4463,2.4034,2.4209,2.4209,2.4346,2.4599,2.4599,2.4599,2.4599,2.4599,2.4599,2.4599,2.4599,2.4599,2.4599,2.4599,2.4599,2.4599,2.4599,2.4986,2.5438,2.5504,2.5905,2.6319,2.6373,2.6386,2.6466,2.672,2.668,2.6627,2.6854,2.6947,2.6947,2.68,2.6867,2.6894,2.6827,2.6787,2.672,2.6426,2.6386,2.6413,2.6466,2.6466,2.6493,2.656,2.672,2.6747,2.6573,2.672,2.6747,2.656,2.6787,2.7836,2.976,3.0144,3.2198,3.6011,3.6093,3.6997,3.8691,3.865,3.8611,0.0,0.0,0.0,0.0,2.9453,0.0,2.8672,0.0,2.9028,2.8304,0.0,2.6771,2.6406,0.0,0.0,2.472,2.5438,2.5973,2.5881,2.551,2.4767,2.3569,2.3153,2.3094,2.3265,2.2812,2.2645,2.2974,2.2752,2.2712,2.2934,2.2947,2.2934,2.2893,2.2605,2.2592,2.2893,2.4461,2.6151,2.7916,2.8159,2.9076,3.0466,2.9192,2.7623,2.5962,2.7838,2.6778,2.38,2.538,2.5321,2.4209,2.4209,2.4346,2.4599,2.4599,2.4599,2.4599,2.4599,2.4599,2.4599,2.4599,2.4599,2.4599,2.4599,2.4599,2.4599,2.4599,2.4877,2.5184,2.5451,2.5758,2.6118,2.6333,2.6386,2.6466,2.672,2.7001,2.7215,2.7255,2.7428,2.7428,2.6867,2.7041,2.7121,2.6827,2.6787,2.672,2.6426,2.6386,2.6493,2.6747,2.6734,2.6881,2.7188,2.6961,2.6921,2.7188,2.6947,2.6921,2.7202,2.7242,2.7471,2.8001,2.9494,3.1483,3.3931,3.5688,3.7423,3.9121,3.8787,3.8611,0.0,0.0,0.0,0.0,0.0,0.0,2.8769,0.0,2.873,2.8359,0.0,0.0,0.0,0.0,0.0,0.0,2.6322,2.6342,2.564,2.5516,2.5214,2.4533,2.3392,2.2659,2.2792,2.2531,2.2472,2.2592,2.2645,2.2659,2.2605,2.2605,2.2605,2.2605,2.3498,2.4018,2.418,2.6114,2.7966,2.9702,2.9826,3.0739,3.2301,3.1939,3.0751,2.8926,2.9039,2.772,2.5434,2.5052,2.469,2.4436,2.4262,2.4346,2.4599,2.4599,2.4599,2.4599,2.4599,2.4599,2.4599,2.4599,2.4599,2.4599,2.4599,2.4756,2.489,2.489,2.5224,2.565,2.5784,2.6024,2.6279,2.6573,2.664,2.676,2.7228,2.7295,2.7362,2.7482,2.7523,2.7375,2.7121,2.7321,2.7362,2.6854,2.7108,2.7228,2.6974,2.6934,2.6988,2.7068,2.7081,2.7175,2.7296,2.7308,2.7308,2.7309,2.7188,2.7215,2.7509,2.7522,2.7697,2.7991,2.8731,3.0799,3.4246,3.4824,3.6782,3.9961,3.9531,3.9199,2.9735,0.0,0.0,0.0,0.0,0.0,0.0,0.0,0.0,0.0,2.8555,0.0,0.0,0.0,2.838,0.0,0.0,2.7308,2.6295,2.608,2.5874,2.5482,2.4375,2.3591,2.3506,2.3111,2.2855,2.2937,2.2687,2.2479,2.2311,2.2298,2.2298,2.2298,2.393,2.491,2.509,2.7426,2.9364,3.0803,3.1272,3.1931,3.2702,3.304,3.1958,2.9708,2.8834,2.7551,2.6011,2.4619,2.4262,2.4572,2.4409,2.4412,2.4599,2.4599,2.4599,2.4599,2.4599,2.4653,2.4756,2.4756,2.4773,2.4839,2.4839,2.5024,2.5197,2.5197,2.5543,2.5891,2.5971,2.6145,2.636,2.6734,2.6787,2.6987,2.7575,2.7535,2.7468,2.7762,2.7697,2.7496,2.7336,2.7483,2.7428,2.7001,2.7308,2.7509,2.7336,2.7309,2.7336,2.7416,2.7429,2.7456,2.7536,2.7629,2.7602,2.7443,2.751,2.7643,2.7816,2.7816,2.7965,2.8179,2.8179,3.0343,3.4692,3.4347,3.6421,4.0684,4.0019,3.9531,3.0059,3.0508,3.0673,2.9813,2.9579,2.9364,2.8496,0.0,2.8879,0.0,0.0,2.9559,2.9559,2.9559,0.0,0.0,0.0,0.0,0.0,2.7771,2.672,2.5907,2.6365,2.6611,2.6299,2.4857,2.4057,2.4304,2.2665,2.1743,2.1991,2.2004,2.2004,2.2004,2.3332,2.4396,2.509,2.813,3.0045,3.0803,3.2524,3.246,3.0868,3.0886,2.8984,2.573,2.6239,2.5517,2.3928,2.4382,2.4586,2.4599,2.4586,2.4586,2.4599,2.4599,2.4599,2.4599,2.4599,2.4823,2.5064,2.5064,2.5251,2.5478,2.5478,2.5491,2.5504,2.5504,2.5518,2.5598,2.5917,2.5998,2.6158,2.668,2.6787,2.6987,2.7575,2.7696,2.7776,2.8112,2.8165,2.7978,2.7403,2.7309,2.7309,2.7296,2.7309,2.7322,2.7309,2.7309,2.7416,2.7655,2.7682,2.7802,2.8138,2.7898,2.7696,2.7682,2.7991,2.8165,2.8165,2.8165,2.8179,2.8179,2.8179,3.0343,3.4692,3.4692,3.6904,4.1152,3.9824,3.9219,3.0156,3.0527,3.0742,3.0137,2.9813,2.9442,2.8848,2.8781,2.8898,0.0,0.0,0.0,0.0,0.0,0.0,0.0,0.0,0.0,0.0,2.8556,2.8173,2.7872,2.6656,2.598,2.6356,2.4564,2.3603,2.4091,2.2362,2.1422,2.1716,2.1729,2.1729,2.1729,2.3299,2.476,2.6088,2.8501,3.0543,3.2124,3.157,3.1111,3.0771,2.9605,2.7768,2.5498,2.5946,2.5246,2.383,2.4195,2.4426,2.4599,2.4599,2.4599,2.4599,2.4599,2.4599,2.4626,2.4863,2.5117,2.5371,2.5371,2.5438,2.5518,2.5518,2.5651,2.5837,2.5837,2.5945,2.6119,2.6252,2.6239,2.6386,2.6974,2.7108,2.7322,2.7911,2.7843,2.7722,2.7871,2.7737,2.7536,2.7336,2.7309,2.7242,2.7001,2.751,2.7817,2.7575,2.7764,2.7924,2.8031,2.8031,2.8072,2.8179,2.8098,2.8031,2.8031,2.8125,2.8179,2.8179,2.8179,2.8179,2.8179,2.8179,3.0343,3.4692,3.4692,3.6759,4.0723,4.0,3.9668,3.0195,3.0527,3.0781,3.0312,3.0028,2.9715,2.9258,2.9258,2.9375,2.9375,0.0,0.0,0.0,0.0,0.0,0.0,0.0,0.0,0.0,2.8691,2.875,2.8879,2.7801,2.7175,2.7514,2.5384,2.4068,2.4286,2.2228,2.1042,2.1261,2.1368,2.1422,2.1422,2.3082,2.4561,2.5736,2.7634,2.9661,3.1686,2.9996,2.9319,2.9558,2.7867,2.6165,2.4602,2.4899,2.4582,2.383,2.4088,2.4369,2.4599,2.4599,2.4599,2.4613,2.4719,2.4826,2.4933,2.517,2.5424,2.5678,2.5678,2.5745,2.5825,2.5825,2.5959,2.6172,2.6279,2.6319,2.6413,2.652,2.6466,2.6533,2.7162,2.7309,2.7469,2.8058,2.8031,2.7898,2.7898,2.7615,2.7429,2.7322,2.7309,2.7282,2.7148,2.7535,2.7884,2.7898,2.7978,2.8072,2.8179,2.8179,2.8179,2.8179,2.8179,2.8179,2.8179,2.8179,2.8179,2.8179,2.8179,2.8232,2.8353,2.9019,3.0761,3.3663,3.5123,3.7117,3.9564,3.995,4.0117]},{"header":{"parameterUnit":"m.s-1","parameterCategory":1,"la1":30.6,"la2":29.2853,"lo1":-89.7004,"lo2":-87.6739,"dy":0.0162,"dx":0.0183,"nx":112,"ny":82,"refTime":"2023-05-26T12:00:00:Z","depth":0,"parameterNumber":3,"parameterNumberName":"V-component_of_WINDS"},"data":[0.0,0.0,0.0,0.0,0.0,0.0,0.0,0.0,0.0,0.0,0.0,0.0,0.0,0.0,0.0,0.0,0.0,0.0,0.0,0.0,0.0,0.0,0.0,0.0,0.0,0.0,0.0,0.0,0.0,0.0,0.0,0.0,0.0,0.0,0.0,0.0,0.0,0.0,0.0,0.0,0.0,0.0,0.0,0.0,0.0,0.0,0.0,0.0,0.0,0.0,0.0,0.0,0.0,0.0,0.0,0.0,0.0,0.0,0.0,0.0,0.0,0.0,0.0,0.0,0.0,0.0,0.0,0.0,0.0,0.0,0.0,0.0,0.0,0.0,0.0,0.0,0.0,0.0,0.0,0.0,0.0,0.0,0.0,0.0,0.0,0.0,0.0,0.0,0.0,0.0,3.1775,3.1184,3.0658,3.0133,2.9638,2.9398,2.9099,2.8637,0.0,0.0,0.0,0.0,0.0,0.0,0.0,0.0,0.0,0.0,0.0,0.0,0.0,0.0,0.0,0.0,0.0,0.0,0.0,0.0,0.0,0.0,0.0,0.0,0.0,0.0,0.0,0.0,0.0,0.0,0.0,0.0,0.0,0.0,0.0,0.0,0.0,0.0,0.0,0.0,0.0,0.0,0.0,0.0,0.0,0.0,0.0,0.0,0.0,0.0,0.0,0.0,0.0,0.0,0.0,0.0,0.0,0.0,0.0,0.0,0.0,0.0,0.0,0.0,0.0,0.0,0.0,0.0,0.0,0.0,0.0,0.0,0.0,0.0,0.0,0.0,0.0,0.0,0.0,0.0,0.0,0.0,0.0,0.0,0.0,0.0,0.0,0.0,0.0,0.0,0.0,0.0,0.0,0.0,0.0,0.0,0.0,0.0,0.0,0.0,0.0,0.0,0.0,0.0,2.9816,2.9885,2.979,2.9698,2.9608,2.8573,2.8081,2.8577,0.0,0.0,0.0,0.0,0.0,0.0,0.0,0.0,0.0,0.0,0.0,0.0,0.0,0.0,0.0,0.0,0.0,0.0,0.0,0.0,0.0,0.0,0.0,0.0,0.0,0.0,0.0,0.0,0.0,0.0,0.0,0.0,0.0,0.0,0.0,0.0,0.0,0.0,0.0,0.0,0.0,0.0,0.0,0.0,0.0,0.0,0.0,0.0,0.0,0.0,0.0,0.0,0.0,0.0,0.0,0.0,0.0,0.0,0.0,0.0,0.0,0.0,0.0,0.0,0.0,0.0,0.0,0.0,0.0,0.0,0.0,0.0,0.0,0.0,0.0,0.0,0.0,0.0,0.0,0.0,0.0,0.0,0.0,0.0,0.0,0.0,0.0,0.0,0.0,0.0,0.0,0.0,0.0,0.0,0.0,0.0,0.0,0.0,0.0,0.0,0.0,0.0,0.0,3.0791,2.9986,3.0093,3.0087,2.9967,2.9621,2.871,2.8278,2.8577,2.8261,0.0,0.0,0.0,0.0,0.0,0.0,0.0,0.0,0.0,0.0,0.0,0.0,0.0,0.0,0.0,0.0,0.0,0.0,0.0,0.0,0.0,0.0,0.0,0.0,0.0,0.0,0.0,0.0,0.0,0.0,0.0,0.0,0.0,0.0,0.0,0.0,0.0,0.0,0.0,0.0,0.0,0.0,0.0,0.0,0.0,0.0,0.0,0.0,0.0,0.0,0.0,0.0,0.0,0.0,0.0,0.0,0.0,0.0,0.0,0.0,0.0,0.0,0.0,0.0,0.0,0.0,0.0,0.0,0.0,0.0,0.0,0.0,0.0,0.0,0.0,0.0,0.0,0.0,0.0,0.0,0.0,0.0,0.0,0.0,0.0,0.0,0.0,0.0,0.0,0.0,0.0,0.0,0.0,0.0,0.0,0.0,0.0,0.0,0.0,0.0,0.0,0.0,3.1275,3.0674,3.0518,3.0372,3.0057,2.9428,2.8607,2.8188,2.8338,2.7722,0.0,0.0,0.0,0.0,0.0,0.0,0.0,0.0,0.0,0.0,0.0,0.0,0.0,0.0,0.0,0.0,0.0,0.0,0.0,0.0,0.0,0.0,0.0,0.0,0.0,0.0,0.0,0.0,0.0,0.0,0.0,0.0,0.0,0.0,0.0,0.0,0.0,0.0,0.0,0.0,0.0,0.0,0.0,0.0,0.0,0.0,0.0,0.0,0.0,0.0,0.0,0.0,0.0,0.0,0.0,0.0,0.0,0.0,0.0,0.0,0.0,0.0,0.0,0.0,0.0,0.0,0.0,0.0,0.0,0.0,0.0,0.0,0.0,0.0,0.0,0.0,0.0,0.0,0.0,0.0,0.0,0.0,0.0,0.0,0.0,0.0,0.0,0.0,0.0,0.0,0.0,0.0,0.0,0.0,0.0,0.0,0.0,0.0,0.0,0.0,0.0,0.0,3.1083,3.1179,3.0582,2.9997,2.9398,2.8727,2.747,2.7003,2.7615,2.7033,0.0,0.0,0.0,0.0,0.0,0.0,0.0,0.0,0.0,0.0,0.0,0.0,0.0,0.0,0.0,0.0,0.0,0.0,0.0,0.0,0.0,0.0,0.0,0.0,0.0,0.0,0.0,0.0,0.0,0.0,0.0,0.0,0.0,0.0,0.0,0.0,0.0,0.0,0.0,0.0,0.0,0.0,0.0,0.0,0.0,0.0,0.0,0.0,0.0,0.0,0.0,0.0,0.0,0.0,0.0,0.0,0.0,0.0,0.0,0.0,0.0,0.0,0.0,0.0,0.0,0.0,0.0,0.0,0.0,0.0,0.0,0.0,0.0,0.0,0.0,0.0,0.0,0.0,0.0,0.0,0.0,0.0,0.0,0.0,0.0,0.0,0.0,0.0,0.0,0.0,0.0,0.0,0.0,0.0,0.0,0.0,0.0,0.0,0.0,0.0,0.0,0.0,3.0951,3.0642,3.0027,2.9728,2.9159,2.8081,2.7512,2.7345,2.7585,0.0,0.0,0.0,0.0,0.0,0.0,0.0,0.0,0.0,0.0,0.0,0.0,0.0,0.0,0.0,0.0,0.0,0.0,0.0,0.0,0.0,0.0,0.0,0.0,0.0,0.0,0.0,0.0,0.0,0.0,0.0,0.0,0.0,0.0,0.0,0.0,0.0,0.0,0.0,0.0,0.0,0.0,0.0,0.0,0.0,0.0,0.0,0.0,0.0,0.0,0.0,0.0,0.0,0.0,0.0,0.0,0.0,0.0,0.0,0.0,0.0,0.0,0.0,0.0,0.0,0.0,0.0,0.0,0.0,0.0,0.0,0.0,0.0,0.0,0.0,0.0,0.0,0.0,0.0,0.0,0.0,0.0,0.0,0.0,0.0,0.0,0.0,0.0,0.0,0.0,0.0,0.0,0.0,0.0,0.0,0.0,0.0,0.0,0.0,0.0,0.0,0.0,3.1387,3.1083,3.0508,2.9698,2.9608,2.9052,2.7705,2.7405,2.7375,2.7585,0.0,0.0,0.0,0.0,0.0,0.0,0.0,0.0,0.0,0.0,0.0,0.0,0.0,0.0,0.0,0.0,0.0,0.0,0.0,0.0,0.0,0.0,0.0,0.0,0.0,0.0,0.0,0.0,0.0,0.0,0.0,0.0,0.0,0.0,0.0,0.0,0.0,0.0,0.0,0.0,0.0,0.0,0.0,0.0,0.0,0.0,0.0,0.0,0.0,0.0,0.0,0.0,0.0,0.0,0.0,0.0,0.0,0.0,0.0,0.0,0.0,0.0,0.0,0.0,0.0,0.0,0.0,0.0,0.0,0.0,0.0,0.0,0.0,0.0,0.0,0.0,0.0,0.0,0.0,0.0,0.0,0.0,0.0,0.0,0.0,0.0,0.0,0.0,0.0,0.0,0.0,0.0,0.0,0.0,0.0,0.0,0.0,0.0,0.0,0.0,0.0,0.0,3.1591,3.1541,3.1017,2.9758,2.9608,2.9052,2.7735,2.6973,2.6884,0.0,0.0,0.0,0.0,0.0,0.0,0.0,0.0,0.0,0.0,0.0,0.0,0.0,0.0,0.0,0.0,0.0,0.0,0.0,0.0,0.0,0.0,0.0,0.0,0.0,0.0,0.0,0.0,0.0,0.0,0.0,0.0,0.0,0.0,0.0,0.0,0.0,0.0,0.0,0.0,0.0,0.0,0.0,0.0,0.0,0.0,0.0,0.0,0.0,0.0,0.0,0.0,0.0,0.0,0.0,0.0,0.0,0.0,0.0,0.0,0.0,0.0,0.0,0.0,0.0,0.0,0.0,0.0,0.0,0.0,0.0,0.0,0.0,0.0,0.0,0.0,0.0,0.0,0.0,0.0,0.0,0.0,0.0,0.0,0.0,0.0,0.0,0.0,0.0,0.0,0.0,0.0,0.0,0.0,0.0,0.0,0.0,0.0,0.0,0.0,0.0,0.0,0.0,3.2216,3.223,3.1704,3.0372,2.9847,2.9249,2.838,2.7273,2.6884,2.7555,0.0,0.0,0.0,0.0,0.0,0.0,0.0,0.0,0.0,0.0,0.0,0.0,0.0,0.0,0.0,0.0,0.0,0.0,0.0,0.0,0.0,0.0,0.0,0.0,0.0,0.0,0.0,0.0,0.0,0.0,0.0,0.0,0.0,0.0,0.0,0.0,0.0,0.0,0.0,0.0,0.0,0.0,0.0,0.0,0.0,0.0,0.0,0.0,0.0,0.0,0.0,0.0,0.0,0.0,0.0,0.0,0.0,0.0,0.0,0.0,0.0,0.0,0.0,0.0,0.0,0.0,0.0,0.0,0.0,0.0,0.0,0.0,0.0,0.0,0.0,0.0,0.0,0.0,0.0,0.0,0.0,0.0,0.0,0.0,0.0,0.0,0.0,0.0,0.0,0.0,0.0,0.0,0.0,0.0,0.0,0.0,0.0,0.0,0.0,0.0,0.0,0.0,3.2524,3.2266,3.1704,3.0598,2.9967,2.9338,2.8667,2.7632,2.7144,2.7497,0.0,0.0,0.0,0.0,0.0,0.0,0.0,0.0,0.0,0.0,0.0,0.0,0.0,0.0,0.0,0.0,0.0,0.0,0.0,0.0,0.0,0.0,0.0,0.0,0.0,0.0,0.0,0.0,0.0,0.0,0.0,0.0,0.0,0.0,0.0,0.0,0.0,0.0,0.0,0.0,0.0,0.0,0.0,0.0,0.0,0.0,0.0,0.0,0.0,0.0,0.0,0.0,0.0,0.0,0.0,0.0,0.0,0.0,0.0,0.0,0.0,0.0,0.0,0.0,0.0,0.0,0.0,0.0,0.0,0.0,0.0,0.0,0.0,0.0,0.0,0.0,0.0,0.0,0.0,0.0,0.0,0.0,0.0,0.0,0.0,0.0,0.0,0.0,0.0,0.0,0.0,0.0,0.0,0.0,0.0,0.0,0.0,0.0,0.0,0.0,0.0,0.0,3.2778,3.21,3.1361,3.0747,3.0073,2.9425,2.8818,2.8081,2.7661,2.7589,0.0,0.0,0.0,0.0,0.0,0.0,0.0,0.0,0.0,0.0,0.0,0.0,0.0,0.0,0.0,0.0,0.0,0.0,0.0,0.0,0.0,0.0,0.0,0.0,0.0,0.0,0.0,0.0,0.0,0.0,0.0,0.0,0.0,0.0,0.0,0.0,0.0,0.0,0.0,0.0,0.0,0.0,0.0,0.0,0.0,0.0,0.0,0.0,0.0,0.0,0.0,0.0,0.0,0.0,0.0,0.0,0.0,0.0,0.0,0.0,3.4895,3.3829,0.0,0.0,0.0,0.0,0.0,0.0,0.0,0.0,0.0,0.0,0.0,0.0,0.0,0.0,0.0,0.0,0.0,0.0,0.0,0.0,0.0,0.0,0.0,0.0,0.0,0.0,0.0,0.0,0.0,0.0,0.0,0.0,0.0,0.0,0.0,0.0,0.0,0.0,0.0,0.0,3.4096,3.3067,3.2243,3.2093,3.1001,3.0232,3.0106,2.9002,2.8509,2.8935,2.821,0.0,0.0,0.0,0.0,0.0,0.0,0.0,0.0,0.0,0.0,0.0,0.0,0.0,0.0,0.0,0.0,0.0,0.0,0.0,0.0,0.0,0.0,0.0,0.0,0.0,0.0,0.0,0.0,0.0,0.0,0.0,0.0,0.0,0.0,0.0,0.0,0.0,0.0,0.0,0.0,0.0,0.0,0.0,0.0,0.0,0.0,0.0,0.0,0.0,0.0,0.0,0.0,0.0,0.0,0.0,0.0,0.0,0.0,0.0,3.7469,3.6238,0.0,0.0,0.0,0.0,0.0,0.0,0.0,0.0,0.0,0.0,0.0,0.0,0.0,0.0,0.0,0.0,0.0,0.0,0.0,0.0,0.0,0.0,0.0,0.0,0.0,0.0,0.0,0.0,0.0,0.0,0.0,0.0,0.0,0.0,0.0,0.0,0.0,0.0,0.0,0.0,3.4117,3.2906,3.218,3.2525,3.1638,3.1173,3.147,3.0254,2.9564,2.9826,2.9156,0.0,0.0,0.0,0.0,0.0,0.0,0.0,0.0,0.0,0.0,0.0,0.0,0.0,0.0,0.0,0.0,0.0,0.0,0.0,0.0,0.0,0.0,0.0,0.0,0.0,0.0,0.0,0.0,0.0,0.0,0.0,0.0,0.0,0.0,0.0,0.0,0.0,0.0,0.0,0.0,0.0,0.0,0.0,0.0,0.0,0.0,0.0,0.0,0.0,0.0,0.0,0.0,0.0,4.2177,4.2177,4.2171,4.2832,4.2794,4.2073,4.0672,3.942,3.8321,3.835,0.0,0.0,0.0,0.0,0.0,0.0,0.0,0.0,0.0,0.0,0.0,0.0,0.0,0.0,0.0,0.0,0.0,0.0,0.0,0.0,0.0,0.0,4.0052,3.9899,3.9805,3.9254,3.7441,0.0,0.0,0.0,0.0,0.0,0.0,0.0,0.0,0.0,0.0,0.0,3.4211,3.3074,3.2468,3.308,3.2538,3.2308,3.2735,3.1681,3.092,3.0656,3.0532,3.0183,0.0,0.0,0.0,0.0,0.0,0.0,0.0,0.0,0.0,0.0,0.0,0.0,0.0,0.0,0.0,0.0,0.0,0.0,0.0,0.0,0.0,0.0,0.0,0.0,0.0,0.0,0.0,0.0,0.0,0.0,0.0,0.0,4.3531,4.2757,0.0,0.0,0.0,0.0,0.0,0.0,0.0,0.0,0.0,0.0,0.0,0.0,0.0,4.6623,4.7386,4.7247,4.7161,4.7161,4.7161,4.7161,4.7161,4.7271,4.7233,4.7156,4.6915,0.0,4.0502,4.0478,0.0,0.0,0.0,0.0,0.0,0.0,0.0,0.0,0.0,0.0,0.0,0.0,0.0,0.0,0.0,0.0,0.0,0.0,0.0,0.0,0.0,0.0,4.175,4.1084,4.0544,4.013,3.985,3.9426,3.8848,3.8183,3.7658,3.7288,0.0,0.0,0.0,0.0,0.0,0.0,3.6319,3.5669,3.5259,3.5286,3.4707,3.4053,3.3448,3.3212,3.2806,3.2083,3.1439,3.1062,3.1024,3.0585,0.0,0.0,0.0,0.0,0.0,0.0,0.0,0.0,0.0,0.0,0.0,0.0,0.0,0.0,0.0,0.0,0.0,0.0,0.0,0.0,0.0,0.0,0.0,0.0,0.0,0.0,0.0,0.0,0.0,4.4109,4.4627,4.3301,4.4279,4.4359,0.0,0.0,0.0,0.0,0.0,0.0,0.0,0.0,0.0,4.9086,4.9505,4.9889,5.0236,5.0236,5.0005,4.9553,4.9048,4.9086,4.951,4.8548,4.8355,4.8817,4.8312,4.6906,4.4873,4.3711,4.2815,4.2075,0.0,0.0,0.0,0.0,4.2485,4.2208,4.3023,4.2744,4.2042,4.2284,0.0,0.0,0.0,0.0,0.0,0.0,0.0,4.2983,4.3085,4.3709,4.4121,4.3305,4.2946,4.2667,4.2193,4.1941,4.125,3.9423,3.9211,3.9084,3.8304,3.7663,0.0,0.0,0.0,3.6475,3.732,3.6474,3.576,3.5701,3.5447,3.5091,3.4719,3.4308,3.3929,3.3558,3.2452,3.2036,3.2469,3.2181,3.2144,0.0,0.0,0.0,0.0,0.0,0.0,0.0,0.0,0.0,0.0,0.0,0.0,0.0,0.0,0.0,0.0,0.0,0.0,0.0,0.0,0.0,0.0,0.0,0.0,0.0,0.0,0.0,0.0,4.5706,4.6348,4.4452,4.6454,4.6993,0.0,0.0,0.0,0.0,0.0,0.0,5.0794,5.0776,5.1471,5.3159,5.3197,5.3313,5.3544,5.3313,5.2895,5.2284,5.1207,5.1053,5.163,5.0087,4.9779,5.0356,4.9702,4.9274,4.8875,4.6521,4.4794,4.3616,4.342,4.3458,4.3724,4.432,4.4136,4.3789,4.4978,4.4801,4.4114,4.4247,4.4146,4.3869,4.3389,0.0,0.0,0.0,0.0,4.424,4.4847,4.5443,4.5736,4.514,4.4993,4.4773,4.3975,4.38,4.3094,4.0749,4.0623,4.0532,3.9374,3.8601,0.0,3.8911,3.7748,3.717,3.8125,3.7479,3.6744,3.6299,3.6248,3.6097,3.5633,3.5103,3.4709,3.4516,3.3467,3.3028,3.3379,3.3413,3.3166,3.2674,0.0,0.0,0.0,0.0,0.0,0.0,0.0,0.0,0.0,0.0,0.0,0.0,0.0,0.0,0.0,0.0,0.0,0.0,0.0,0.0,0.0,0.0,0.0,0.0,0.0,0.0,0.0,0.0,0.0,4.7335,5.1385,0.0,0.0,0.0,0.0,5.0777,5.2165,5.3424,5.42,5.4252,5.5016,5.667,5.6747,5.7132,5.7967,5.717,5.6709,5.6676,5.5016,5.428,5.428,5.3356,5.2967,5.3005,5.2967,5.2467,5.1462,4.8145,4.7212,4.7703,4.6972,4.7126,4.778,4.7857,4.7818,4.7751,4.7543,4.693,4.6325,4.6764,4.6408,4.5826,4.6195,4.5721,0.0,0.0,4.5736,4.5773,4.5847,4.5883,4.5883,4.5847,4.5847,4.5626,4.481,4.4626,4.4141,4.2484,4.1787,4.1269,4.0617,0.0,3.9537,3.9081,3.95,3.9656,3.9036,3.9496,3.9349,3.793,3.7807,3.7199,3.5735,3.5566,3.5239,3.4539,3.4449,3.41,3.3423,3.3413,3.3368,3.3337,3.2763,0.0,0.0,0.0,0.0,0.0,0.0,0.0,0.0,0.0,0.0,0.0,0.0,0.0,0.0,0.0,0.0,0.0,0.0,0.0,0.0,0.0,0.0,0.0,0.0,0.0,0.0,0.0,0.0,5.3247,5.6166,0.0,5.477,5.6481,5.7436,5.6637,5.765,5.8656,5.9462,5.9458,5.9902,6.1012,6.105,6.0704,5.9935,5.9594,5.8902,5.7819,5.667,5.6401,5.6896,5.4934,5.4318,5.4741,5.3664,5.3005,5.2659,5.1467,5.051,4.9707,4.8856,4.9048,4.9707,4.9125,4.9279,4.9769,4.9647,4.9391,4.9189,4.9357,4.9023,4.8435,4.7825,4.7281,4.6694,4.6092,4.6278,4.6682,4.6682,4.7049,4.7305,4.6792,4.6682,4.6461,4.5663,4.548,4.5296,4.4745,4.364,4.2504,4.1521,4.0828,4.0243,3.9787,3.9525,3.9288,3.9039,3.9626,3.9525,3.8046,3.791,3.7483,3.6468,3.5915,3.5498,3.5205,3.4776,3.4573,3.4799,3.3886,3.3413,3.3413,3.3166,3.3025,0.0,0.0,0.0,0.0,0.0,0.0,0.0,0.0,0.0,0.0,0.0,0.0,0.0,0.0,0.0,0.0,0.0,0.0,0.0,0.0,0.0,0.0,0.0,0.0,0.0,5.5771,5.8406,5.811,6.1114,6.239,6.044,6.192,6.2797,6.2296,6.281,6.3502,6.4314,6.3729,6.3749,6.4551,6.4045,6.3045,6.1666,6.1364,6.0512,5.9127,5.8248,5.8165,5.8621,5.6665,5.6088,5.6511,5.5395,5.4928,5.4928,5.4928,5.428,5.3092,5.1356,5.101,5.1476,5.0894,5.1048,5.1553,5.1553,5.1553,5.1533,5.1397,5.1138,5.0678,4.9611,4.9129,4.8713,4.7813,4.7929,4.837,4.837,4.8737,4.8994,4.848,4.837,4.8039,4.6948,4.6728,4.6544,4.5993,4.4819,4.3534,4.2412,4.1584,4.0834,4.0211,3.966,3.9356,3.9356,3.9795,3.9525,3.8046,3.791,3.7471,3.6468,3.6163,3.5881,3.5633,3.5137,3.4979,3.5205,3.4292,3.3761,3.3761,3.3951,3.4021,3.4055,0.0,0.0,0.0,0.0,0.0,0.0,0.0,0.0,0.0,0.0,0.0,0.0,0.0,0.0,0.0,0.0,0.0,0.0,0.0,0.0,0.0,0.0,0.0,5.6965,6.0459,6.2882,6.1907,6.6276,6.7989,6.4429,6.7118,6.8648,6.7555,6.7516,6.7802,6.8449,6.6898,6.6365,6.7173,6.559,6.4282,6.3391,6.2595,6.1787,6.0864,6.0012,5.9588,5.955,5.8704,5.8352,5.8352,5.8313,5.8313,5.8313,5.8313,5.8313,5.7967,5.4582,5.3274,5.3313,5.3274,5.3231,5.3264,5.3264,5.3259,5.3162,5.2774,5.2653,5.2475,5.1615,5.133,5.1259,5.0905,5.0802,5.0802,5.0802,5.0802,5.0802,5.0802,5.0802,5.0362,4.8746,4.837,4.7902,4.6324,4.5324,4.4399,4.3191,4.2352,4.1432,4.0279,4.0113,0.0,4.0079,4.0079,3.9525,3.8091,3.791,3.7302,3.5802,3.6378,3.6445,3.5611,3.5566,3.525,3.4538,3.4504,3.4515,3.4537,3.505,3.5322,3.5367,0.0,0.0,0.0,0.0,0.0,0.0,0.0,0.0,0.0,0.0,0.0,0.0,0.0,0.0,0.0,0.0,0.0,0.0,0.0,0.0,0.0,6.0162,6.3297,6.2594,6.5761,6.8744,7.033,7.2364,7.3426,7.287,7.3137,7.2883,7.1878,7.1249,7.0677,7.0244,6.9206,6.8744,6.8975,6.793,6.6667,6.5205,6.4974,6.4089,6.2583,6.1781,6.1402,6.1325,5.9858,5.916,5.9127,5.855,5.8313,5.8313,5.8313,5.8313,5.8083,5.5857,5.5401,5.5824,5.4587,5.4336,5.46,5.46,5.4394,5.4107,5.3997,5.375,5.3331,5.2498,5.2057,5.1681,5.0989,5.0802,5.0802,5.0802,5.0802,5.0802,5.0802,5.0802,5.0655,5.0215,4.9664,4.9123,4.8683,4.7425,4.5721,4.3415,4.2447,4.1578,4.0306,4.0113,3.991,3.9356,3.9762,3.974,3.8802,3.87,3.8294,3.7335,3.6987,3.6208,3.4878,3.481,3.4904,3.506,3.4563,3.4674,3.5575,3.5728,3.6075,0.0,0.0,0.0,0.0,0.0,0.0,0.0,0.0,0.0,0.0,0.0,0.0,0.0,0.0,0.0,0.0,0.0,0.0,0.0,0.0,0.0,0.0,6.5451,6.9025,7.0367,7.1828,7.3461,7.5235,7.6244,7.6889,7.7183,7.6778,7.6237,7.5644,7.4476,7.3553,7.3053,7.1937,7.1283,7.1283,7.0084,6.8821,6.7513,6.6789,6.5551,6.3852,6.3358,6.298,6.2551,6.1204,6.0589,6.055,5.9704,5.9358,5.9358,5.9358,5.9358,5.9165,0.0,0.0,0.0,0.0,5.5594,5.5648,5.5596,5.535,5.4972,5.4789,5.4752,5.4623,5.3651,5.341,5.3419,5.2931,5.2564,5.2307,5.2307,5.205,5.182,5.182,5.182,5.1709,5.1389,5.0922,5.0518,5.0188,4.8826,0.0,4.5215,4.3549,4.2149,4.1087,4.0458,4.0109,4.0169,4.0336,4.0242,3.9756,3.9422,3.9042,3.8638,3.7868,0.0,0.0,0.0,3.5615,3.5582,3.5505,0.0,0.0,0.0,3.7827,3.8015,3.9049,0.0,0.0,3.9987,4.0168,0.0,0.0,0.0,0.0,0.0,0.0,0.0,0.0,0.0,0.0,0.0,0.0,0.0,0.0,0.0,0.0,7.1262,7.5014,7.8215,7.7705,7.7249,7.7825,7.8582,7.8979,7.8822,7.8715,7.8638,7.8638,7.7169,7.6284,7.6284,7.4707,0.0,0.0,0.0,7.0744,6.986,6.8282,6.6712,6.5051,6.4936,6.4436,6.3583,6.2749,6.2326,6.2172,6.1325,6.0917,6.0849,6.0772,6.0671,6.0487,5.8942,5.8277,5.8056,5.7255,5.6748,5.6362,5.6295,0.0,0.0,5.5221,5.5542,5.5926,5.4843,5.5034,5.5585,5.5585,5.5108,5.4509,5.4436,5.3885,5.3324,5.3214,5.3214,5.2994,5.227,5.206,5.1803,5.1059,4.9726,4.8468,4.7759,4.5201,4.3012,4.2311,4.1184,4.0752,4.1682,4.1318,4.095,4.0823,4.0202,0.0,3.9741,3.9024,3.8534,3.8425,3.7799,3.7117,3.638,3.7163,3.7654,3.7654,3.94,3.9977,3.9343,4.0592,4.1617,4.2278,4.1823,4.1623,0.0,0.0,0.0,0.0,0.0,0.0,0.0,0.0,0.0,0.0,0.0,0.0,0.0,0.0,0.0,7.0548,7.4242,7.7246,7.9285,7.9943,8.027,8.0398,8.0545,8.0638,8.06,7.9977,7.9554,7.9554,7.8592,7.8023,7.8023,7.6438,7.5515,7.5515,7.3892,7.2238,7.0667,7.0321,6.9321,6.766,6.6936,0.0,6.5359,6.4512,6.3743,6.3006,6.221,6.164,6.1225,6.053,5.9999,5.9614,5.8976,5.8096,5.7139,5.6988,5.6643,5.6247,5.6238,5.5963,5.5592,5.5523,5.5601,5.5679,5.5434,5.5475,0.0,5.5585,5.5475,5.5218,5.4583,5.4289,5.3995,5.3361,5.3214,5.3177,5.2994,5.2454,5.195,5.1803,5.0474,4.921,4.8504,4.6409,4.4406,4.3045,4.2617,4.2264,4.1849,4.1714,4.1611,4.1587,4.1456,4.1123,4.0537,4.0329,3.9727,3.8564,3.8689,3.8724,3.8589,3.9716,4.035,4.035,4.0746,4.0861,4.0731,4.1621,4.2139,4.2286,4.2201,4.2497,0.0,0.0,0.0,0.0,0.0,0.0,0.0,0.0,0.0,0.0,0.0,6.2358,6.532,0.0,7.1091,7.5322,7.7438,7.9285,8.14,8.1362,8.1093,8.1093,8.1093,8.1093,8.1093,8.0708,8.0439,8.0439,7.9631,7.9131,7.9131,7.7938,7.7246,7.7246,7.563,7.4322,7.3476,7.2206,7.0898,6.9622,6.8783,6.7975,6.7128,6.6244,6.5397,6.4551,6.3705,6.2964,6.2257,6.1189,6.0091,5.9018,5.8832,5.8504,5.811,5.7649,5.7208,5.6868,5.6801,5.6541,5.6198,5.6198,5.6455,5.6723,5.6308,5.6492,5.6796,5.6796,5.6503,5.6124,5.5721,5.4987,5.4289,5.3922,5.3471,5.3214,5.3214,5.2884,5.2601,5.2601,5.162,5.0694,5.0341,4.8705,4.6801,4.4875,4.4035,4.3522,4.3284,4.3017,4.2813,4.2674,4.2296,4.2044,4.2091,4.1747,4.1025,3.9869,4.0015,4.0134,4.0134,4.0748,4.1095,4.1095,4.1507,4.169,4.169,4.2506,4.2919,4.2919,4.2919,4.2973,0.0,0.0,0.0,0.0,0.0,0.0,0.0,5.8863,6.0441,6.3865,6.5897,6.8167,7.1706,7.3822,7.62,7.9939,8.0554,8.1246,8.3293,8.2593,8.1785,8.1593,8.1439,8.1285,8.1131,8.1246,8.1285,8.1093,8.0439,8.0046,8.0046,7.9246,7.8754,7.8754,7.7284,7.6322,7.6015,7.3944,7.2437,7.1398,7.0591,6.9744,6.8853,6.8013,6.7173,6.6314,6.5107,6.3925,6.2794,6.1614,6.0195,5.8783,5.8747,5.8874,5.9037,5.8333,5.7865,5.7583,5.7553,5.7296,5.7031,5.7031,5.7483,5.7886,5.7226,5.7483,5.7997,5.7997,5.7519,5.6994,5.6847,5.5831,5.484,5.4656,5.4142,5.3654,5.3654,5.3544,5.3434,5.3434,5.2674,5.1987,5.1987,5.0812,4.9095,4.6918,4.5573,4.4787,4.4931,4.4563,4.4141,4.3756,4.313,4.2983,4.3469,4.2919,4.2249,4.1617,4.158,4.158,4.158,4.158,4.158,4.158,4.2213,4.2543,4.2543,4.3359,4.3653,4.3506,4.3836,4.3506,5.4436,5.4859,5.6328,6.0029,6.0089,6.1358,0.0,6.9783,6.9244,7.2591,7.4668,7.6253,7.7445,7.9054,8.09,8.287,8.3178,8.3255,8.3563,8.4093,8.4209,8.3409,8.2631,8.19,8.117,8.1747,8.1862,8.1131,8.1016,8.0939,8.0939,8.0131,7.9662,7.9662,7.8707,7.7522,7.6015,7.5707,7.4784,7.3199,7.2322,7.1475,7.0591,6.9783,6.8936,6.7974,6.5503,6.3257,6.1297,6.0424,5.9706,5.909,5.8815,5.8492,5.8127,5.8054,5.7972,5.7952,5.7952,5.7907,5.7886,5.7886,5.7923,5.796,5.7886,5.7923,5.7997,5.7997,5.7923,5.7703,5.7005,5.6664,5.6345,5.5658,5.5401,5.5328,5.5328,5.4766,5.4289,5.4289,5.3041,5.1987,5.1987,5.1242,5.0085,4.8329,4.7328,4.6523,4.5838,4.5691,4.5388,4.4663,4.448,4.4195,4.3543,4.3433,4.3322,4.3249,4.3212,4.3212,4.3212,4.3212,4.3212,4.3212,4.3322,4.3359,4.3359,4.4158,4.4195,4.3543,4.4975,4.4564,5.8347,5.9706,6.1404,6.3131,6.5243,6.7936,7.186,7.2668,7.3591,7.6969,7.8669,8.0054,8.19,8.2824,8.3862,8.5555,8.4978,8.4863,8.6371,8.4747,8.3632,8.4286,8.3131,8.217,8.1823,8.2554,8.2516,8.1208,8.1516,8.1593,8.1131,8.0746,8.0554,8.0554,7.9708,7.8938,7.8207,7.6746,7.5668,7.4938,7.3091,7.1862,7.1175,7.0333,6.9273,6.8036,6.5992,6.4116,6.2491,6.1683,6.0493,5.9183,5.9031,5.8581,5.7997,5.7997,5.7997,5.7997,5.7997,5.7997,5.7997,5.7997,5.7997,5.7997,5.7997,5.7997,5.7997,5.7997,5.7997,5.7923,5.7593,5.7141,5.6712,5.6381,5.5952,5.5475,5.4997,5.462,5.4252,5.3801,5.3151,5.2711,5.2711,5.2013,5.1242,5.0545,4.937,4.8233,4.7425,4.6902,4.6278,4.5471,4.5406,4.5259,4.4929,4.4901,4.4901,4.4901,4.4901,4.4901,4.4901,4.4901,4.4901,4.4901,4.4901,4.4901,4.4901,4.5223,4.5223,4.4901,4.559,4.5267,6.0501,6.267,6.4949,6.5793,6.9475,7.3053,7.3791,7.5245,7.7238,7.9939,8.1362,8.2708,8.4547,8.5085,8.5632,8.6824,8.6017,8.5786,8.7401,8.517,8.3632,8.4439,8.3439,8.2554,8.2324,8.2862,8.2639,8.1208,8.1631,8.1708,8.1131,8.1093,8.1093,8.1093,8.0477,8.0046,7.9815,7.7746,7.6592,7.6322,7.4014,7.2677,7.2273,7.1164,6.9708,6.7954,6.6548,6.5114,6.3671,6.2617,6.1246,5.982,5.938,5.8829,5.829,5.807,5.7997,5.7997,5.7997,5.7997,5.7997,5.7997,5.7997,5.7997,5.7997,5.7997,5.7997,5.7997,5.7997,5.7997,5.7997,5.7556,5.7152,5.7152,5.6675,5.6099,5.55,5.5207,5.4876,5.4315,5.4021,5.3849,5.3849,5.3188,5.2648,5.2648,5.1289,4.9968,4.9114,4.8296,4.7452,4.6654,4.6361,4.614,4.592,4.5883,4.5883,4.5883,4.5883,4.5883,4.5883,4.5883,4.5883,4.5883,4.5883,4.5883,4.5883,4.6104,4.6104,4.592,4.6361,4.6144,5.9749,6.2109,6.5404,6.8706,7.2129,7.5284,7.7753,7.9669,8.117,8.2054,8.3593,8.4816,8.4893,8.5547,8.6094,8.6132,8.6094,8.5824,8.5132,8.5555,8.5401,8.3832,8.3601,8.3216,8.2362,8.2324,8.1977,8.117,8.1131,8.1131,8.1093,8.1093,8.1093,8.1093,8.1054,8.0669,7.9815,7.89,7.8023,7.7253,7.5476,7.4623,7.4531,7.2885,7.0667,6.8069,6.7211,6.5795,6.3944,6.2291,6.1581,6.1374,5.982,5.9196,5.9086,5.829,5.7997,5.7997,5.7997,5.7997,5.7997,5.7997,5.7997,5.7997,5.7997,5.7997,5.7997,5.7997,5.7997,5.7997,5.7997,5.796,5.796,5.796,5.7923,5.7923,5.7886,5.7299,5.6701,5.6701,5.6051,5.5548,5.5548,5.4851,5.4326,5.4326,5.2968,5.1646,5.0839,5.0004,4.9197,4.8306,4.7526,4.6755,4.5957,4.5883,4.5883,4.5883,4.5883,4.5883,4.5883,4.5883,4.5883,4.5883,4.5883,4.5883,4.5883,4.6682,4.6645,4.592,4.7498,4.7511,6.2815,6.6031,6.9636,7.2025,7.4741,7.7354,7.9291,8.0214,8.087,8.1717,8.1803,8.1889,8.2482,8.3133,8.3978,8.5132,8.5747,8.6209,8.6517,8.5324,8.4024,8.2862,8.2285,8.1593,8.0746,8.1631,8.1977,8.117,8.1593,8.167,8.1131,8.1093,8.1093,8.1093,8.1093,8.0977,8.0669,7.9785,7.8938,7.8061,7.5416,7.3852,7.3262,7.1779,7.0135,6.8305,6.6957,6.5529,6.4029,6.2879,6.2071,6.1569,6.1006,6.0456,5.9893,5.9086,5.8792,5.8719,5.818,5.7997,5.7997,5.7997,5.7997,5.7997,5.7997,5.7997,5.7997,5.7997,5.7997,5.7997,5.7997,5.7997,5.7997,5.7997,5.7997,5.785,5.7336,5.7005,5.6638,5.6088,5.5805,5.5585,5.5585,5.5365,5.5023,5.4473,5.3041,5.173,5.0912,5.0545,5.0288,4.9994,4.9728,4.9434,4.9187,4.915,4.915,4.915,4.915,4.915,4.915,4.915,4.915,4.915,4.915,4.915,4.915,4.9434,4.9407,4.915,4.9701,4.9435,6.5711,6.9095,7.2393,7.4509,7.6727,7.8647,7.9741,8.0205,8.0519,8.0795,8.0222,7.9762,8.002,8.0307,8.0977,8.2362,8.3324,8.4247,8.5401,8.3901,8.2545,8.2033,8.1189,8.0358,7.9642,8.0685,8.1323,8.1131,8.1593,8.1631,8.1131,8.1093,8.1093,8.1093,8.1093,8.1093,8.1093,8.0246,7.9208,7.8061,7.6076,7.4328,7.2896,7.2034,7.058,6.869,6.7091,6.5677,6.442,6.327,6.2499,6.1998,6.1704,6.1117,6.0297,5.949,5.9013,5.8682,5.818,5.7997,5.7997,5.7997,5.7997,5.7997,5.7997,5.7997,5.7997,5.7997,5.7997,5.7997,5.7997,5.7997,5.7997,5.7997,5.7997,5.785,5.7336,5.7226,5.7079,5.6576,5.6466,5.6466,5.6466,5.6209,5.5757,5.495,5.3969,5.2905,5.1783,5.1673,5.1563,5.1242,5.1242,5.1096,5.0839,5.0802,5.0802,5.0802,5.0802,5.0802,5.0802,5.0802,5.0802,5.0802,5.0802,5.0802,5.0802,5.0802,5.0802,5.0792,5.0514,5.0036,6.8364,7.1186,7.3691,7.6135,7.7939,7.9105,7.9143,7.9769,8.0094,7.9274,7.8808,7.8266,7.7465,7.7202,7.7407,7.8292,7.9323,8.0554,8.2208,8.1785,8.1316,8.1375,8.0554,7.9824,7.9358,7.9694,8.0284,8.11,8.1154,8.1131,8.1093,8.1131,8.1131,8.1093,8.1093,8.1093,8.1093,8.0246,7.8977,7.7369,7.7231,7.5908,7.3517,7.338,7.1871,6.9159,6.7615,6.6275,6.5105,6.3527,6.2829,6.2719,6.1961,6.1153,6.037,5.9563,5.8756,5.807,5.7997,5.7997,5.7997,5.7997,5.7997,5.7997,5.7997,5.7997,5.7997,5.7997,5.7997,5.7997,5.7997,5.7997,5.7997,5.7997,5.7997,5.7997,5.7997,5.7997,5.7997,5.7997,5.7997,5.7997,5.7997,5.7373,5.6602,5.5768,5.5658,5.5097,5.3508,5.3287,5.2957,5.2207,5.2097,5.1756,5.0986,5.0902,5.0902,5.0902,5.0902,5.0902,5.0902,5.0902,5.0902,5.0902,5.0902,5.0902,5.0902,5.0902,5.0902,5.0892,5.0166,4.9494,7.151,7.4014,7.6163,7.6949,7.7478,7.7937,7.8602,7.8432,7.7834,7.681,7.492,7.3164,7.2164,7.3329,7.5168,7.7253,8.0439,8.3016,8.4093,8.4055,8.3265,8.1537,8.2087,8.2148,8.088,8.1441,8.1977,8.2216,8.2097,8.1747,8.1131,8.167,8.1708,8.1131,8.1093,8.1093,8.1093,8.0246,7.9246,7.8176,7.6534,7.5043,7.3756,7.2108,7.0375,6.8638,6.7643,6.6128,6.4383,6.3943,6.3392,6.2793,6.2572,6.1998,6.119,6.037,5.9563,5.8792,5.8217,5.7997,5.7997,5.7997,5.7997,5.7997,5.7997,5.7997,5.7997,5.7997,5.7997,5.7997,5.7997,5.7997,5.7997,5.7997,5.7997,5.7997,5.7997,5.7997,5.7997,5.7997,5.7997,5.7997,5.7997,5.7813,5.7409,5.6638,5.6492,5.6124,5.5133,5.4473,5.4032,5.3812,5.3261,5.281,5.2627,5.259,5.259,5.259,5.259,5.259,5.259,5.259,5.259,5.259,5.259,5.259,5.259,5.259,5.259,5.258,5.1846,5.1155,7.3939,7.5763,7.7148,7.7286,7.7289,7.7069,7.613,7.5836,7.4948,7.222,7.0777,6.9498,6.7826,7.0155,7.2937,7.4791,7.8938,8.2631,8.4624,8.4302,8.3678,8.3156,8.3178,8.2851,8.1783,8.2295,8.2577,8.2312,8.2022,8.1669,8.1209,8.1565,8.1554,8.1093,8.1093,8.0967,8.0652,7.9817,7.8832,7.77,7.6113,7.4495,7.2956,7.1703,7.017,6.8472,6.7666,6.6258,6.4604,6.4249,6.3576,6.2793,6.2793,6.2316,6.1484,6.0713,5.9893,5.9086,5.829,5.7997,5.7997,5.7997,5.7997,5.7997,5.7997,5.7997,5.7997,5.7997,5.7997,5.7997,5.7997,5.7997,5.7997,5.7997,5.7997,5.7997,5.7997,5.7997,5.7997,5.7997,5.7997,5.7997,5.7997,5.7997,5.785,5.7409,5.7336,5.7152,5.6723,5.5658,5.4803,5.4436,5.3995,5.3728,5.3728,5.3728,5.3728,5.3728,5.3728,5.3581,5.3214,5.3214,5.3214,5.3214,5.3214,5.3214,5.3214,5.3214,5.3013,5.2714,5.1994,5.1292,7.575,7.6775,7.7289,7.7289,7.7215,7.6335,7.3215,7.2863,7.19,6.7219,6.6797,6.6588,6.4379,6.7401,7.0688,7.2094,7.6286,8.0693,8.4447,8.362,8.3335,8.5185,8.4092,8.3014,8.2692,8.2958,8.2907,8.2295,8.1814,8.1417,8.1195,8.1188,8.1069,8.0847,8.0847,8.0573,7.9979,7.917,7.8066,7.6697,7.5709,7.3979,7.1697,7.1508,7.0297,6.8343,6.7648,6.6618,6.5398,6.4604,6.3759,6.2976,6.2866,6.2316,6.1533,6.0823,6.004,5.9233,5.8437,5.8143,5.8143,5.8033,5.7997,5.7997,5.7997,5.7997,5.7997,5.7997,5.7997,5.7997,5.7997,5.7997,5.7997,5.7997,5.7997,5.7997,5.7997,5.7997,5.7997,5.7997,5.7997,5.7997,5.7997,5.7997,5.7997,5.7997,5.7997,5.7997,5.7997,5.6686,5.55,5.4803,5.462,5.4546,5.4546,5.4546,5.4546,5.4546,5.4546,5.4252,5.3544,5.3434,5.3361,5.3361,5.3251,5.3214,5.3214,5.3103,5.2736,5.2089,5.1424,5.0714,7.6806,7.7179,7.7289,7.7289,7.6812,7.5652,7.3083,7.1578,6.965,6.5873,6.4119,6.3102,6.2428,6.4648,6.7995,7.2174,7.536,7.9199,8.4566,8.389,8.3539,8.5363,8.5188,8.4952,8.5031,8.5052,8.4781,8.4032,8.3224,8.2118,8.065,8.1215,8.0941,7.9551,7.9513,7.9469,7.9358,7.8548,7.7661,7.6697,7.4692,7.283,7.1101,6.9951,6.8839,6.785,6.7702,6.7109,6.6219,6.5411,6.4604,6.3796,6.3086,6.2316,6.1569,6.1447,6.0896,6.0077,5.9269,5.8976,5.8866,5.8217,5.7997,5.7997,5.7997,5.7997,5.7997,5.7997,5.7997,5.7997,5.7997,5.7997,5.7997,5.7997,5.7997,5.7997,5.7997,5.7997,5.7997,5.7997,5.7997,5.7997,5.7997,5.7997,5.7997,5.7997,5.7997,5.7997,5.7997,5.7189,5.6554,5.6407,5.5794,5.5401,5.5401,5.5401,5.5401,5.5401,5.5401,5.5328,5.5181,5.4546,5.4179,5.4179,5.3544,5.3214,5.3214,5.2588,5.2218,5.2077,5.1465,5.0771,7.7215,7.7289,7.7289,7.7289,7.6371,7.4515,7.0844,6.9082,6.6898,6.2209,6.1526,6.1405,6.0414,6.3229,6.6598,6.9383,7.3061,7.7316,8.2213,8.2611,8.3396,8.5953,8.5864,8.5647,8.5704,8.5324,8.4732,8.3956,8.2736,8.1584,8.0601,8.0478,8.0028,7.9236,7.9198,7.9046,7.8741,7.7929,7.693,7.5747,7.4253,7.2721,7.1128,7.0445,6.9486,6.8311,6.8311,6.7614,6.6476,6.6072,6.5191,6.4066,6.3649,6.2952,6.2181,6.1741,6.1374,6.086,5.9636,5.949,5.9673,5.8902,5.8609,5.8609,5.8609,5.8609,5.8609,5.8609,5.8609,5.8547,5.8107,5.8327,5.8609,5.8609,5.8951,5.9134,5.8719,5.8609,5.8609,5.8609,5.829,5.7997,5.7997,5.7997,5.7997,5.7997,5.7997,5.7997,5.7997,5.7666,5.7262,5.6847,5.6455,5.6235,5.6235,5.6235,5.6235,5.6235,5.6235,5.6051,5.5622,5.5218,5.5023,5.5023,5.4656,5.4436,5.4436,5.3296,5.2738,5.2745,5.1689,5.0996,7.7252,7.7289,7.7289,7.7289,7.5968,7.3413,6.8765,6.6819,6.4457,5.9098,5.9361,6.012,5.8799,6.1711,6.4807,6.6299,7.0057,7.4519,7.9478,8.08,8.2629,8.6242,8.6013,8.56,8.58,8.5086,8.4278,8.3454,8.1913,8.0766,8.0271,7.931,7.8791,7.8791,7.8791,7.8563,7.8077,7.731,7.6314,7.516,7.4184,7.2936,7.1564,7.138,7.0426,6.8885,6.8885,6.8091,6.6733,6.6549,6.5742,6.4617,6.442,6.3833,6.2976,6.2365,6.1998,6.1667,6.0224,6.0114,6.0529,5.971,5.9453,5.9453,5.9453,5.9453,5.9453,5.9453,5.9453,5.9306,5.8694,5.8976,5.9453,5.9453,5.993,6.0236,5.96,5.9453,5.9453,5.9453,5.8792,5.8253,5.8253,5.8107,5.7997,5.7997,5.7997,5.7997,5.7997,5.7997,5.7776,5.7104,5.7068,5.7068,5.7068,5.7068,5.7068,5.7068,5.7068,5.6785,5.6136,5.5952,5.5879,5.5879,5.5695,5.5519,5.5347,5.3978,5.3258,5.3126,5.1972,5.1355,7.7105,7.7289,7.7289,7.7289,7.5527,7.273,6.8618,6.5938,6.3111,5.8877,5.8153,5.8235,5.8088,5.9016,6.1051,6.4831,6.6439,6.9952,7.7694,7.887,8.0662,8.5331,8.521,8.5013,8.571,8.5086,8.4278,8.3454,8.1913,8.0346,7.8881,7.795,7.7465,7.7465,7.7465,7.7435,7.7396,7.6602,7.6131,7.5983,7.4441,7.323,7.2349,7.1637,7.0426,6.8885,6.8885,6.8385,6.7517,6.6806,6.6402,6.6219,6.5485,6.4677,6.3992,6.3919,6.3356,6.2572,6.1667,6.141,6.1374,6.0566,6.0309,6.0309,6.0309,6.0309,6.0309,6.0309,6.0309,6.026,6.0187,6.0236,6.0309,6.0309,6.0346,6.0382,6.0297,6.0309,6.0309,6.0309,5.9636,5.9086,5.9086,5.8474,5.7997,5.7997,5.7997,5.7997,5.7997,5.7997,5.796,5.7886,5.7886,5.7886,5.7886,5.7886,5.7886,5.7886,5.7886,5.785,5.7776,5.7079,5.6712,5.6712,5.5978,5.5268,5.458,5.3791,5.3063,5.2379,5.2256,5.1824,7.6093,7.6922,7.7289,7.7289,7.4757,7.1468,6.8398,6.5057,6.1851,5.9269,5.8327,5.8143,5.8609,5.8572,5.9318,6.1912,6.3025,6.5705,7.1908,7.3597,7.6203,8.1542,8.2333,8.2957,8.4242,8.4058,8.3344,8.206,8.0901,7.98,7.8662,7.8259,7.7839,7.7326,7.7289,7.7289,7.7289,7.6995,7.6592,7.6093,7.4955,7.4001,7.3193,7.2386,7.1138,6.9633,7.0132,6.9339,6.77,6.7871,6.7357,6.6402,6.5632,6.4824,6.4029,6.3503,6.3086,6.2683,6.1887,6.1924,6.2181,6.1374,6.1447,6.1728,6.1263,6.1117,6.1117,6.1117,6.1117,6.1006,6.0529,6.075,6.1006,6.0529,6.1141,6.1692,6.1227,6.1117,6.1117,6.1117,6.0456,5.9783,5.9269,5.8939,5.8547,5.807,5.7997,5.7997,5.7997,5.7997,5.7997,5.7997,5.7997,5.7997,5.7997,5.7997,5.7997,5.7997,5.7997,5.7997,5.7997,5.7703,5.7519,5.7519,5.6781,5.6224,5.5949,5.426,5.3534,5.364,5.2741,5.2401,7.4808,7.6298,7.7289,7.7289,7.428,7.0683,6.8251,6.4543,6.108,5.9233,5.84,5.818,5.8756,5.8572,5.8804,6.0199,6.1263,6.3576,6.8224,7.0279,7.3142,7.8112,7.9213,8.0277,8.215,8.2774,8.259,8.1452,8.0608,7.9816,7.8993,7.8736,7.8222,7.7326,7.7289,7.7289,7.7289,7.7289,7.6885,7.6093,7.527,7.4478,7.3685,7.2863,7.1762,7.0477,7.105,7.0073,6.8091,6.8678,6.8091,6.6806,6.6219,6.5375,6.4383,6.3783,6.3233,6.2719,6.2144,6.2328,6.2719,6.2144,6.2352,6.2683,6.2144,6.1961,6.1961,6.1961,6.1961,6.1814,6.1251,6.152,6.1814,6.1251,6.1985,6.2646,6.2071,6.1961,6.1961,6.1961,6.13,6.0566,6.0003,5.971,5.9343,5.8804,5.851,5.8364,5.8364,5.8143,5.7997,5.7997,5.7997,5.7997,5.7997,5.7997,5.7997,5.7997,5.7997,5.7997,5.7997,5.7997,5.7997,5.7997,5.7486,5.7002,5.655,5.4923,5.4174,5.4264,5.3172,5.2976,7.3303,7.5469,7.7289,7.7289,7.428,7.0683,6.8251,6.4543,6.0908,5.851,5.7997,5.7997,5.7997,5.8646,5.9453,6.026,6.1728,6.4224,6.8298,7.0279,7.2481,7.5763,7.6166,7.7121,7.9596,8.1285,8.2186,8.2186,8.1452,8.0645,7.9816,7.9045,7.8222,7.7326,7.7289,7.7289,7.7289,7.7289,7.6885,7.6093,7.527,7.4478,7.3685,7.2863,7.2041,7.1307,7.1307,7.0389,6.8885,6.8885,6.8421,6.77,6.7664,6.6696,6.5288,6.5288,6.4224,6.2793,6.2793,6.2793,6.2793,6.2793,6.2793,6.2793,6.2793,6.2793,6.2793,6.2793,6.2793,6.2793,6.2793,6.2793,6.2793,6.2793,6.2793,6.2793,6.2793,6.2793,6.2793,6.2793,6.2144,6.1569,6.1569,6.0896,6.0382,6.0382,5.971,5.9196,5.9196,5.8499,5.7997,5.7997,5.7997,5.7997,5.7997,5.7997,5.7997,5.7997,5.7997,5.7997,5.7997,5.7997,5.7997,5.7997,5.7997,5.7253,5.5724,5.5674,5.4939,5.3501,5.3518,5.3484,6.752,6.9711,7.1417,7.0881,6.8972,6.6683,6.4787,6.2511,6.0419,5.9086,5.84,5.818,5.8719,5.8572,5.8988,6.0896,6.163,6.3209,6.6769,6.8641,7.105,7.483,7.8222,8.0571,8.1342,8.1893,8.1966,8.1415,8.0645,7.9853,7.9029,7.8185,7.7582,7.7326,7.7289,7.7289,7.7289,7.7289,7.6885,7.6093,7.527,7.4478,7.3685,7.2863,7.2041,7.1344,7.1857,7.0903,6.8935,6.9486,6.8898,6.7664,6.71,6.6549,6.6035,6.5508,6.464,6.3759,6.4334,6.415,6.3796,6.4334,6.4517,6.4517,6.4517,6.371,6.2793,6.2793,6.2793,6.2793,6.2793,6.2793,6.2793,6.2793,6.2793,6.2793,6.2793,6.2793,6.2793,6.2793,6.2572,6.2254,6.1704,6.1374,6.1043,6.0493,6.0187,6.0003,6.0003,5.9795,5.9648,5.9648,5.9648,5.9208,5.8107,5.7997,5.7997,5.7997,5.7997,5.7997,5.7997,5.7997,5.7762,5.7277,5.6698,5.5948,5.4969,5.4454,5.3962,5.3518,5.3518,5.3518,6.3289,6.5946,6.7879,6.7367,6.6046,6.4494,6.3123,6.1325,5.971,5.8902,5.8364,5.8143,5.8646,5.8584,5.9061,6.086,6.141,6.2842,6.6439,6.7797,6.9926,7.3964,7.8222,8.0828,8.0828,8.1379,8.1525,8.1048,7.9984,7.914,7.8626,7.7766,7.7289,7.7289,7.7289,7.7289,7.7289,7.6995,7.6445,7.5652,7.4845,7.4037,7.323,7.2716,7.2239,7.1747,7.1967,7.1027,0.0,6.9559,6.8862,6.7664,6.7136,6.6769,6.6439,6.5925,6.5228,6.4604,6.5141,6.4971,6.464,6.5141,6.5288,6.5288,6.5288,6.4371,6.3282,6.3282,6.3282,6.3282,6.3282,6.3282,6.3282,6.3282,6.305,6.2793,6.2793,6.2793,6.2793,6.2793,6.2793,6.2646,6.2144,6.2034,6.1887,6.1361,6.1043,6.086,6.086,6.0603,6.0419,6.0419,6.0419,5.9857,5.8547,5.8437,5.8327,5.8033,5.7997,5.7997,5.7997,5.7997,5.7667,5.6912,5.668,5.6083,5.5007,5.4257,5.3788,5.3518,5.3518,5.3518,0.0,6.3472,6.5916,6.5888,6.479,6.3503,6.2646,6.0774,0.0,5.818,5.7997,5.8033,5.807,5.8646,5.9416,6.0346,6.1117,6.3001,6.6966,6.7921,6.9646,7.356,7.69,7.8809,7.8699,8.0094,8.0938,8.0828,7.9433,7.8552,7.8516,7.7729,7.7289,7.7289,7.7289,7.7289,7.7289,7.6481,7.5689,7.4903,7.4074,7.3266,7.2496,7.2496,7.2496,7.2459,7.1711,7.0903,7.0036,6.9302,6.8495,6.77,6.77,6.726,6.6586,6.6586,6.6072,6.5398,6.5435,6.5435,6.5398,6.5435,6.5472,6.5472,6.5472,6.4861,6.4213,6.4213,6.4213,6.4176,6.4103,6.4103,6.4103,6.4029,6.3392,6.2793,6.2793,6.2793,6.2793,6.2793,6.2793,6.2793,6.2793,6.2793,6.2793,6.2793,6.2144,6.1704,6.1704,6.1043,6.0566,6.0566,6.0566,6.0224,5.9453,5.9306,5.8939,5.8143,5.8143,5.818,5.818,5.8072,5.7668,5.6979,5.7554,5.7142,5.5692,5.5008,5.4329,5.3653,5.3619,5.3585,5.4105,0.0,6.0046,6.0003,6.0201,6.015,0.0,5.9159,5.8976,5.818,5.7997,5.818,5.8792,5.8572,5.8951,6.097,6.1484,6.2585,6.5448,7.011,7.4258,7.7121,7.9764,8.0865,7.9633,8.0424,8.0498,7.925,7.8809,7.8295,7.7656,7.7399,7.7289,7.7289,7.7289,7.7289,7.7289,7.6481,7.5689,7.4903,7.4074,7.3266,7.2496,7.2496,7.2496,7.2496,7.2312,7.1394,7.0073,6.9889,6.8972,6.77,6.77,6.759,6.7407,6.7407,6.6916,6.6329,6.6916,6.6733,6.6329,6.6953,6.715,6.715,6.715,6.6145,6.5007,6.5007,6.5007,6.4897,6.4237,6.4103,6.3906,6.3282,6.2939,6.2793,6.2793,6.2793,6.2793,6.2793,6.2793,6.2793,6.2793,6.2793,6.2793,6.2793,6.2646,6.2499,6.2499,6.2352,6.2242,6.2242,6.2242,6.1912,6.1117,6.0456,5.9783,5.8976,5.949,5.9832,5.9832,5.8712,5.7988,5.7804,5.6767,5.6045,5.5706,5.5533,5.5361,5.5158,5.46,5.4329,5.2648,5.4581,5.6567,5.6867,5.7786,5.8547,5.8107,5.8327,5.8547,5.8107,5.7997,5.8143,5.8572,5.8609,5.9098,6.0786,6.1667,6.3392,6.699,7.1747,7.5821,7.8295,7.9764,8.0498,8.0351,8.0094,7.9543,7.8662,7.8222,7.7803,7.7326,7.7289,7.7289,7.7289,7.7289,7.7289,7.7289,7.6481,7.5689,7.4903,7.4074,7.3266,7.2496,7.2496,7.2496,7.2459,7.1725,7.0881,7.0036,6.9316,6.8508,6.77,6.77,6.77,6.77,6.77,6.7407,6.7113,6.7554,6.7407,6.71,6.7554,6.77,6.77,6.77,6.71,6.6329,6.5962,6.5852,6.5742,6.5301,6.5204,6.5081,6.4604,6.4224,6.3857,6.3503,6.3392,6.3392,6.3392,6.3392,6.3503,6.3894,6.393,6.393,6.393,6.3637,6.3392,6.3392,6.305,6.2793,6.2793,6.2793,6.2462,6.1667,6.1557,6.0994,5.982,6.015,6.0419,6.0419,5.9239,5.8415,5.8032,5.6816,5.6206,5.6206,5.6206,5.6037,5.5699,5.531,5.5108,5.3205,5.4046,5.4915,5.5528,5.6842,5.796,5.785,5.7923,5.7997,5.7997,5.7997,5.807,5.8327,5.8902,5.971,6.0627,6.2316,6.5228,6.9963,7.323,7.5909,7.8148,7.8626,7.9213,8.0351,7.9323,7.8552,7.8405,7.7729,7.7289,7.7289,7.7289,7.7289,7.7289,7.7289,7.7289,7.7289,7.6371,7.5579,7.4903,7.3964,7.3156,7.2496,7.2496,7.2496,7.2422,7.1064,7.033,7.0,6.8618,6.7921,6.77,6.77,6.77,6.77,6.77,6.77,6.77,6.77,6.77,6.77,6.77,6.77,6.77,6.77,6.77,6.7554,6.688,6.6659,6.6659,6.6512,6.6512,6.6476,6.6366,6.5802,6.5105,6.442,6.4273,6.4273,6.4273,6.4273,6.4494,6.5178,6.5288,6.5288,6.5288,6.4714,6.4273,6.4273,6.3649,6.3196,6.3196,6.3086,6.2719,6.2047,6.2375,6.2056,6.0664,6.0689,6.0616,6.0236,5.9538,5.8736,5.7736,5.7239,5.6968,5.6968,5.6968,5.6664,5.6037,5.5902,5.5868,5.2786,5.4434,5.5603,5.5633,5.6839,5.7813,5.7152,5.7519,5.7997,5.7997,5.7997,5.8437,5.9795,6.0126,6.0701,6.2205,6.4971,6.8398,7.2569,7.4735,7.6313,7.7362,7.8736,7.914,7.7986,7.8332,7.8295,7.7546,7.7399,7.7289,7.7289,7.7289,7.7289,7.7289,7.7289,7.7289,7.7289,7.5821,7.5014,7.4867,7.3413,7.2606,7.2496,7.2496,7.2496,7.2496,7.2239,7.1358,7.0073,6.9816,6.8949,6.77,6.77,6.77,6.77,6.77,6.77,6.77,6.77,6.77,6.77,6.77,6.77,6.77,6.77,6.77,6.7664,6.7554,6.7517,6.737,6.6659,6.6512,6.6329,6.5655,6.5398,6.5251,6.5141,6.5118,6.5118,6.5118,6.5118,6.5141,6.5288,6.5288,6.5288,6.5288,6.5178,6.5118,6.5118,6.4995,6.4921,6.4921,6.431,6.3833,6.3735,6.2533,6.1661,6.1444,6.2036,6.1527,5.9544,5.9237,5.8422,5.6978,5.748,5.7712,5.7712,5.7712,5.7679,5.7543,5.6934,5.663,5.2828,5.4449,5.5696,5.5629,5.7152,5.8425,5.7629,5.774,5.8107,5.8547,5.8646,5.9134,6.075,6.2144,6.4004,6.6903,6.8678,7.0587,7.3318,7.4331,7.5432,7.7105,7.7598,7.7855,7.8002,7.7949,7.7729,7.7326,7.7289,7.7289,7.7289,7.7289,7.7289,7.7289,7.7289,7.7289,7.7289,7.5711,7.4903,7.4903,7.3707,7.2936,7.2496,7.2496,7.2496,7.2459,7.1578,7.077,7.0036,6.9169,6.8361,6.77,6.77,6.77,6.77,6.77,6.77,6.77,6.77,6.77,6.77,6.77,6.77,6.77,6.77,6.77,6.77,6.77,6.77,6.7627,6.726,6.7136,6.7063,6.6659,6.6586,6.6476,6.6035,6.5962,6.5962,6.5962,6.5962,6.6109,6.6512,6.6586,6.6586,6.6586,6.6219,6.5962,6.5962,6.5582,6.5288,6.5288,6.4971,6.4558,6.4048,6.3303,6.245,6.1596,6.1904,6.1417,5.9889,5.978,5.8995,5.7426,5.7712,5.79,5.79,5.79,5.79,5.79,5.7543,5.7374,5.3214,5.4509,5.5658,5.5842,5.7409,5.8866,5.8621,5.8547,5.8914,6.0114,6.0187,6.0554,6.2181,6.4494,6.7343,7.0977,7.1894,7.2701,7.4331,7.4551,7.5249,7.7069,7.6738,7.69,7.8185,7.7693,7.7289,7.7289,7.7289,7.7289,7.7289,7.7289,7.7289,7.7289,7.7289,7.7215,7.7032,7.5601,7.4903,7.4903,7.3891,7.3083,7.2496,7.2496,7.2496,7.2422,7.1211,7.044,7.0,6.8765,6.8031,6.77,6.77,6.77,6.77,6.77,6.77,6.77,6.77,6.77,6.77,6.77,6.77,6.77,6.77,6.7847,6.7994,6.7994,6.8104,6.8178,6.7811,6.77,6.77,6.77,6.77,6.7517,6.6916,6.6769,6.6769,6.6769,6.6769,6.699,6.759,6.77,6.77,6.77,6.7187,6.6716,6.6505,6.5929,6.5482,6.5232,6.5072,6.4511,6.3417,6.3306,6.2773,6.1518,6.1455,6.1204,6.0583,6.0203,5.9488,5.8441,5.8069,5.8069,5.8407,5.822,5.8254,5.8407,5.822,5.8152,5.3885,5.495,5.5768,5.6528,5.7409,5.8474,5.9905,6.0236,6.0896,6.3246,6.3099,6.305,6.4738,6.7013,6.9472,7.2018,7.3656,7.5197,7.6812,7.7032,7.7105,7.7289,7.7252,7.7252,7.7399,7.7362,7.7289,7.7289,7.7289,7.7289,7.7289,7.7289,7.7289,7.7289,7.7289,7.6922,7.6203,7.5307,7.4903,7.4867,7.334,7.2569,7.2496,7.2496,7.2496,7.2496,7.2386,7.1468,7.0073,6.9963,6.9059,6.77,6.77,6.77,6.77,6.77,6.77,6.77,6.77,6.77,6.77,6.77,6.77,6.77,6.77,6.8201,6.8825,6.8825,6.9339,6.9559,6.8104,6.77,6.77,6.77,6.77,6.7664,6.7627,6.7627,6.7627,6.7627,6.7627,6.7627,6.77,6.77,6.77,6.77,6.7664,6.7309,6.651,6.6349,6.5991,6.5135,6.4331,6.3301,6.1727,6.1571,6.1497,6.1329,6.1369,6.138,6.1311,5.9873,5.9358,5.9945,5.861,5.8558,5.9945,5.925,5.9268,5.9945,5.9235,5.8912,5.3371,5.462,5.5805,5.659,5.7409,5.8547,6.0676,6.152,6.2462,6.4457,6.5778,6.7086,6.8738,7.0587,7.2349,7.3766,7.5344,7.6592,7.7215,7.7289,7.7289,7.7289,7.7289,7.7289,7.7289,7.7289,7.7289,7.7289,7.7289,7.7289,7.7289,7.7289,7.7289,7.7289,7.7289,7.6922,7.6093,7.5322,7.4647,7.4147,7.3046,7.2496,7.2496,7.2496,7.2496,7.2459,7.1431,7.066,7.0,6.9009,6.8531,6.8458,6.8458,6.8458,6.8385,6.7884,6.77,6.77,6.77,6.77,6.7774,6.8274,6.8458,6.8531,6.9045,6.9412,6.9633,6.9633,6.9853,6.9963,6.9339,6.8825,6.8458,6.8458,6.8068,6.77,6.77,6.77,6.77,6.77,6.77,6.77,6.77,6.77,6.7515,6.6967,6.6896,6.6568,6.5633,6.6064,6.6478,6.6617,6.584,6.4631,6.2976,6.2341,6.2006,6.2014,6.1575,6.1338,6.1338,6.0744,6.0317,6.0114,5.9099,5.9099,6.0114,5.9351,5.9385,6.008,5.981,5.9419,5.3067,5.3995,5.5097,5.6161,5.7042,5.851,6.1998,6.3196,6.4334,6.7013,6.8665,6.9986,7.1087,7.2422,7.3597,7.4404,7.6078,7.7289,7.7289,7.7289,7.7289,7.7289,7.7289,7.7289,7.7289,7.7289,7.7289,7.7289,7.7289,7.7289,7.7289,7.7289,7.7179,7.6922,7.6922,7.6408,7.5359,7.4808,7.4111,7.3303,7.2753,7.2496,7.2496,7.2496,7.2349,7.2041,7.0954,7.0183,6.9633,6.8531,6.8238,6.8531,6.8531,6.8531,6.8458,6.7921,6.77,6.7737,6.7994,6.8091,6.8201,6.9009,6.9302,6.9376,6.9926,7.011,7.0146,7.0403,7.0477,7.0477,7.0477,6.9706,6.8885,6.8885,6.8274,6.77,6.77,6.77,6.77,6.77,6.7921,6.8091,6.8091,6.8288,6.8257,6.7673,6.7368,6.6927,6.63,6.6536,6.687,6.7066,6.6249,6.5241,6.409,6.3436,6.299,6.2753,6.2279,6.1907,6.167,6.1434,6.1163,6.0825,5.9844,5.9844,6.0825,6.008,6.0114,6.0825,6.0588,6.0216,5.3214,5.3214,5.3581,5.5218,5.6235,5.8315,6.4004,6.5288,6.6683,7.1541,7.1857,7.1344,7.1344,7.1967,7.2789,7.356,7.5711,7.7289,7.7289,7.7289,7.7289,7.7289,7.7289,7.7289,7.7289,7.7289,7.7289,7.7289,7.7289,7.7289,7.7289,7.7289,7.6922,7.613,7.6093,7.5322,7.3707,7.3722,7.3303,7.2496,7.2496,7.2496,7.2496,7.2496,7.2041,7.1307,7.127,7.0353,6.8885,6.8885,6.8421,6.77,6.77,6.77,6.77,6.77,6.77,6.7847,6.8641,6.8898,6.9045,6.9853,7.011,7.0073,7.011,7.011,7.0293,7.105,7.1307,7.1307,7.1307,7.0096,6.8885,6.8885,6.8274,6.77,6.77,6.77,6.77,6.77,6.8348,6.8885,6.8898,6.9559,7.011,7.011,6.9398,6.8877,6.8816,6.8094,6.7198,6.6111,6.5192,6.4634,6.4613,6.4613,6.4309,6.3545,6.3511,6.3193,6.2434,6.1704,6.1637,6.24,6.0892,6.0858,6.24,6.167,6.167,6.24,6.1637,6.1298,5.3361,5.3618,5.4436,5.6051,5.7923,6.0517,6.5118,6.6145,6.7687,7.3068,7.356,7.3156,7.3729,7.4478,7.4918,7.4588,7.6078,7.7289,7.7289,7.7289,7.7289,7.7289,7.7289,7.7289,7.7289,7.7289,7.7289,7.7289,7.7289,7.7289,7.7289,7.6775,7.635,7.6093,7.5542,7.4771,7.3722,7.3722,7.3303,7.2496,7.1931,7.1931,7.2496,7.1894,7.1527,7.1233,7.0096,6.9325,6.8885,6.8885,6.8752,6.8531,6.8531,6.8531,6.8531,6.8531,6.8531,6.8641,6.9449,6.9376,6.9119,7.0499,7.0183,6.9486,7.061,7.094,7.0881,7.055,7.0866,7.116,7.0587,6.9669,6.8885,6.8885,6.8274,6.77,6.77,6.77,6.7884,6.8421,6.8752,6.9082,6.9633,6.9926,6.9905,6.9294,6.8986,6.8823,6.8811,6.9085,6.8674,6.7077,6.7197,6.6655,6.4755,6.4613,6.4512,6.4309,6.3781,6.3193,6.2434,6.2178,6.2178,6.24,6.1434,6.1434,6.24,6.167,6.167,6.2381,6.2178,6.1806,5.4106,5.4289,5.495,5.7178,5.9318,6.2108,6.6843,6.8935,7.0991,7.5014,7.494,7.4404,7.5249,7.5506,7.5579,7.538,7.6445,7.7289,7.7289,7.7289,7.7289,7.7289,7.7289,7.7289,7.7289,7.7289,7.7289,7.7289,7.7289,7.7289,7.7289,7.6533,7.5946,7.5616,7.4845,7.4037,7.323,7.2899,7.2496,7.2004,7.1211,7.1101,7.1541,7.105,7.0646,7.0279,6.8972,6.8421,6.8421,6.8421,6.8421,6.8421,6.8421,6.8605,6.8885,6.8885,6.9119,6.9449,6.9926,6.9779,6.9559,7.0513,7.0183,6.9559,7.055,7.061,7.0316,7.0146,7.044,7.066,6.9816,6.9486,6.9302,6.8958,6.8274,6.77,6.77,6.77,6.7847,6.8311,6.8935,6.9522,7.0,7.0624,7.0871,7.0344,7.0284,7.016,6.9832,7.0175,7.0033,6.8939,6.8593,6.7776,6.616,6.5671,6.5358,6.5053,6.4613,6.4038,6.3294,6.2705,6.24,6.24,6.1941,6.1941,6.24,6.1941,6.1975,6.24,6.24,6.2144,5.5218,5.5181,5.55,5.8719,6.1031,6.387,6.9192,7.2753,7.5307,7.6702,7.5931,7.5234,7.5983,7.5506,7.5234,7.5983,7.6775,7.7289,7.7215,7.7179,7.7215,7.7289,7.7252,7.7215,7.7289,7.7252,7.7179,7.7179,7.7142,7.7069,7.7069,7.6313,7.5542,7.4793,7.4001,7.3193,7.2422,7.1674,7.127,7.1197,7.0367,7.0,7.0,7.0,6.9559,6.8752,6.8031,6.77,6.77,6.77,6.77,6.77,6.77,6.8201,6.8898,6.8958,6.9522,7.022,7.022,7.0146,7.011,7.011,7.0,6.9889,6.9963,6.9522,6.9155,6.9816,7.0036,6.9926,6.9119,6.9376,6.9706,6.8972,6.8238,6.77,6.77,6.7774,6.7811,6.7811,6.9059,7.011,7.0183,7.1431,7.2422,7.2496,7.2496,7.2239,7.149,7.1311,7.1191,7.1127,6.9441,6.8285,6.8208,6.7332,6.6508,6.5751,6.5717,6.5358,6.4647,6.3294,6.2584,6.2584,6.2516,6.2502,6.2502,6.2434,6.24,6.24,6.24,6.24,5.5511,5.6393,5.7997,6.1215,6.5655,6.9889,7.2349,7.3964,7.483,7.4515,7.5212,7.5909,7.6056,7.5946,7.5909,7.6056,7.6775,7.7069,7.646,7.635,7.6592,7.7215,7.6738,7.6592,7.7252,7.6738,7.635,7.635,7.5747,7.5417,7.5417,7.4661,7.4147,7.3964,7.3193,7.2386,7.1564,7.138,7.0977,7.033,6.9559,6.9155,6.9155,6.9155,6.8715,6.7958,6.7774,6.77,6.77,6.77,6.77,6.77,6.77,6.8201,6.8958,6.9596,7.0367,7.105,7.105,7.0624,7.011,7.011,6.9242,6.8325,6.8972,6.9486,6.9743,6.9302,6.9596,6.9926,6.9119,6.8568,6.8178,6.7994,6.7847,6.77,6.77,6.8201,6.8641,6.8641,6.9412,7.0293,7.094,7.1344,7.1784,7.2422,7.2496,7.2459,7.2275,7.2204,7.1936,7.1191,7.0057,6.9058,6.8266,6.7332,6.6508,6.5751,6.5717,6.5358,6.4647,6.4309,6.414,6.414,6.3565,6.324,6.324,6.2685,6.24,6.24,6.24,6.24,5.6429,5.7629,5.9648,6.4053,6.8261,7.1711,7.334,7.4037,7.4221,7.378,7.4661,7.5542,7.5542,7.5542,7.5542,7.5542,7.5894,7.6004,7.5579,7.5542,7.5674,7.6114,7.5784,7.5674,7.6114,7.5747,7.5542,7.5542,7.5124,7.4903,7.4903,7.4147,7.3722,7.3722,7.2569,7.1711,7.1307,7.0536,6.9949,6.9522,6.8715,6.8311,6.8311,6.8311,6.8091,6.77,6.77,6.77,6.77,6.77,6.77,6.77,6.77,6.8435,6.9486,6.9522,7.0293,7.1197,7.0426,6.9889,6.9449,6.9096,6.8398,6.7774,6.8201,6.8605,6.8875,6.8421,6.8898,6.9339,6.8531,6.8311,6.8164,6.7811,6.77,6.77,6.77,6.8017,6.8311,6.8311,6.9302,7.022,7.066,7.1344,7.2004,7.2459,7.2496,7.2496,7.2496,7.2496,7.2299,7.1824,7.0914,7.016,6.9637,6.8301,6.7289,6.6933,6.648,6.6068,6.5662,6.5662,6.5155,6.4106,6.4018,6.37,6.2956,6.2956,6.2753,6.24,6.24,6.24,5.7005,5.8877,6.1508,6.6636,6.9816,7.2041,7.323,7.3597,7.367,7.3523,7.4037,7.45,7.45,7.45,7.45,7.45,7.472,7.483,7.472,7.4683,7.472,7.4867,7.4793,7.4757,7.4903,7.4757,7.4683,7.4683,7.4573,7.4426,7.428,7.378,7.3413,7.3303,7.2114,7.138,7.1087,6.9765,6.8972,6.8678,6.8031,6.77,6.77,6.77,6.77,6.77,6.77,6.77,6.77,6.77,6.77,6.77,6.77,6.8618,6.9816,6.9155,6.9839,7.0866,6.9398,6.8885,6.8788,6.7958,6.77,6.77,6.77,6.7811,6.7921,6.7921,6.8385,6.8752,6.8091,6.8311,6.8531,6.7847,6.7811,6.7884,6.7737,6.7921,6.8068,6.7921,6.9192,7.0293,7.0293,7.1541,7.2496,7.2496,7.2496,7.2496,7.2496,7.2496,7.2496,7.2496,7.165,7.1111,7.1111,6.9477,6.8347,6.8035,6.7392,6.6899,6.6609,6.6724,6.5878,6.3917,6.4478,6.4174,6.2976,6.3463,6.3396,6.2773,6.2773,6.2773,5.5658,6.0126,6.5178,6.8054,7.1064,7.323,7.2789,7.3193,7.3487,7.2789,7.2753,7.2826,7.2826,7.2826,7.2826,7.2826,7.3986,7.4647,7.3964,7.3854,7.4111,7.483,7.4294,7.4147,7.483,7.4258,7.3854,7.3854,7.3193,7.2518,7.1821,7.2349,7.2349,7.1637,7.2092,7.1688,7.0257,7.0036,6.9229,6.7847,6.7737,6.77,6.77,6.77,6.77,6.77,6.77,6.77,6.77,6.77,6.77,6.77,6.77,6.8238,6.9045,6.8935,6.9486,7.0146,6.9229,6.8885,6.8788,6.7958,6.77,6.77,6.77,6.8201,6.8752,6.8752,6.8811,6.8898,6.8788,6.8311,6.7847,6.7737,6.8238,6.8568,6.7847,6.8802,6.9559,6.8898,7.0022,7.1123,7.1123,7.1908,7.2496,7.2496,7.2496,7.2496,7.2496,7.2496,7.2496,7.2496,7.165,7.1111,7.1111,7.0109,6.885,6.7364,6.7707,6.7373,6.5907,6.6474,6.6373,6.5425,6.5514,6.548,6.5277,6.4715,6.441,6.4309,6.4309,6.4309,5.8107,6.1406,6.4849,6.8619,7.0624,7.1835,7.2386,7.2789,7.2936,7.2569,7.1798,7.1431,7.2349,7.2114,7.1821,7.1821,7.2408,7.2591,7.1798,7.2055,7.2312,7.2239,7.2312,7.2312,7.2239,7.1872,7.1872,7.2312,7.2041,7.1674,7.1307,7.2041,7.1908,7.066,7.0954,7.0587,6.9449,6.8972,6.8398,6.77,6.77,6.77,6.77,6.77,6.77,6.77,6.77,6.77,6.77,6.77,6.77,6.77,6.77,6.8201,6.8862,6.8385,6.8752,6.9302,6.8495,6.8238,6.8164,6.7811,6.77,6.77,6.77,6.7958,6.8238,6.8238,6.8238,6.8311,6.8788,6.8641,6.8495,6.8949,6.9302,6.9486,6.9119,6.961,7.0146,7.0243,7.083,7.1454,7.1894,7.2275,7.2496,7.2496,7.2496,7.2496,7.2496,7.2496,7.2496,7.2496,7.2116,7.1869,7.1869,7.1031,7.0154,6.9404,6.9139,6.8451,6.7147,6.7396,6.7182,6.6326,6.6305,6.5899,6.5087,6.5155,6.4986,6.4613,6.4613,6.4613,5.8688,6.0593,6.2556,6.7362,6.8882,6.9693,7.1719,7.2055,7.2018,7.2422,7.1064,7.0293,7.1908,7.138,7.0756,7.094,7.0977,7.0793,7.0183,7.0624,7.077,7.0183,7.0624,7.077,7.0146,7.011,7.033,7.094,7.0977,7.0903,7.0683,7.1454,7.1248,6.9853,7.0,6.9706,6.8898,6.8091,6.77,6.77,6.77,6.77,6.77,6.77,6.77,6.77,6.77,6.77,6.77,6.77,6.77,6.77,6.77,6.8068,6.8531,6.7921,6.8091,6.8495,6.7921,6.77,6.77,6.77,6.77,6.77,6.77,6.77,6.77,6.77,6.7847,6.8128,6.8752,6.9045,6.9376,6.9963,7.0257,7.0403,7.0403,7.0403,7.066,7.1454,7.16,7.1784,7.2422,7.2496,7.2496,7.2496,7.2496,7.2496,7.2496,7.2496,7.2496,7.2496,7.2496,7.2496,7.2496,7.1854,7.1334,7.1127,7.0451,6.9619,6.8629,6.8324,6.7886,6.7182,6.6904,6.625,6.5155,6.5696,6.5696,6.5155,6.5155,6.5155,5.4295,5.6098,5.8467,6.3228,6.5562,6.7513,7.0666,7.077,7.066,7.2202,7.0624,6.9435,7.1087,7.0059,6.9265,7.0036,7.0146,7.0146,7.011,7.0146,7.0146,7.011,7.0146,7.0146,7.011,7.011,7.011,7.0146,7.0146,6.9816,6.9082,6.9779,6.9853,6.9009,6.9706,6.9706,6.8898,6.8091,6.77,6.77,6.77,6.77,6.77,6.77,6.77,6.77,6.77,6.77,6.77,6.77,6.77,6.77,6.77,6.7737,6.7774,6.7737,6.7737,6.7774,6.77,6.77,6.77,6.77,6.77,6.77,6.77,6.77,6.77,6.77,6.8238,6.8862,6.8885,6.9486,7.0036,7.0073,7.0697,7.1233,7.1233,7.1233,7.149,7.2275,7.2459,7.2459,7.2496,7.2496,7.2496,7.2496,7.2496,7.2496,7.2496,7.2496,7.2496,7.2496,7.2496,7.2496,7.2496,7.2452,7.2041,7.1159,7.1027,7.0618,6.9672,6.8704,6.8169,6.8146,6.723,6.6757,6.669,6.6724,6.6724,6.669,6.669,6.669,5.3891,5.5093,5.655,6.0843,6.3451,6.5381,6.7055,6.8826,7.011,7.0183,6.9509,6.9215,7.033,6.9633,6.9009,6.9302,6.9339,6.9155,6.8618,6.9009,6.9155,6.8618,6.9009,6.9119,6.8618,6.8545,6.8752,6.9302,6.9339,6.9192,6.8921,6.9669,6.9486,6.8178,6.8898,6.8935,6.8128,6.7847,6.77,6.77,6.77,6.77,6.77,6.77,6.77,6.77,6.77,6.77,6.77,6.77,6.77,6.77,6.77,6.77,6.77,6.77,6.77,6.77,6.77,6.77,6.77,6.77,6.77,6.77,6.77,6.77,6.7811,6.8311,6.8311,6.8495,7.0022,7.0257,7.0367,7.1394,7.1872,7.2078,7.2078,7.2078,7.2151,7.2459,7.2496,7.2496,7.2496,7.2496,7.2496,7.2496,7.2496,7.2496,7.2496,7.2496,7.2496,7.2496,7.2496,7.2496,7.2496,7.2496,7.238,7.2026,7.2011,7.1573,7.0635,7.0263,6.9477,6.8208,6.7886,6.7414,6.6791,6.6791,6.6791,6.6791,6.6791,6.6791,5.2163,5.2959,5.4183,5.8405,6.0412,6.1971,6.4339,6.6511,6.8177,6.8455,6.8476,6.8752,6.9559,6.9045,6.8605,6.8862,6.8678,6.8311,6.7774,6.8164,6.8311,6.7774,6.8164,6.8274,6.7737,6.77,6.7921,6.8458,6.8495,6.8495,6.8495,6.9009,6.8802,6.7737,6.8201,6.8238,6.77,6.77,6.77,6.77,6.77,6.77,6.77,6.77,6.77,6.77,6.77,6.77,6.77,6.77,6.77,6.77,6.77,6.77,6.77,6.77,6.77,6.77,6.77,6.77,6.77,6.77,6.77,6.77,6.77,6.77,6.7811,6.8348,6.8495,6.8862,7.0477,7.0917,7.1174,7.2239,7.2496,7.2496,7.2496,7.2496,7.2496,7.2496,7.2496,7.2496,7.2496,7.2496,7.2496,7.2496,7.2496,7.2496,7.2496,7.2496,7.2496,7.2496,7.2496,7.2496,7.2496,7.2496,7.2496,7.2496,7.2496,7.2226,7.1588,7.1271,7.0348,6.8742,6.8362,6.7727,6.6791,6.6791,6.6791,6.6791,6.6791,6.6791,0.0,0.0,0.0,5.5689,5.6343,5.7257,6.2528,6.3836,6.4629,6.7065,6.7547,6.782,6.8701,6.8238,6.7958,6.8752,6.8201,6.77,6.77,6.77,6.77,6.77,6.77,6.77,6.77,6.77,6.77,6.77,6.77,6.77,6.77,6.77,6.77,6.77,6.7664,6.7664,6.77,6.7664,6.7664,6.7664,6.7664,6.7664,6.7627,6.7627,6.7627,6.7627,6.7664,6.7664,6.7664,6.77,6.77,6.77,6.77,6.77,6.77,6.77,6.77,6.77,6.77,6.77,6.77,6.77,6.77,6.77,6.77,6.77,6.77,6.7737,6.8875,7.0073,7.011,7.1321,7.2496,7.2496,7.2496,7.2496,7.2496,7.2496,7.2496,7.2496,7.2496,7.2496,7.2496,7.2496,7.2496,7.2496,7.2496,7.2496,7.2496,7.2496,7.2496,7.2496,7.2496,7.2496,7.2496,7.2496,7.2496,7.2496,7.2496,7.2496,7.2496,7.1588,7.0668,6.9725,6.8704,6.7727,6.6791,6.6791,6.6791,6.6791,6.6791,6.6791,4.7988,0.0,0.0,0.0,0.0,0.0,5.6935,5.8653,6.0719,6.3625,6.4249,6.5077,6.7583,6.7847,6.7774,6.7994,6.7847,6.77,6.77,6.77,6.77,6.77,6.77,6.77,6.77,6.77,6.77,6.77,6.77,6.77,6.77,6.77,6.77,6.77,6.715,6.7113,6.77,6.71,6.6843,6.6843,6.6843,6.6512,6.5962,6.5962,6.5962,6.5999,6.6586,6.6843,6.688,6.748,6.77,6.77,6.77,6.77,6.77,6.77,6.77,6.77,6.77,6.77,6.77,6.77,6.77,6.77,6.77,6.77,6.7811,6.8385,6.8898,6.9522,7.0683,7.1711,7.2496,7.2496,7.2496,7.2496,7.2496,7.2496,7.2496,7.2496,7.2496,7.2496,7.2496,7.2496,7.2496,7.2496,7.2496,7.2496,7.2496,7.2496,7.2496,7.2496,7.2496,7.2496,7.2496,7.2496,7.2496,7.2496,7.2496,7.2496,7.2496,7.1588,7.0668,6.9725,6.8704,6.7727,6.6791,6.6791,6.6791,6.6791,6.6791,6.6791,0.0,0.0,0.0,0.0,0.0,0.0,5.4372,5.6274,5.8452,6.0898,6.2502,6.4041,6.5873,6.6489,6.6806,6.715,6.7187,6.7333,6.7664,6.77,6.759,6.726,6.7187,6.7076,6.6733,6.699,6.7187,6.7187,6.7517,6.7554,6.7223,6.7187,6.704,6.6696,6.6256,6.6219,6.6696,6.6549,6.6329,6.5999,6.6329,6.6072,6.5288,6.5288,6.5288,6.5325,6.5802,6.5999,6.6072,6.688,6.7407,6.77,6.77,6.77,6.77,6.77,6.77,6.77,6.77,6.77,6.77,6.77,6.77,6.77,6.77,6.77,6.7811,6.8274,6.8862,6.9706,7.0977,7.1894,7.2496,7.2496,7.2496,7.2496,7.2496,7.2496,7.2496,7.2496,7.2496,7.2606,7.2936,7.2716,7.2606,7.2936,7.2716,7.2496,7.2496,7.2496,7.2496,7.2496,7.2496,7.2496,7.2496,7.2496,7.2496,7.2496,7.2496,7.2496,7.2496,7.1981,7.1239,7.0315,6.9332,6.818,6.6791,6.6791,6.6791,6.6791,6.6791,6.6791,0.0,0.0,0.0,0.0,5.0574,0.0,5.3501,5.5284,5.6826,5.8461,6.1201,6.341,6.3658,6.4406,6.5251,6.5962,6.6256,6.6659,6.759,6.77,6.7444,6.6733,6.6549,6.6219,6.5508,6.5999,6.6366,6.6366,6.7026,6.71,6.6402,6.6366,6.6035,6.5325,6.5215,6.5215,6.5288,6.5999,6.5922,6.5037,6.5922,6.5849,6.4891,6.5079,6.5105,6.5031,6.5137,6.515,6.5215,6.592,6.674,6.759,6.7664,6.77,6.77,6.77,6.77,6.77,6.77,6.77,6.77,6.77,6.77,6.77,6.77,6.77,6.7737,6.7811,6.8949,7.0293,7.1087,7.1894,7.2496,7.2496,7.2496,7.2496,7.2496,7.2569,7.2606,7.2532,7.2569,7.2863,7.356,7.3193,7.2973,7.3597,7.3083,7.2606,7.2496,7.2496,7.2496,7.2496,7.2496,7.2496,7.2496,7.2496,7.2496,7.2496,7.2496,7.2496,7.2496,7.2482,7.2039,7.1127,7.0057,6.8682,6.6946,6.6854,6.6791,6.6791,6.6791,6.6791,0.0,0.0,0.0,0.0,5.0186,0.0,5.098,5.1675,5.2985,5.5231,5.7125,5.899,6.0932,6.2378,6.3343,6.349,6.4664,6.6035,6.7517,6.77,6.7627,6.748,6.688,6.6439,6.6292,6.5815,6.5508,6.5508,6.5692,6.5705,6.5545,6.5508,6.5472,6.5288,6.4677,6.464,6.5288,6.5472,6.4792,6.3309,6.4805,6.4427,6.2359,6.3735,6.3943,6.3318,6.3971,6.4271,6.4345,6.4444,6.5391,6.6806,6.7444,6.77,6.77,6.77,6.77,6.77,6.77,6.77,6.77,6.77,6.77,6.77,6.77,6.77,6.7847,6.8495,6.9376,7.0293,7.1087,7.1894,7.2496,7.2496,7.2496,7.2496,7.2496,7.301,7.3266,7.2642,7.301,7.3523,7.3685,7.4111,7.4258,7.378,7.356,7.323,7.2569,7.2496,7.2496,7.2496,7.2496,7.2496,7.2496,7.2496,7.2496,7.2496,7.2496,7.2496,7.2496,7.2397,7.1974,7.1111,6.9369,6.832,6.7911,6.7182,6.6791,6.6791,6.6791,6.6791,0.0,0.0,0.0,4.956,0.0,0.0,0.0,5.0955,5.1711,5.3266,5.4808,5.6203,5.741,5.8587,5.9882,6.1431,6.2407,6.3643,6.5642,6.693,6.7554,6.7136,6.6402,6.5742,6.5338,6.4934,6.4861,6.5251,6.5668,6.5558,6.4751,6.4714,6.4494,6.4077,6.3649,6.3649,6.404,6.4494,6.3862,6.2231,6.3475,6.2978,6.1047,6.2249,6.2564,6.2189,6.2983,6.3607,6.3989,6.4053,6.5034,6.6549,6.6953,6.737,6.77,6.77,6.77,6.77,6.77,6.77,6.77,6.77,6.77,6.77,6.77,6.77,6.7774,6.8201,6.9155,7.0183,7.0587,7.1615,7.2496,7.2496,7.2496,7.2606,7.301,7.3083,7.3083,7.3083,7.3413,7.3722,7.3722,7.4037,7.4147,7.3744,7.3722,7.3413,7.2606,7.2496,7.2496,7.2496,7.2496,7.2496,7.2496,7.2863,7.2936,7.2532,7.2899,7.2936,7.2532,7.2808,7.2771,7.2299,7.1336,7.0367,6.9406,6.8558,6.768,6.6791,6.6791,6.6791,0.0,0.0,0.0,0.0,0.0,4.983,0.0,0.0,0.0,5.1672,5.3075,5.4203,5.4061,5.4788,5.6265,5.8822,5.9601,6.0585,6.247,6.4918,6.6429,6.6059,6.5338,6.464,6.4139,6.3809,6.3943,6.4774,6.5301,6.5044,6.3906,6.3833,6.3539,6.2829,6.2646,6.2646,6.2793,6.3339,6.2861,6.1393,6.2184,6.1703,6.0184,6.1117,6.1521,6.1549,6.2352,6.3163,6.3947,6.4041,6.5037,6.6512,6.6512,6.7003,6.77,6.77,6.77,6.77,6.77,6.77,6.77,6.77,6.77,6.77,6.77,6.77,6.77,6.77,6.8765,6.9889,7.0073,7.1174,7.2312,7.2459,7.2496,7.2716,7.3538,7.3303,7.3156,7.378,7.4037,7.4037,7.3758,7.3817,7.3891,7.3707,7.3722,7.3413,7.2606,7.2496,7.2569,7.2716,7.2716,7.2789,7.2973,7.3413,7.3487,7.301,7.3413,7.3487,7.2973,7.3597,7.3958,7.4006,7.3682,7.2637,7.0867,7.0079,6.8765,6.7015,6.6859,6.6791,0.0,0.0,0.0,0.0,5.1014,0.0,4.9661,0.0,5.0853,4.9647,0.0,5.2471,5.1824,0.0,0.0,5.4242,5.6061,5.7491,5.779,6.0464,6.2876,6.4209,6.3613,6.3343,6.4029,6.2781,6.2218,6.3013,6.2511,6.2401,6.2903,6.2939,6.2903,6.2793,6.2108,6.2071,6.2793,6.2199,6.1422,6.0555,6.1346,6.0873,5.9313,6.0861,6.1589,6.163,6.2434,6.3278,6.4082,6.402,6.5008,6.6512,6.6512,6.7003,6.77,6.77,6.77,6.77,6.77,6.77,6.77,6.77,6.77,6.77,6.77,6.77,6.77,6.77,6.8348,6.9192,6.9926,7.077,7.1637,7.2349,7.2496,7.2716,7.3538,7.4184,7.4647,7.4757,7.5359,7.5359,7.3942,7.4294,7.4515,7.3832,7.3722,7.3413,7.2606,7.2496,7.2789,7.3487,7.3575,7.3854,7.4573,7.4074,7.3964,7.4573,7.4037,7.3964,7.461,7.472,7.5094,7.5773,7.428,7.2949,7.1843,7.09,6.9556,6.776,6.7096,6.6791,0.0,0.0,0.0,0.0,0.0,0.0,4.983,0.0,4.9763,4.912,0.0,0.0,0.0,0.0,0.0,0.0,5.3744,5.4689,5.5539,5.7225,5.9401,6.238,6.2358,6.2254,6.2622,6.201,6.1741,6.2071,6.2218,6.2254,6.2108,6.2108,6.2108,6.2108,6.1315,6.1072,6.1386,6.1056,6.0489,5.9655,5.9986,5.9524,5.8423,5.9598,6.0352,6.0901,6.2186,6.3468,6.467,6.4735,6.571,6.7136,6.6659,6.7003,6.77,6.77,6.77,6.77,6.77,6.77,6.77,6.77,6.77,6.77,6.77,6.8017,6.8385,6.8385,6.9302,7.0353,7.072,7.138,7.2202,7.301,7.3193,7.3523,7.4808,7.4992,7.505,7.5506,7.5491,7.5212,7.4515,7.5065,7.5175,7.3905,7.4478,7.4808,7.3986,7.3876,7.4023,7.4368,7.4404,7.4536,7.4867,7.5028,7.5028,7.4903,7.4573,7.4771,7.5579,7.5616,7.5968,7.6775,7.6084,7.4933,7.3335,7.25,7.1131,6.9214,6.847,6.7895,5.1438,0.0,0.0,0.0,0.0,0.0,0.0,0.0,0.0,0.0,4.9458,0.0,0.0,0.0,5.0098,0.0,0.0,5.2458,5.3322,5.4296,5.6205,5.9669,6.0425,6.0568,6.0349,6.0502,6.0724,6.0943,6.1495,6.1655,6.13,6.1263,6.1263,6.1263,6.0267,5.9953,6.0386,5.9748,5.93,5.9094,5.8892,5.8581,5.8244,5.8771,5.9633,6.0741,6.2368,6.384,6.5198,6.5736,6.6659,6.7627,6.7063,6.7187,6.77,6.77,6.77,6.77,6.77,6.7847,6.8017,6.8017,6.8178,6.8361,6.8361,6.8752,6.9229,6.9229,7.0059,7.1013,7.1233,7.1711,7.2422,7.345,7.3722,7.4147,7.5763,7.5652,7.5469,7.6276,7.5968,7.5417,7.4977,7.538,7.5359,7.4184,7.5028,7.5579,7.4977,7.4903,7.4977,7.5197,7.5234,7.5307,7.5527,7.5909,7.5836,7.527,7.5454,7.5821,7.6423,7.6423,7.6702,7.7289,7.7289,7.6297,7.4291,7.3762,7.2455,7.0466,6.9316,6.847,5.2063,5.2841,5.3061,5.1573,5.1167,5.0795,4.9357,0.0,5.0083,0.0,0.0,5.1133,5.1133,5.1133,0.0,0.0,0.0,0.0,0.0,5.155,5.3373,5.5717,5.7355,5.7973,5.7128,5.777,5.853,5.9315,5.9334,5.9636,6.0419,6.0456,6.0456,6.0456,5.8949,5.8897,6.0386,5.8077,5.7639,5.9094,5.8299,5.8335,5.906,5.9095,6.0007,6.1642,6.325,6.447,6.5409,6.699,6.7664,6.77,6.7664,6.7664,6.77,6.77,6.77,6.77,6.77,6.8201,6.8862,6.8862,6.9376,7.0,7.0,7.0036,7.0073,7.0073,7.011,7.033,7.1087,7.1307,7.1747,7.3303,7.3722,7.4147,7.5763,7.6093,7.6313,7.7105,7.7252,7.6738,7.516,7.4903,7.4903,7.4867,7.4903,7.494,7.4903,7.4903,7.5197,7.5983,7.6056,7.6387,7.7179,7.6518,7.6093,7.6056,7.6775,7.7252,7.7252,7.7252,7.7289,7.7289,7.7289,7.6297,7.4291,7.4291,7.3217,7.1188,6.8977,6.7929,5.2232,5.2875,5.3247,5.2198,5.1573,5.093,4.9965,4.9914,5.0117,0.0,0.0,0.0,0.0,0.0,0.0,0.0,0.0,0.0,0.0,5.0537,5.1153,5.1939,5.4276,5.6113,5.6843,5.6662,5.707,5.8431,5.8446,5.8756,5.9563,5.96,5.96,5.96,5.8584,5.8066,5.8082,5.7242,5.7067,5.7583,5.7844,5.8358,5.9111,5.9704,6.058,6.1654,6.2737,6.3989,6.5362,6.6476,6.7223,6.77,6.77,6.77,6.77,6.77,6.77,6.7774,6.8311,6.9009,6.9706,6.9706,6.9889,7.011,7.011,7.0477,7.0866,7.0866,7.1284,7.1762,7.2004,7.2092,7.2496,7.4111,7.4478,7.494,7.6555,7.6497,7.6166,7.6445,7.6078,7.5527,7.4977,7.4903,7.472,7.4184,7.5454,7.6298,7.5763,7.6151,7.6592,7.6885,7.6885,7.6995,7.7289,7.7069,7.6885,7.6885,7.7142,7.7289,7.7289,7.7289,7.7289,7.7289,7.7289,7.6297,7.4291,7.4291,7.3028,7.0534,6.9282,6.8707,5.23,5.2875,5.3315,5.2503,5.1945,5.1404,5.0676,5.0676,5.0879,5.0879,0.0,0.0,0.0,0.0,0.0,0.0,0.0,0.0,0.0,4.9695,4.9796,5.0083,5.2287,5.4062,5.481,5.5141,5.56,5.6357,5.7158,5.7813,5.8315,5.8609,5.8756,5.8756,5.8039,5.7514,5.7298,5.6972,5.6826,5.6798,5.7621,5.8405,5.9203,6.0018,6.0992,6.2059,6.2908,6.4038,6.5362,6.6182,6.6953,6.77,6.77,6.77,6.7737,6.8031,6.8325,6.8618,6.9155,6.9853,7.055,7.055,7.0734,7.0954,7.0954,7.1321,7.1784,7.2078,7.2312,7.2569,7.2863,7.2716,7.2899,7.45,7.4903,7.5344,7.6959,7.6885,7.6518,7.6518,7.5873,7.5234,7.494,7.4903,7.483,7.4588,7.5652,7.6481,7.6518,7.6738,7.6995,7.7289,7.7289,7.7289,7.7289,7.7289,7.7289,7.7289,7.7289,7.7289,7.7289,7.7289,7.7436,7.7766,7.7102,7.6256,7.5277,7.4261,7.2847,7.1101,6.9986,6.9485]}]]